<?xml version="1.0" encoding="UTF-8" standalone="no" ?>
<gpx xmlns="http://www.topografix.com/GPX/1/1" xmlns:xsi="http://www.w3.org/2001/XMLSchema-instance" xsi:schemaLocation="http://www.topografix.com/GPX/1/1 http://www.topografix.com/GPX/1/1/gpx.xsd" version="1.1" creator="VisuGPX - https://www.visugpx.com">
  <metadata>
    <name>Ski assis à la Plagne</name>
    <desc><![CDATA[ski tranquille en station à La Plagne]]></desc>
  </metadata>
  <trk>
    <name><![CDATA[La Plagne]]></name>
    <trkseg>
      <trkpt lat="45.52606" lon="6.67362">
        <ele>1535</ele>
        <time>2012-03-11T09:39:34.001Z</time>
      </trkpt>
      <trkpt lat="45.52605" lon="6.67365">
        <ele>1533.5</ele>
        <time>2012-03-11T09:39:44Z</time>
      </trkpt>
      <trkpt lat="45.52601" lon="6.67368">
        <ele>1532.9</ele>
        <time>2012-03-11T09:39:49.002Z</time>
      </trkpt>
      <trkpt lat="45.52593" lon="6.67373">
        <ele>1531.3</ele>
        <time>2012-03-11T09:39:59.001Z</time>
      </trkpt>
      <trkpt lat="45.52585" lon="6.67376">
        <ele>1527.8</ele>
        <time>2012-03-11T09:40:09.001Z</time>
      </trkpt>
      <trkpt lat="45.52581" lon="6.67375">
        <ele>1524.8</ele>
        <time>2012-03-11T09:40:14Z</time>
      </trkpt>
      <trkpt lat="45.52575" lon="6.67386">
        <ele>1527.9</ele>
        <time>2012-03-11T09:44:09.001Z</time>
      </trkpt>
      <trkpt lat="45.52564" lon="6.6738">
        <ele>1524.6</ele>
        <time>2012-03-11T09:45:44Z</time>
      </trkpt>
      <trkpt lat="45.52562" lon="6.67369">
        <ele>1524.2</ele>
        <time>2012-03-11T09:45:49Z</time>
      </trkpt>
      <trkpt lat="45.52562" lon="6.67357">
        <ele>1524.7</ele>
        <time>2012-03-11T09:45:53.995Z</time>
      </trkpt>
      <trkpt lat="45.52562" lon="6.67349">
        <ele>1525</ele>
        <time>2012-03-11T09:45:58.995Z</time>
      </trkpt>
      <trkpt lat="45.52561" lon="6.67343">
        <ele>1525.2</ele>
        <time>2012-03-11T09:46:04.001Z</time>
      </trkpt>
      <trkpt lat="45.52554" lon="6.67314">
        <ele>1541.1</ele>
        <time>2012-03-11T09:47:44.002Z</time>
      </trkpt>
      <trkpt lat="45.52555" lon="6.67307">
        <ele>1539.8</ele>
        <time>2012-03-11T09:47:49.001Z</time>
      </trkpt>
      <trkpt lat="45.52554" lon="6.67291">
        <ele>1531</ele>
        <time>2012-03-11T09:48:14.001Z</time>
      </trkpt>
      <trkpt lat="45.5255" lon="6.67286">
        <ele>1530.9</ele>
        <time>2012-03-11T09:48:24.001Z</time>
      </trkpt>
      <trkpt lat="45.52552" lon="6.67283">
        <ele>1530.8</ele>
        <time>2012-03-11T09:48:28.998Z</time>
      </trkpt>
      <trkpt lat="45.52555" lon="6.6728">
        <ele>1525.9</ele>
        <time>2012-03-11T09:48:54.002Z</time>
      </trkpt>
      <trkpt lat="45.5255" lon="6.67289">
        <ele>1515.2</ele>
        <time>2012-03-11T09:50:18.995Z</time>
      </trkpt>
      <trkpt lat="45.52549" lon="6.67287">
        <ele>1515.8</ele>
        <time>2012-03-11T09:50:33.997Z</time>
      </trkpt>
      <trkpt lat="45.52541" lon="6.67277">
        <ele>1514.6</ele>
        <time>2012-03-11T09:50:39.001Z</time>
      </trkpt>
      <trkpt lat="45.52526" lon="6.67266">
        <ele>1514.7</ele>
        <time>2012-03-11T09:50:43.998Z</time>
      </trkpt>
      <trkpt lat="45.52511" lon="6.67257">
        <ele>1518.3</ele>
        <time>2012-03-11T09:50:49.001Z</time>
      </trkpt>
      <trkpt lat="45.52496" lon="6.67247">
        <ele>1523.1</ele>
        <time>2012-03-11T09:50:53.998Z</time>
      </trkpt>
      <trkpt lat="45.52483" lon="6.67235">
        <ele>1527.6</ele>
        <time>2012-03-11T09:50:58.998Z</time>
      </trkpt>
      <trkpt lat="45.52468" lon="6.67225">
        <ele>1532.3</ele>
        <time>2012-03-11T09:51:03.998Z</time>
      </trkpt>
      <trkpt lat="45.52452" lon="6.67214">
        <ele>1539.7</ele>
        <time>2012-03-11T09:51:09.001Z</time>
      </trkpt>
      <trkpt lat="45.52433" lon="6.67206">
        <ele>1547</ele>
        <time>2012-03-11T09:51:13.995Z</time>
      </trkpt>
      <trkpt lat="45.52416" lon="6.67193">
        <ele>1555.2</ele>
        <time>2012-03-11T09:51:18.998Z</time>
      </trkpt>
      <trkpt lat="45.52395" lon="6.67182">
        <ele>1565.3</ele>
        <time>2012-03-11T09:51:24Z</time>
      </trkpt>
      <trkpt lat="45.52376" lon="6.6717">
        <ele>1577.2</ele>
        <time>2012-03-11T09:51:29.001Z</time>
      </trkpt>
      <trkpt lat="45.52357" lon="6.67159">
        <ele>1590.8</ele>
        <time>2012-03-11T09:51:34Z</time>
      </trkpt>
      <trkpt lat="45.52336" lon="6.67147">
        <ele>1605.5</ele>
        <time>2012-03-11T09:51:39Z</time>
      </trkpt>
      <trkpt lat="45.52317" lon="6.67138">
        <ele>1619.8</ele>
        <time>2012-03-11T09:51:44.001Z</time>
      </trkpt>
      <trkpt lat="45.52297" lon="6.67127">
        <ele>1631.7</ele>
        <time>2012-03-11T09:51:49.001Z</time>
      </trkpt>
      <trkpt lat="45.52276" lon="6.67116">
        <ele>1642.2</ele>
        <time>2012-03-11T09:51:54Z</time>
      </trkpt>
      <trkpt lat="45.52255" lon="6.67105">
        <ele>1652.1</ele>
        <time>2012-03-11T09:51:59.001Z</time>
      </trkpt>
      <trkpt lat="45.52237" lon="6.67094">
        <ele>1662.4</ele>
        <time>2012-03-11T09:52:04.002Z</time>
      </trkpt>
      <trkpt lat="45.52218" lon="6.67085">
        <ele>1673.8</ele>
        <time>2012-03-11T09:52:08.995Z</time>
      </trkpt>
      <trkpt lat="45.52196" lon="6.67071">
        <ele>1683.8</ele>
        <time>2012-03-11T09:52:13.995Z</time>
      </trkpt>
      <trkpt lat="45.52175" lon="6.67058">
        <ele>1691.6</ele>
        <time>2012-03-11T09:52:18.998Z</time>
      </trkpt>
      <trkpt lat="45.52155" lon="6.67046">
        <ele>1697.9</ele>
        <time>2012-03-11T09:52:24Z</time>
      </trkpt>
      <trkpt lat="45.52134" lon="6.67034">
        <ele>1704.6</ele>
        <time>2012-03-11T09:52:29.001Z</time>
      </trkpt>
      <trkpt lat="45.52115" lon="6.67024">
        <ele>1712.2</ele>
        <time>2012-03-11T09:52:33.998Z</time>
      </trkpt>
      <trkpt lat="45.52095" lon="6.67014">
        <ele>1717.6</ele>
        <time>2012-03-11T09:52:39.002Z</time>
      </trkpt>
      <trkpt lat="45.52078" lon="6.67005">
        <ele>1723.3</ele>
        <time>2012-03-11T09:52:44Z</time>
      </trkpt>
      <trkpt lat="45.52057" lon="6.66993">
        <ele>1728.7</ele>
        <time>2012-03-11T09:52:48.998Z</time>
      </trkpt>
      <trkpt lat="45.52036" lon="6.66983">
        <ele>1734.2</ele>
        <time>2012-03-11T09:52:54.001Z</time>
      </trkpt>
      <trkpt lat="45.52016" lon="6.66971">
        <ele>1740.3</ele>
        <time>2012-03-11T09:52:58.994Z</time>
      </trkpt>
      <trkpt lat="45.51994" lon="6.66959">
        <ele>1746.8</ele>
        <time>2012-03-11T09:53:03.998Z</time>
      </trkpt>
      <trkpt lat="45.51975" lon="6.66946">
        <ele>1754.8</ele>
        <time>2012-03-11T09:53:08.998Z</time>
      </trkpt>
      <trkpt lat="45.51954" lon="6.66932">
        <ele>1764.7</ele>
        <time>2012-03-11T09:53:14.001Z</time>
      </trkpt>
      <trkpt lat="45.51937" lon="6.66919">
        <ele>1774.5</ele>
        <time>2012-03-11T09:53:19.002Z</time>
      </trkpt>
      <trkpt lat="45.51918" lon="6.66905">
        <ele>1783.2</ele>
        <time>2012-03-11T09:53:23.998Z</time>
      </trkpt>
      <trkpt lat="45.51897" lon="6.66894">
        <ele>1790.2</ele>
        <time>2012-03-11T09:53:29Z</time>
      </trkpt>
      <trkpt lat="45.51877" lon="6.6688">
        <ele>1797.2</ele>
        <time>2012-03-11T09:53:33.998Z</time>
      </trkpt>
      <trkpt lat="45.51859" lon="6.6687">
        <ele>1801.7</ele>
        <time>2012-03-11T09:53:39.001Z</time>
      </trkpt>
      <trkpt lat="45.5184" lon="6.66859">
        <ele>1807.4</ele>
        <time>2012-03-11T09:53:44.002Z</time>
      </trkpt>
      <trkpt lat="45.51823" lon="6.66845">
        <ele>1815</ele>
        <time>2012-03-11T09:53:49.001Z</time>
      </trkpt>
      <trkpt lat="45.51805" lon="6.66833">
        <ele>1822.6</ele>
        <time>2012-03-11T09:53:54Z</time>
      </trkpt>
      <trkpt lat="45.51789" lon="6.6682">
        <ele>1832.3</ele>
        <time>2012-03-11T09:53:59.001Z</time>
      </trkpt>
      <trkpt lat="45.51772" lon="6.66811">
        <ele>1840.7</ele>
        <time>2012-03-11T09:54:04.001Z</time>
      </trkpt>
      <trkpt lat="45.51754" lon="6.66801">
        <ele>1851.5</ele>
        <time>2012-03-11T09:54:09.001Z</time>
      </trkpt>
      <trkpt lat="45.51732" lon="6.66789">
        <ele>1865.4</ele>
        <time>2012-03-11T09:54:14Z</time>
      </trkpt>
      <trkpt lat="45.5171" lon="6.66775">
        <ele>1886.2</ele>
        <time>2012-03-11T09:54:19Z</time>
      </trkpt>
      <trkpt lat="45.51688" lon="6.66762">
        <ele>1905.4</ele>
        <time>2012-03-11T09:54:23.998Z</time>
      </trkpt>
      <trkpt lat="45.51666" lon="6.6675">
        <ele>1921.2</ele>
        <time>2012-03-11T09:54:29Z</time>
      </trkpt>
      <trkpt lat="45.51643" lon="6.66738">
        <ele>1935.4</ele>
        <time>2012-03-11T09:54:34Z</time>
      </trkpt>
      <trkpt lat="45.51622" lon="6.66726">
        <ele>1947.6</ele>
        <time>2012-03-11T09:54:39.004Z</time>
      </trkpt>
      <trkpt lat="45.51601" lon="6.66714">
        <ele>1956.8</ele>
        <time>2012-03-11T09:54:44.001Z</time>
      </trkpt>
      <trkpt lat="45.51581" lon="6.66703">
        <ele>1965.6</ele>
        <time>2012-03-11T09:54:49Z</time>
      </trkpt>
      <trkpt lat="45.51561" lon="6.66691">
        <ele>1973.6</ele>
        <time>2012-03-11T09:54:54.001Z</time>
      </trkpt>
      <trkpt lat="45.51542" lon="6.66679">
        <ele>1981.7</ele>
        <time>2012-03-11T09:54:59Z</time>
      </trkpt>
      <trkpt lat="45.51523" lon="6.66668">
        <ele>1991.9</ele>
        <time>2012-03-11T09:55:03.998Z</time>
      </trkpt>
      <trkpt lat="45.51503" lon="6.66657">
        <ele>1999.3</ele>
        <time>2012-03-11T09:55:09.001Z</time>
      </trkpt>
      <trkpt lat="45.51484" lon="6.66645">
        <ele>2005.9</ele>
        <time>2012-03-11T09:55:13.997Z</time>
      </trkpt>
      <trkpt lat="45.51464" lon="6.66634">
        <ele>2012.2</ele>
        <time>2012-03-11T09:55:19Z</time>
      </trkpt>
      <trkpt lat="45.51446" lon="6.66622">
        <ele>2020.1</ele>
        <time>2012-03-11T09:55:23.998Z</time>
      </trkpt>
      <trkpt lat="45.51428" lon="6.66611">
        <ele>2028.1</ele>
        <time>2012-03-11T09:55:29Z</time>
      </trkpt>
      <trkpt lat="45.5141" lon="6.66598">
        <ele>2036</ele>
        <time>2012-03-11T09:55:33.998Z</time>
      </trkpt>
      <trkpt lat="45.51391" lon="6.66585">
        <ele>2042.9</ele>
        <time>2012-03-11T09:55:39Z</time>
      </trkpt>
      <trkpt lat="45.51372" lon="6.66572">
        <ele>2049.6</ele>
        <time>2012-03-11T09:55:44.002Z</time>
      </trkpt>
      <trkpt lat="45.51352" lon="6.66559">
        <ele>2056.9</ele>
        <time>2012-03-11T09:55:48.998Z</time>
      </trkpt>
      <trkpt lat="45.51331" lon="6.66548">
        <ele>2064.6</ele>
        <time>2012-03-11T09:55:54.001Z</time>
      </trkpt>
      <trkpt lat="45.51309" lon="6.66536">
        <ele>2071.4</ele>
        <time>2012-03-11T09:55:58.998Z</time>
      </trkpt>
      <trkpt lat="45.51289" lon="6.66524">
        <ele>2078.7</ele>
        <time>2012-03-11T09:56:04.002Z</time>
      </trkpt>
      <trkpt lat="45.51269" lon="6.66512">
        <ele>2086.7</ele>
        <time>2012-03-11T09:56:09.001Z</time>
      </trkpt>
      <trkpt lat="45.51248" lon="6.665">
        <ele>2092.1</ele>
        <time>2012-03-11T09:56:14.005Z</time>
      </trkpt>
      <trkpt lat="45.5123" lon="6.66487">
        <ele>2096.8</ele>
        <time>2012-03-11T09:56:18.998Z</time>
      </trkpt>
      <trkpt lat="45.5121" lon="6.66474">
        <ele>2101.2</ele>
        <time>2012-03-11T09:56:24Z</time>
      </trkpt>
      <trkpt lat="45.51189" lon="6.66463">
        <ele>2106</ele>
        <time>2012-03-11T09:56:28.998Z</time>
      </trkpt>
      <trkpt lat="45.51169" lon="6.6645">
        <ele>2111.3</ele>
        <time>2012-03-11T09:56:33.998Z</time>
      </trkpt>
      <trkpt lat="45.51149" lon="6.66438">
        <ele>2117.5</ele>
        <time>2012-03-11T09:56:39Z</time>
      </trkpt>
      <trkpt lat="45.51128" lon="6.66426">
        <ele>2121.3</ele>
        <time>2012-03-11T09:56:44.004Z</time>
      </trkpt>
      <trkpt lat="45.51114" lon="6.66414">
        <ele>2126.2</ele>
        <time>2012-03-11T09:56:49.002Z</time>
      </trkpt>
      <trkpt lat="45.511" lon="6.66409">
        <ele>2127.8</ele>
        <time>2012-03-11T09:56:54.001Z</time>
      </trkpt>
      <trkpt lat="45.51091" lon="6.66416">
        <ele>2126.4</ele>
        <time>2012-03-11T09:56:59.001Z</time>
      </trkpt>
      <trkpt lat="45.51089" lon="6.66419">
        <ele>2126</ele>
        <time>2012-03-11T09:57:03.998Z</time>
      </trkpt>
      <trkpt lat="45.51087" lon="6.66425">
        <ele>2124.3</ele>
        <time>2012-03-11T09:57:09Z</time>
      </trkpt>
      <trkpt lat="45.51082" lon="6.66433">
        <ele>2123.5</ele>
        <time>2012-03-11T09:57:14Z</time>
      </trkpt>
      <trkpt lat="45.51078" lon="6.66441">
        <ele>2123.5</ele>
        <time>2012-03-11T09:57:19Z</time>
      </trkpt>
      <trkpt lat="45.51075" lon="6.66452">
        <ele>2123.5</ele>
        <time>2012-03-11T09:57:24.001Z</time>
      </trkpt>
      <trkpt lat="45.51066" lon="6.66459">
        <ele>2122.8</ele>
        <time>2012-03-11T09:57:29.001Z</time>
      </trkpt>
      <trkpt lat="45.51061" lon="6.66464">
        <ele>2122</ele>
        <time>2012-03-11T09:57:33.998Z</time>
      </trkpt>
      <trkpt lat="45.5105" lon="6.66477">
        <ele>2119.5</ele>
        <time>2012-03-11T09:57:39.001Z</time>
      </trkpt>
      <trkpt lat="45.51039" lon="6.66492">
        <ele>2116.9</ele>
        <time>2012-03-11T09:57:44Z</time>
      </trkpt>
      <trkpt lat="45.51029" lon="6.66511">
        <ele>2115</ele>
        <time>2012-03-11T09:57:49.001Z</time>
      </trkpt>
      <trkpt lat="45.51024" lon="6.66521">
        <ele>2112.8</ele>
        <time>2012-03-11T09:57:53.998Z</time>
      </trkpt>
      <trkpt lat="45.51018" lon="6.66533">
        <ele>2111.3</ele>
        <time>2012-03-11T09:57:59Z</time>
      </trkpt>
      <trkpt lat="45.51014" lon="6.66544">
        <ele>2109.9</ele>
        <time>2012-03-11T09:58:04Z</time>
      </trkpt>
      <trkpt lat="45.51008" lon="6.66553">
        <ele>2107.3</ele>
        <time>2012-03-11T09:58:08.998Z</time>
      </trkpt>
      <trkpt lat="45.50999" lon="6.66565">
        <ele>2103.9</ele>
        <time>2012-03-11T09:58:14Z</time>
      </trkpt>
      <trkpt lat="45.50989" lon="6.66576">
        <ele>2100.3</ele>
        <time>2012-03-11T09:58:19Z</time>
      </trkpt>
      <trkpt lat="45.50979" lon="6.66588">
        <ele>2096.6</ele>
        <time>2012-03-11T09:58:24.001Z</time>
      </trkpt>
      <trkpt lat="45.50966" lon="6.66607">
        <ele>2093.7</ele>
        <time>2012-03-11T09:58:28.998Z</time>
      </trkpt>
      <trkpt lat="45.50949" lon="6.66635">
        <ele>2090.5</ele>
        <time>2012-03-11T09:58:33.995Z</time>
      </trkpt>
      <trkpt lat="45.50928" lon="6.66667">
        <ele>2086.3</ele>
        <time>2012-03-11T09:58:39Z</time>
      </trkpt>
      <trkpt lat="45.50905" lon="6.66706">
        <ele>2081.6</ele>
        <time>2012-03-11T09:58:44.004Z</time>
      </trkpt>
      <trkpt lat="45.50885" lon="6.66761">
        <ele>2074.9</ele>
        <time>2012-03-11T09:58:49.002Z</time>
      </trkpt>
      <trkpt lat="45.50866" lon="6.66812">
        <ele>2066.6</ele>
        <time>2012-03-11T09:58:54.002Z</time>
      </trkpt>
      <trkpt lat="45.5086" lon="6.66852">
        <ele>2058.2</ele>
        <time>2012-03-11T09:58:59.001Z</time>
      </trkpt>
      <trkpt lat="45.50859" lon="6.66888">
        <ele>2050.5</ele>
        <time>2012-03-11T09:59:04Z</time>
      </trkpt>
      <trkpt lat="45.50846" lon="6.6691">
        <ele>2042.5</ele>
        <time>2012-03-11T09:59:08.998Z</time>
      </trkpt>
      <trkpt lat="45.5082" lon="6.66913">
        <ele>2034.9</ele>
        <time>2012-03-11T09:59:13.995Z</time>
      </trkpt>
      <trkpt lat="45.50793" lon="6.66929">
        <ele>2031.6</ele>
        <time>2012-03-11T09:59:18.998Z</time>
      </trkpt>
      <trkpt lat="45.50764" lon="6.66932">
        <ele>2028.6</ele>
        <time>2012-03-11T09:59:24.001Z</time>
      </trkpt>
      <trkpt lat="45.50738" lon="6.66947">
        <ele>2026</ele>
        <time>2012-03-11T09:59:28.994Z</time>
      </trkpt>
      <trkpt lat="45.50711" lon="6.66962">
        <ele>2024.4</ele>
        <time>2012-03-11T09:59:34.005Z</time>
      </trkpt>
      <trkpt lat="45.50677" lon="6.66963">
        <ele>2022.8</ele>
        <time>2012-03-11T09:59:39.001Z</time>
      </trkpt>
      <trkpt lat="45.50643" lon="6.66972">
        <ele>2019.3</ele>
        <time>2012-03-11T09:59:44.001Z</time>
      </trkpt>
      <trkpt lat="45.50614" lon="6.66993">
        <ele>2017.1</ele>
        <time>2012-03-11T09:59:49.001Z</time>
      </trkpt>
      <trkpt lat="45.50586" lon="6.67004">
        <ele>2014.5</ele>
        <time>2012-03-11T09:59:53.998Z</time>
      </trkpt>
      <trkpt lat="45.50577" lon="6.67007">
        <ele>2012</ele>
        <time>2012-03-11T09:59:59.001Z</time>
      </trkpt>
      <trkpt lat="45.50572" lon="6.67023">
        <ele>2010.1</ele>
        <time>2012-03-11T10:00:04Z</time>
      </trkpt>
      <trkpt lat="45.50569" lon="6.67056">
        <ele>2007.7</ele>
        <time>2012-03-11T10:00:09.004Z</time>
      </trkpt>
      <trkpt lat="45.50561" lon="6.67111">
        <ele>2003</ele>
        <time>2012-03-11T10:00:14.001Z</time>
      </trkpt>
      <trkpt lat="45.5054" lon="6.67164">
        <ele>1997.1</ele>
        <time>2012-03-11T10:00:19.005Z</time>
      </trkpt>
      <trkpt lat="45.50514" lon="6.67226">
        <ele>1990.7</ele>
        <time>2012-03-11T10:00:24.004Z</time>
      </trkpt>
      <trkpt lat="45.50491" lon="6.67295">
        <ele>1980.7</ele>
        <time>2012-03-11T10:00:29.004Z</time>
      </trkpt>
      <trkpt lat="45.50474" lon="6.67355">
        <ele>1971.6</ele>
        <time>2012-03-11T10:00:34.001Z</time>
      </trkpt>
      <trkpt lat="45.50462" lon="6.67399">
        <ele>1965.3</ele>
        <time>2012-03-11T10:00:38.998Z</time>
      </trkpt>
      <trkpt lat="45.50464" lon="6.67438">
        <ele>1958.9</ele>
        <time>2012-03-11T10:00:43.998Z</time>
      </trkpt>
      <trkpt lat="45.50471" lon="6.67475">
        <ele>1955.6</ele>
        <time>2012-03-11T10:00:49.001Z</time>
      </trkpt>
      <trkpt lat="45.50475" lon="6.67504">
        <ele>1952.1</ele>
        <time>2012-03-11T10:00:54.004Z</time>
      </trkpt>
      <trkpt lat="45.50475" lon="6.67533">
        <ele>1948.8</ele>
        <time>2012-03-11T10:00:59.002Z</time>
      </trkpt>
      <trkpt lat="45.50478" lon="6.67551">
        <ele>1948.4</ele>
        <time>2012-03-11T10:01:04.005Z</time>
      </trkpt>
      <trkpt lat="45.50481" lon="6.67565">
        <ele>1949.5</ele>
        <time>2012-03-11T10:01:08.998Z</time>
      </trkpt>
      <trkpt lat="45.50485" lon="6.67576">
        <ele>1951.5</ele>
        <time>2012-03-11T10:01:14.002Z</time>
      </trkpt>
      <trkpt lat="45.50489" lon="6.67589">
        <ele>1953.5</ele>
        <time>2012-03-11T10:01:19Z</time>
      </trkpt>
      <trkpt lat="45.50494" lon="6.67603">
        <ele>1954.1</ele>
        <time>2012-03-11T10:01:23.994Z</time>
      </trkpt>
      <trkpt lat="45.50495" lon="6.67618">
        <ele>1953.5</ele>
        <time>2012-03-11T10:01:28.998Z</time>
      </trkpt>
      <trkpt lat="45.50496" lon="6.67634">
        <ele>1952.8</ele>
        <time>2012-03-11T10:01:33.998Z</time>
      </trkpt>
      <trkpt lat="45.50498" lon="6.67648">
        <ele>1951.5</ele>
        <time>2012-03-11T10:01:38.998Z</time>
      </trkpt>
      <trkpt lat="45.50499" lon="6.67659">
        <ele>1951</ele>
        <time>2012-03-11T10:01:43.998Z</time>
      </trkpt>
      <trkpt lat="45.50501" lon="6.67669">
        <ele>1951.5</ele>
        <time>2012-03-11T10:01:48.998Z</time>
      </trkpt>
      <trkpt lat="45.50503" lon="6.67677">
        <ele>1952</ele>
        <time>2012-03-11T10:01:54.001Z</time>
      </trkpt>
      <trkpt lat="45.50505" lon="6.67684">
        <ele>1953.5</ele>
        <time>2012-03-11T10:01:59.001Z</time>
      </trkpt>
      <trkpt lat="45.50508" lon="6.67687">
        <ele>1954.4</ele>
        <time>2012-03-11T10:02:04Z</time>
      </trkpt>
      <trkpt lat="45.50511" lon="6.67696">
        <ele>1954.8</ele>
        <time>2012-03-11T10:02:08.994Z</time>
      </trkpt>
      <trkpt lat="45.50512" lon="6.67704">
        <ele>1954.5</ele>
        <time>2012-03-11T10:02:14Z</time>
      </trkpt>
      <trkpt lat="45.50512" lon="6.67712">
        <ele>1954.2</ele>
        <time>2012-03-11T10:02:19Z</time>
      </trkpt>
      <trkpt lat="45.50511" lon="6.6772">
        <ele>1953.6</ele>
        <time>2012-03-11T10:02:24.001Z</time>
      </trkpt>
      <trkpt lat="45.50511" lon="6.67725">
        <ele>1953.3</ele>
        <time>2012-03-11T10:02:29Z</time>
      </trkpt>
      <trkpt lat="45.50508" lon="6.67731">
        <ele>1952.9</ele>
        <time>2012-03-11T10:02:34Z</time>
      </trkpt>
      <trkpt lat="45.50507" lon="6.67737">
        <ele>1954.5</ele>
        <time>2012-03-11T10:02:38.998Z</time>
      </trkpt>
      <trkpt lat="45.50506" lon="6.67742">
        <ele>1956.1</ele>
        <time>2012-03-11T10:02:44Z</time>
      </trkpt>
      <trkpt lat="45.50504" lon="6.67743">
        <ele>1957.3</ele>
        <time>2012-03-11T10:02:49.001Z</time>
      </trkpt>
      <trkpt lat="45.50502" lon="6.67742">
        <ele>1959.3</ele>
        <time>2012-03-11T10:02:54.001Z</time>
      </trkpt>
      <trkpt lat="45.505" lon="6.67743">
        <ele>1961.2</ele>
        <time>2012-03-11T10:02:59.001Z</time>
      </trkpt>
      <trkpt lat="45.50505" lon="6.67746">
        <ele>1962.9</ele>
        <time>2012-03-11T10:03:14.001Z</time>
      </trkpt>
      <trkpt lat="45.50519" lon="6.67744">
        <ele>1985.6</ele>
        <time>2012-03-11T10:03:38.998Z</time>
      </trkpt>
      <trkpt lat="45.50497" lon="6.67726">
        <ele>1974.2</ele>
        <time>2012-03-11T10:07:49Z</time>
      </trkpt>
      <trkpt lat="45.50466" lon="6.67744">
        <ele>1984.8</ele>
        <time>2012-03-11T10:07:54Z</time>
      </trkpt>
      <trkpt lat="45.50433" lon="6.67762">
        <ele>1996.6</ele>
        <time>2012-03-11T10:07:59Z</time>
      </trkpt>
      <trkpt lat="45.50401" lon="6.6778">
        <ele>2006.9</ele>
        <time>2012-03-11T10:08:03.997Z</time>
      </trkpt>
      <trkpt lat="45.50371" lon="6.67797">
        <ele>2015.9</ele>
        <time>2012-03-11T10:08:09Z</time>
      </trkpt>
      <trkpt lat="45.50342" lon="6.67815">
        <ele>2023.9</ele>
        <time>2012-03-11T10:08:14Z</time>
      </trkpt>
      <trkpt lat="45.50312" lon="6.6783">
        <ele>2030.1</ele>
        <time>2012-03-11T10:08:19Z</time>
      </trkpt>
      <trkpt lat="45.50282" lon="6.67846">
        <ele>2040.4</ele>
        <time>2012-03-11T10:08:24Z</time>
      </trkpt>
      <trkpt lat="45.50252" lon="6.67861">
        <ele>2051.4</ele>
        <time>2012-03-11T10:08:29Z</time>
      </trkpt>
      <trkpt lat="45.50224" lon="6.67877">
        <ele>2061.9</ele>
        <time>2012-03-11T10:08:33.998Z</time>
      </trkpt>
      <trkpt lat="45.50194" lon="6.67891">
        <ele>2071.8</ele>
        <time>2012-03-11T10:08:39Z</time>
      </trkpt>
      <trkpt lat="45.50165" lon="6.67905">
        <ele>2081.7</ele>
        <time>2012-03-11T10:08:43.997Z</time>
      </trkpt>
      <trkpt lat="45.50135" lon="6.6792">
        <ele>2092.2</ele>
        <time>2012-03-11T10:08:48.995Z</time>
      </trkpt>
      <trkpt lat="45.50107" lon="6.67936">
        <ele>2100.9</ele>
        <time>2012-03-11T10:08:54.001Z</time>
      </trkpt>
      <trkpt lat="45.50048" lon="6.6797">
        <ele>2113.6</ele>
        <time>2012-03-11T10:09:04Z</time>
      </trkpt>
      <trkpt lat="45.50017" lon="6.67986">
        <ele>2122.1</ele>
        <time>2012-03-11T10:09:09Z</time>
      </trkpt>
      <trkpt lat="45.49987" lon="6.68002">
        <ele>2132.7</ele>
        <time>2012-03-11T10:09:13.998Z</time>
      </trkpt>
      <trkpt lat="45.49956" lon="6.68017">
        <ele>2142.5</ele>
        <time>2012-03-11T10:09:19Z</time>
      </trkpt>
      <trkpt lat="45.49926" lon="6.68034">
        <ele>2151.8</ele>
        <time>2012-03-11T10:09:24.001Z</time>
      </trkpt>
      <trkpt lat="45.49897" lon="6.68049">
        <ele>2160.6</ele>
        <time>2012-03-11T10:09:28.998Z</time>
      </trkpt>
      <trkpt lat="45.49869" lon="6.68064">
        <ele>2169.2</ele>
        <time>2012-03-11T10:09:34Z</time>
      </trkpt>
      <trkpt lat="45.4984" lon="6.6808">
        <ele>2179.3</ele>
        <time>2012-03-11T10:09:39Z</time>
      </trkpt>
      <trkpt lat="45.49812" lon="6.68095">
        <ele>2188.4</ele>
        <time>2012-03-11T10:09:43.998Z</time>
      </trkpt>
      <trkpt lat="45.49783" lon="6.68111">
        <ele>2195.7</ele>
        <time>2012-03-11T10:09:49Z</time>
      </trkpt>
      <trkpt lat="45.49754" lon="6.68126">
        <ele>2202.5</ele>
        <time>2012-03-11T10:09:54Z</time>
      </trkpt>
      <trkpt lat="45.49723" lon="6.68141">
        <ele>2207.5</ele>
        <time>2012-03-11T10:09:58.998Z</time>
      </trkpt>
      <trkpt lat="45.49694" lon="6.68158">
        <ele>2214.1</ele>
        <time>2012-03-11T10:10:03.998Z</time>
      </trkpt>
      <trkpt lat="45.49666" lon="6.68174">
        <ele>2222.4</ele>
        <time>2012-03-11T10:10:08.998Z</time>
      </trkpt>
      <trkpt lat="45.49636" lon="6.68189">
        <ele>2233.4</ele>
        <time>2012-03-11T10:10:14Z</time>
      </trkpt>
      <trkpt lat="45.49607" lon="6.68204">
        <ele>2245</ele>
        <time>2012-03-11T10:10:19.001Z</time>
      </trkpt>
      <trkpt lat="45.49579" lon="6.68219">
        <ele>2259</ele>
        <time>2012-03-11T10:10:24.001Z</time>
      </trkpt>
      <trkpt lat="45.49551" lon="6.68234">
        <ele>2271.7</ele>
        <time>2012-03-11T10:10:28.998Z</time>
      </trkpt>
      <trkpt lat="45.49523" lon="6.68248">
        <ele>2283.5</ele>
        <time>2012-03-11T10:10:34Z</time>
      </trkpt>
      <trkpt lat="45.49496" lon="6.68262">
        <ele>2294.2</ele>
        <time>2012-03-11T10:10:38.998Z</time>
      </trkpt>
      <trkpt lat="45.49469" lon="6.68275">
        <ele>2305.7</ele>
        <time>2012-03-11T10:10:44Z</time>
      </trkpt>
      <trkpt lat="45.49441" lon="6.6829">
        <ele>2318.3</ele>
        <time>2012-03-11T10:10:48.998Z</time>
      </trkpt>
      <trkpt lat="45.49413" lon="6.68305">
        <ele>2333.5</ele>
        <time>2012-03-11T10:10:54Z</time>
      </trkpt>
      <trkpt lat="45.49385" lon="6.68322">
        <ele>2349.1</ele>
        <time>2012-03-11T10:10:59.001Z</time>
      </trkpt>
      <trkpt lat="45.49358" lon="6.68336">
        <ele>2363.8</ele>
        <time>2012-03-11T10:11:04.001Z</time>
      </trkpt>
      <trkpt lat="45.49331" lon="6.6835">
        <ele>2380.6</ele>
        <time>2012-03-11T10:11:09.001Z</time>
      </trkpt>
      <trkpt lat="45.49305" lon="6.68364">
        <ele>2398.4</ele>
        <time>2012-03-11T10:11:14Z</time>
      </trkpt>
      <trkpt lat="45.49277" lon="6.68379">
        <ele>2416.8</ele>
        <time>2012-03-11T10:11:19.001Z</time>
      </trkpt>
      <trkpt lat="45.49247" lon="6.68394">
        <ele>2435</ele>
        <time>2012-03-11T10:11:23.998Z</time>
      </trkpt>
      <trkpt lat="45.49219" lon="6.68407">
        <ele>2452.4</ele>
        <time>2012-03-11T10:11:28.998Z</time>
      </trkpt>
      <trkpt lat="45.49189" lon="6.6842">
        <ele>2466.5</ele>
        <time>2012-03-11T10:11:34Z</time>
      </trkpt>
      <trkpt lat="45.49154" lon="6.68436">
        <ele>2485.8</ele>
        <time>2012-03-11T10:12:24Z</time>
      </trkpt>
      <trkpt lat="45.49151" lon="6.6843">
        <ele>2484.4</ele>
        <time>2012-03-11T10:12:29.001Z</time>
      </trkpt>
      <trkpt lat="45.49145" lon="6.68421">
        <ele>2483.2</ele>
        <time>2012-03-11T10:12:34.001Z</time>
      </trkpt>
      <trkpt lat="45.49139" lon="6.68414">
        <ele>2481.9</ele>
        <time>2012-03-11T10:12:39Z</time>
      </trkpt>
      <trkpt lat="45.49136" lon="6.68409">
        <ele>2480.9</ele>
        <time>2012-03-11T10:12:44.001Z</time>
      </trkpt>
      <trkpt lat="45.49128" lon="6.68404">
        <ele>2481</ele>
        <time>2012-03-11T10:13:04.001Z</time>
      </trkpt>
      <trkpt lat="45.49124" lon="6.68401">
        <ele>2482.8</ele>
        <time>2012-03-11T10:13:09.001Z</time>
      </trkpt>
      <trkpt lat="45.49122" lon="6.68381">
        <ele>2489</ele>
        <time>2012-03-11T10:14:44.002Z</time>
      </trkpt>
      <trkpt lat="45.49118" lon="6.68354">
        <ele>2487.5</ele>
        <time>2012-03-11T10:14:49.001Z</time>
      </trkpt>
      <trkpt lat="45.49117" lon="6.68324">
        <ele>2484.5</ele>
        <time>2012-03-11T10:14:53.997Z</time>
      </trkpt>
      <trkpt lat="45.49115" lon="6.68286">
        <ele>2480.3</ele>
        <time>2012-03-11T10:14:58.998Z</time>
      </trkpt>
      <trkpt lat="45.49112" lon="6.68263">
        <ele>2474.9</ele>
        <time>2012-03-11T10:15:04.001Z</time>
      </trkpt>
      <trkpt lat="45.49108" lon="6.68273">
        <ele>2474.5</ele>
        <time>2012-03-11T10:15:18.998Z</time>
      </trkpt>
      <trkpt lat="45.49108" lon="6.6826">
        <ele>2474.4</ele>
        <time>2012-03-11T10:15:24.001Z</time>
      </trkpt>
      <trkpt lat="45.49104" lon="6.68234">
        <ele>2473.3</ele>
        <time>2012-03-11T10:15:29Z</time>
      </trkpt>
      <trkpt lat="45.49099" lon="6.68204">
        <ele>2469.8</ele>
        <time>2012-03-11T10:15:34Z</time>
      </trkpt>
      <trkpt lat="45.4909" lon="6.68156">
        <ele>2462.6</ele>
        <time>2012-03-11T10:15:38.998Z</time>
      </trkpt>
      <trkpt lat="45.49081" lon="6.68115">
        <ele>2452</ele>
        <time>2012-03-11T10:15:43.998Z</time>
      </trkpt>
      <trkpt lat="45.49063" lon="6.68085">
        <ele>2438.3</ele>
        <time>2012-03-11T10:15:48.994Z</time>
      </trkpt>
      <trkpt lat="45.49044" lon="6.6805">
        <ele>2423.8</ele>
        <time>2012-03-11T10:15:54Z</time>
      </trkpt>
      <trkpt lat="45.49025" lon="6.68009">
        <ele>2408.3</ele>
        <time>2012-03-11T10:15:58.998Z</time>
      </trkpt>
      <trkpt lat="45.49014" lon="6.67999">
        <ele>2393.3</ele>
        <time>2012-03-11T10:16:04.002Z</time>
      </trkpt>
      <trkpt lat="45.49006" lon="6.67996">
        <ele>2381.4</ele>
        <time>2012-03-11T10:16:08.997Z</time>
      </trkpt>
      <trkpt lat="45.48997" lon="6.68008">
        <ele>2375.3</ele>
        <time>2012-03-11T10:16:14Z</time>
      </trkpt>
      <trkpt lat="45.48977" lon="6.68035">
        <ele>2369</ele>
        <time>2012-03-11T10:16:18.998Z</time>
      </trkpt>
      <trkpt lat="45.4896" lon="6.68063">
        <ele>2361.2</ele>
        <time>2012-03-11T10:16:23.998Z</time>
      </trkpt>
      <trkpt lat="45.48956" lon="6.68071">
        <ele>2352.1</ele>
        <time>2012-03-11T10:16:29Z</time>
      </trkpt>
      <trkpt lat="45.48952" lon="6.68064">
        <ele>2342</ele>
        <time>2012-03-11T10:16:33.997Z</time>
      </trkpt>
      <trkpt lat="45.48941" lon="6.68061">
        <ele>2332.4</ele>
        <time>2012-03-11T10:16:39.001Z</time>
      </trkpt>
      <trkpt lat="45.48923" lon="6.68066">
        <ele>2322.9</ele>
        <time>2012-03-11T10:16:44.001Z</time>
      </trkpt>
      <trkpt lat="45.48901" lon="6.68085">
        <ele>2311.6</ele>
        <time>2012-03-11T10:16:48.995Z</time>
      </trkpt>
      <trkpt lat="45.48884" lon="6.68114">
        <ele>2298.9</ele>
        <time>2012-03-11T10:16:54.001Z</time>
      </trkpt>
      <trkpt lat="45.48859" lon="6.68143">
        <ele>2285.3</ele>
        <time>2012-03-11T10:16:58.995Z</time>
      </trkpt>
      <trkpt lat="45.48821" lon="6.68165">
        <ele>2270.8</ele>
        <time>2012-03-11T10:17:04Z</time>
      </trkpt>
      <trkpt lat="45.48774" lon="6.68181">
        <ele>2256.7</ele>
        <time>2012-03-11T10:17:09Z</time>
      </trkpt>
      <trkpt lat="45.48731" lon="6.68211">
        <ele>2243.6</ele>
        <time>2012-03-11T10:17:13.998Z</time>
      </trkpt>
      <trkpt lat="45.48689" lon="6.68236">
        <ele>2230.5</ele>
        <time>2012-03-11T10:17:19.001Z</time>
      </trkpt>
      <trkpt lat="45.48651" lon="6.68247">
        <ele>2215.6</ele>
        <time>2012-03-11T10:17:24.001Z</time>
      </trkpt>
      <trkpt lat="45.48612" lon="6.68239">
        <ele>2201.8</ele>
        <time>2012-03-11T10:17:28.998Z</time>
      </trkpt>
      <trkpt lat="45.48573" lon="6.68229">
        <ele>2189.1</ele>
        <time>2012-03-11T10:17:34Z</time>
      </trkpt>
      <trkpt lat="45.48532" lon="6.68231">
        <ele>2176.4</ele>
        <time>2012-03-11T10:17:38.998Z</time>
      </trkpt>
      <trkpt lat="45.48482" lon="6.68242">
        <ele>2162.9</ele>
        <time>2012-03-11T10:17:43.998Z</time>
      </trkpt>
      <trkpt lat="45.48441" lon="6.68262">
        <ele>2147.5</ele>
        <time>2012-03-11T10:17:49Z</time>
      </trkpt>
      <trkpt lat="45.48413" lon="6.68284">
        <ele>2130.3</ele>
        <time>2012-03-11T10:17:53.997Z</time>
      </trkpt>
      <trkpt lat="45.48396" lon="6.68302">
        <ele>2113.7</ele>
        <time>2012-03-11T10:17:59.002Z</time>
      </trkpt>
      <trkpt lat="45.48393" lon="6.68312">
        <ele>2103.7</ele>
        <time>2012-03-11T10:18:04Z</time>
      </trkpt>
      <trkpt lat="45.48424" lon="6.68319">
        <ele>2118.6</ele>
        <time>2012-03-11T10:19:09Z</time>
      </trkpt>
      <trkpt lat="45.48407" lon="6.6833">
        <ele>2121.2</ele>
        <time>2012-03-11T10:19:14.002Z</time>
      </trkpt>
      <trkpt lat="45.48376" lon="6.68354">
        <ele>2123.2</ele>
        <time>2012-03-11T10:19:19Z</time>
      </trkpt>
      <trkpt lat="45.4834" lon="6.68397">
        <ele>2123.6</ele>
        <time>2012-03-11T10:19:23.998Z</time>
      </trkpt>
      <trkpt lat="45.48311" lon="6.68452">
        <ele>2122.3</ele>
        <time>2012-03-11T10:19:29Z</time>
      </trkpt>
      <trkpt lat="45.48288" lon="6.6852">
        <ele>2119.4</ele>
        <time>2012-03-11T10:19:34Z</time>
      </trkpt>
      <trkpt lat="45.48254" lon="6.68586">
        <ele>2113.3</ele>
        <time>2012-03-11T10:19:39.001Z</time>
      </trkpt>
      <trkpt lat="45.48216" lon="6.68656">
        <ele>2101.8</ele>
        <time>2012-03-11T10:19:44Z</time>
      </trkpt>
      <trkpt lat="45.48173" lon="6.68725">
        <ele>2086.4</ele>
        <time>2012-03-11T10:19:48.998Z</time>
      </trkpt>
      <trkpt lat="45.48126" lon="6.688">
        <ele>2065</ele>
        <time>2012-03-11T10:19:53.998Z</time>
      </trkpt>
      <trkpt lat="45.48094" lon="6.68861">
        <ele>2041.1</ele>
        <time>2012-03-11T10:19:58.998Z</time>
      </trkpt>
      <trkpt lat="45.48092" lon="6.68919">
        <ele>2020.2</ele>
        <time>2012-03-11T10:20:04.004Z</time>
      </trkpt>
      <trkpt lat="45.4809" lon="6.68963">
        <ele>2001.9</ele>
        <time>2012-03-11T10:20:09.001Z</time>
      </trkpt>
      <trkpt lat="45.4809" lon="6.69009">
        <ele>1984.6</ele>
        <time>2012-03-11T10:20:14Z</time>
      </trkpt>
      <trkpt lat="45.48105" lon="6.69053">
        <ele>1968.8</ele>
        <time>2012-03-11T10:20:19Z</time>
      </trkpt>
      <trkpt lat="45.48142" lon="6.69081">
        <ele>1953.9</ele>
        <time>2012-03-11T10:20:24.002Z</time>
      </trkpt>
      <trkpt lat="45.48182" lon="6.69094">
        <ele>1943</ele>
        <time>2012-03-11T10:20:29.001Z</time>
      </trkpt>
      <trkpt lat="45.48219" lon="6.69112">
        <ele>1935.7</ele>
        <time>2012-03-11T10:20:34.001Z</time>
      </trkpt>
      <trkpt lat="45.48257" lon="6.69135">
        <ele>1930.9</ele>
        <time>2012-03-11T10:20:39.001Z</time>
      </trkpt>
      <trkpt lat="45.48285" lon="6.6915">
        <ele>1924.9</ele>
        <time>2012-03-11T10:20:44.002Z</time>
      </trkpt>
      <trkpt lat="45.48277" lon="6.69145">
        <ele>1914.1</ele>
        <time>2012-03-11T10:20:49.004Z</time>
      </trkpt>
      <trkpt lat="45.48214" lon="6.69135">
        <ele>1899.5</ele>
        <time>2012-03-11T10:20:54.001Z</time>
      </trkpt>
      <trkpt lat="45.48137" lon="6.69124">
        <ele>1882.2</ele>
        <time>2012-03-11T10:20:59.001Z</time>
      </trkpt>
      <trkpt lat="45.48063" lon="6.6911">
        <ele>1863.8</ele>
        <time>2012-03-11T10:21:03.998Z</time>
      </trkpt>
      <trkpt lat="45.47992" lon="6.6909">
        <ele>1844.4</ele>
        <time>2012-03-11T10:21:09Z</time>
      </trkpt>
      <trkpt lat="45.47921" lon="6.69055">
        <ele>1827.1</ele>
        <time>2012-03-11T10:21:14.001Z</time>
      </trkpt>
      <trkpt lat="45.47849" lon="6.69018">
        <ele>1812</ele>
        <time>2012-03-11T10:21:18.998Z</time>
      </trkpt>
      <trkpt lat="45.47783" lon="6.68983">
        <ele>1798.6</ele>
        <time>2012-03-11T10:21:24.001Z</time>
      </trkpt>
      <trkpt lat="45.47723" lon="6.68962">
        <ele>1786.3</ele>
        <time>2012-03-11T10:21:29.001Z</time>
      </trkpt>
      <trkpt lat="45.47671" lon="6.68955">
        <ele>1775.4</ele>
        <time>2012-03-11T10:21:34.001Z</time>
      </trkpt>
      <trkpt lat="45.47631" lon="6.68952">
        <ele>1767.5</ele>
        <time>2012-03-11T10:21:38.998Z</time>
      </trkpt>
      <trkpt lat="45.47622" lon="6.6895">
        <ele>1763.5</ele>
        <time>2012-03-11T10:21:44Z</time>
      </trkpt>
      <trkpt lat="45.47629" lon="6.68949">
        <ele>1757.5</ele>
        <time>2012-03-11T10:21:54.001Z</time>
      </trkpt>
      <trkpt lat="45.47633" lon="6.68956">
        <ele>1768.2</ele>
        <time>2012-03-11T10:22:09Z</time>
      </trkpt>
      <trkpt lat="45.47647" lon="6.68955">
        <ele>1790.1</ele>
        <time>2012-03-11T10:22:53.998Z</time>
      </trkpt>
      <trkpt lat="45.47646" lon="6.68951">
        <ele>1803.1</ele>
        <time>2012-03-11T10:24:34Z</time>
      </trkpt>
      <trkpt lat="45.47653" lon="6.68948">
        <ele>1802</ele>
        <time>2012-03-11T10:24:48.998Z</time>
      </trkpt>
      <trkpt lat="45.47659" lon="6.68945">
        <ele>1801.8</ele>
        <time>2012-03-11T10:24:54.001Z</time>
      </trkpt>
      <trkpt lat="45.47675" lon="6.68933">
        <ele>1801.1</ele>
        <time>2012-03-11T10:24:58.997Z</time>
      </trkpt>
      <trkpt lat="45.47693" lon="6.68919">
        <ele>1800.5</ele>
        <time>2012-03-11T10:25:04.001Z</time>
      </trkpt>
      <trkpt lat="45.47711" lon="6.68904">
        <ele>1802.8</ele>
        <time>2012-03-11T10:25:09.001Z</time>
      </trkpt>
      <trkpt lat="45.47727" lon="6.6889">
        <ele>1808.9</ele>
        <time>2012-03-11T10:25:13.998Z</time>
      </trkpt>
      <trkpt lat="45.47744" lon="6.68872">
        <ele>1819.4</ele>
        <time>2012-03-11T10:25:19.001Z</time>
      </trkpt>
      <trkpt lat="45.47758" lon="6.68856">
        <ele>1831.5</ele>
        <time>2012-03-11T10:25:23.998Z</time>
      </trkpt>
      <trkpt lat="45.47774" lon="6.68838">
        <ele>1844.8</ele>
        <time>2012-03-11T10:25:29.002Z</time>
      </trkpt>
      <trkpt lat="45.47789" lon="6.68821">
        <ele>1858.6</ele>
        <time>2012-03-11T10:25:34.001Z</time>
      </trkpt>
      <trkpt lat="45.47804" lon="6.68805">
        <ele>1874.2</ele>
        <time>2012-03-11T10:25:38.998Z</time>
      </trkpt>
      <trkpt lat="45.47821" lon="6.68787">
        <ele>1889.8</ele>
        <time>2012-03-11T10:25:44Z</time>
      </trkpt>
      <trkpt lat="45.47838" lon="6.68768">
        <ele>1904.8</ele>
        <time>2012-03-11T10:25:48.997Z</time>
      </trkpt>
      <trkpt lat="45.47856" lon="6.68748">
        <ele>1917.8</ele>
        <time>2012-03-11T10:25:54.002Z</time>
      </trkpt>
      <trkpt lat="45.47872" lon="6.68731">
        <ele>1929.3</ele>
        <time>2012-03-11T10:25:59.001Z</time>
      </trkpt>
      <trkpt lat="45.47887" lon="6.68714">
        <ele>1940.6</ele>
        <time>2012-03-11T10:26:04Z</time>
      </trkpt>
      <trkpt lat="45.47902" lon="6.68697">
        <ele>1951.9</ele>
        <time>2012-03-11T10:26:08.998Z</time>
      </trkpt>
      <trkpt lat="45.47919" lon="6.68678">
        <ele>1961.3</ele>
        <time>2012-03-11T10:26:13.998Z</time>
      </trkpt>
      <trkpt lat="45.47936" lon="6.6866">
        <ele>1968.8</ele>
        <time>2012-03-11T10:26:19.002Z</time>
      </trkpt>
      <trkpt lat="45.47952" lon="6.68642">
        <ele>1975.3</ele>
        <time>2012-03-11T10:26:24.001Z</time>
      </trkpt>
      <trkpt lat="45.47967" lon="6.68625">
        <ele>1983.3</ele>
        <time>2012-03-11T10:26:28.998Z</time>
      </trkpt>
      <trkpt lat="45.47982" lon="6.68609">
        <ele>1991.2</ele>
        <time>2012-03-11T10:26:34.004Z</time>
      </trkpt>
      <trkpt lat="45.47999" lon="6.68593">
        <ele>2000.2</ele>
        <time>2012-03-11T10:26:39.001Z</time>
      </trkpt>
      <trkpt lat="45.48017" lon="6.68574">
        <ele>2008.5</ele>
        <time>2012-03-11T10:26:44.002Z</time>
      </trkpt>
      <trkpt lat="45.48034" lon="6.68556">
        <ele>2016.1</ele>
        <time>2012-03-11T10:26:48.995Z</time>
      </trkpt>
      <trkpt lat="45.48051" lon="6.68537">
        <ele>2024.7</ele>
        <time>2012-03-11T10:26:53.998Z</time>
      </trkpt>
      <trkpt lat="45.48068" lon="6.68519">
        <ele>2033.2</ele>
        <time>2012-03-11T10:26:59.001Z</time>
      </trkpt>
      <trkpt lat="45.48086" lon="6.68498">
        <ele>2040.1</ele>
        <time>2012-03-11T10:27:04Z</time>
      </trkpt>
      <trkpt lat="45.48104" lon="6.68478">
        <ele>2046</ele>
        <time>2012-03-11T10:27:09.001Z</time>
      </trkpt>
      <trkpt lat="45.48121" lon="6.68458">
        <ele>2052.8</ele>
        <time>2012-03-11T10:27:14.001Z</time>
      </trkpt>
      <trkpt lat="45.48138" lon="6.68436">
        <ele>2059</ele>
        <time>2012-03-11T10:27:19.001Z</time>
      </trkpt>
      <trkpt lat="45.48155" lon="6.68414">
        <ele>2064.2</ele>
        <time>2012-03-11T10:27:24Z</time>
      </trkpt>
      <trkpt lat="45.48172" lon="6.68394">
        <ele>2070.1</ele>
        <time>2012-03-11T10:27:29.002Z</time>
      </trkpt>
      <trkpt lat="45.48189" lon="6.68374">
        <ele>2076.6</ele>
        <time>2012-03-11T10:27:33.998Z</time>
      </trkpt>
      <trkpt lat="45.48206" lon="6.68356">
        <ele>2083.9</ele>
        <time>2012-03-11T10:27:39Z</time>
      </trkpt>
      <trkpt lat="45.48223" lon="6.68337">
        <ele>2091.8</ele>
        <time>2012-03-11T10:27:43.998Z</time>
      </trkpt>
      <trkpt lat="45.4824" lon="6.68318">
        <ele>2098.7</ele>
        <time>2012-03-11T10:27:49.002Z</time>
      </trkpt>
      <trkpt lat="45.48257" lon="6.68298">
        <ele>2105.8</ele>
        <time>2012-03-11T10:27:54Z</time>
      </trkpt>
      <trkpt lat="45.48275" lon="6.68278">
        <ele>2113.7</ele>
        <time>2012-03-11T10:27:58.998Z</time>
      </trkpt>
      <trkpt lat="45.48293" lon="6.68258">
        <ele>2122.2</ele>
        <time>2012-03-11T10:28:03.997Z</time>
      </trkpt>
      <trkpt lat="45.48312" lon="6.68239">
        <ele>2129.5</ele>
        <time>2012-03-11T10:28:09.001Z</time>
      </trkpt>
      <trkpt lat="45.48331" lon="6.6822">
        <ele>2136.6</ele>
        <time>2012-03-11T10:28:13.998Z</time>
      </trkpt>
      <trkpt lat="45.48347" lon="6.68201">
        <ele>2143.6</ele>
        <time>2012-03-11T10:28:18.998Z</time>
      </trkpt>
      <trkpt lat="45.48365" lon="6.68183">
        <ele>2150.6</ele>
        <time>2012-03-11T10:28:24.001Z</time>
      </trkpt>
      <trkpt lat="45.48382" lon="6.68164">
        <ele>2156.9</ele>
        <time>2012-03-11T10:28:29.001Z</time>
      </trkpt>
      <trkpt lat="45.48399" lon="6.68146">
        <ele>2164</ele>
        <time>2012-03-11T10:28:33.998Z</time>
      </trkpt>
      <trkpt lat="45.48417" lon="6.68128">
        <ele>2172.6</ele>
        <time>2012-03-11T10:28:38.998Z</time>
      </trkpt>
      <trkpt lat="45.48435" lon="6.68108">
        <ele>2181.3</ele>
        <time>2012-03-11T10:28:44Z</time>
      </trkpt>
      <trkpt lat="45.4845" lon="6.68091">
        <ele>2189.7</ele>
        <time>2012-03-11T10:28:49.001Z</time>
      </trkpt>
      <trkpt lat="45.48466" lon="6.68073">
        <ele>2199.6</ele>
        <time>2012-03-11T10:28:54Z</time>
      </trkpt>
      <trkpt lat="45.48481" lon="6.68056">
        <ele>2211.2</ele>
        <time>2012-03-11T10:28:59.001Z</time>
      </trkpt>
      <trkpt lat="45.48496" lon="6.68039">
        <ele>2224.8</ele>
        <time>2012-03-11T10:29:04.001Z</time>
      </trkpt>
      <trkpt lat="45.48512" lon="6.68021">
        <ele>2237.9</ele>
        <time>2012-03-11T10:29:08.998Z</time>
      </trkpt>
      <trkpt lat="45.48527" lon="6.68003">
        <ele>2249.3</ele>
        <time>2012-03-11T10:29:13.998Z</time>
      </trkpt>
      <trkpt lat="45.48542" lon="6.67985">
        <ele>2260.2</ele>
        <time>2012-03-11T10:29:18.998Z</time>
      </trkpt>
      <trkpt lat="45.48558" lon="6.67968">
        <ele>2270.7</ele>
        <time>2012-03-11T10:29:24Z</time>
      </trkpt>
      <trkpt lat="45.48574" lon="6.67953">
        <ele>2282.3</ele>
        <time>2012-03-11T10:29:28.998Z</time>
      </trkpt>
      <trkpt lat="45.48591" lon="6.67933">
        <ele>2293</ele>
        <time>2012-03-11T10:29:34.001Z</time>
      </trkpt>
      <trkpt lat="45.48607" lon="6.67912">
        <ele>2301.9</ele>
        <time>2012-03-11T10:29:39.001Z</time>
      </trkpt>
      <trkpt lat="45.48624" lon="6.67894">
        <ele>2311.2</ele>
        <time>2012-03-11T10:29:44Z</time>
      </trkpt>
      <trkpt lat="45.48641" lon="6.67875">
        <ele>2322</ele>
        <time>2012-03-11T10:29:49.001Z</time>
      </trkpt>
      <trkpt lat="45.48658" lon="6.67857">
        <ele>2333.3</ele>
        <time>2012-03-11T10:29:54Z</time>
      </trkpt>
      <trkpt lat="45.48676" lon="6.67838">
        <ele>2345</ele>
        <time>2012-03-11T10:29:59.001Z</time>
      </trkpt>
      <trkpt lat="45.48693" lon="6.6782">
        <ele>2357.5</ele>
        <time>2012-03-11T10:30:04Z</time>
      </trkpt>
      <trkpt lat="45.48708" lon="6.67804">
        <ele>2369.2</ele>
        <time>2012-03-11T10:30:08.998Z</time>
      </trkpt>
      <trkpt lat="45.48723" lon="6.67787">
        <ele>2379.7</ele>
        <time>2012-03-11T10:30:13.998Z</time>
      </trkpt>
      <trkpt lat="45.48739" lon="6.67769">
        <ele>2391.7</ele>
        <time>2012-03-11T10:30:19Z</time>
      </trkpt>
      <trkpt lat="45.48754" lon="6.67753">
        <ele>2405</ele>
        <time>2012-03-11T10:30:24Z</time>
      </trkpt>
      <trkpt lat="45.48768" lon="6.67739">
        <ele>2418.2</ele>
        <time>2012-03-11T10:30:29Z</time>
      </trkpt>
      <trkpt lat="45.48784" lon="6.67722">
        <ele>2430.7</ele>
        <time>2012-03-11T10:30:33.997Z</time>
      </trkpt>
      <trkpt lat="45.48801" lon="6.67705">
        <ele>2443.6</ele>
        <time>2012-03-11T10:30:39.001Z</time>
      </trkpt>
      <trkpt lat="45.48817" lon="6.67688">
        <ele>2456.7</ele>
        <time>2012-03-11T10:30:44.002Z</time>
      </trkpt>
      <trkpt lat="45.48835" lon="6.67669">
        <ele>2468.7</ele>
        <time>2012-03-11T10:30:49.001Z</time>
      </trkpt>
      <trkpt lat="45.48853" lon="6.67644">
        <ele>2480</ele>
        <time>2012-03-11T10:30:53.998Z</time>
      </trkpt>
      <trkpt lat="45.48862" lon="6.67624">
        <ele>2489.1</ele>
        <time>2012-03-11T10:30:59.002Z</time>
      </trkpt>
      <trkpt lat="45.48862" lon="6.67605">
        <ele>2493.1</ele>
        <time>2012-03-11T10:31:04.002Z</time>
      </trkpt>
      <trkpt lat="45.4886" lon="6.67592">
        <ele>2491.3</ele>
        <time>2012-03-11T10:31:09.001Z</time>
      </trkpt>
      <trkpt lat="45.48858" lon="6.67584">
        <ele>2486</ele>
        <time>2012-03-11T10:31:14.004Z</time>
      </trkpt>
      <trkpt lat="45.48858" lon="6.67579">
        <ele>2480.6</ele>
        <time>2012-03-11T10:31:19Z</time>
      </trkpt>
      <trkpt lat="45.48856" lon="6.67576">
        <ele>2472.6</ele>
        <time>2012-03-11T10:31:29Z</time>
      </trkpt>
      <trkpt lat="45.48855" lon="6.6757">
        <ele>2469.3</ele>
        <time>2012-03-11T10:31:33.998Z</time>
      </trkpt>
      <trkpt lat="45.48853" lon="6.67564">
        <ele>2466.3</ele>
        <time>2012-03-11T10:31:38.998Z</time>
      </trkpt>
      <trkpt lat="45.4885" lon="6.67555">
        <ele>2463.2</ele>
        <time>2012-03-11T10:31:44Z</time>
      </trkpt>
      <trkpt lat="45.48846" lon="6.67544">
        <ele>2460.3</ele>
        <time>2012-03-11T10:31:48.998Z</time>
      </trkpt>
      <trkpt lat="45.48843" lon="6.67535">
        <ele>2457.6</ele>
        <time>2012-03-11T10:31:53.998Z</time>
      </trkpt>
      <trkpt lat="45.4884" lon="6.67524">
        <ele>2455.3</ele>
        <time>2012-03-11T10:31:58.998Z</time>
      </trkpt>
      <trkpt lat="45.48832" lon="6.67507">
        <ele>2453.8</ele>
        <time>2012-03-11T10:32:03.998Z</time>
      </trkpt>
      <trkpt lat="45.48833" lon="6.67495">
        <ele>2456.8</ele>
        <time>2012-03-11T10:32:34Z</time>
      </trkpt>
      <trkpt lat="45.48833" lon="6.67488">
        <ele>2456.7</ele>
        <time>2012-03-11T10:32:38.997Z</time>
      </trkpt>
      <trkpt lat="45.48831" lon="6.6748">
        <ele>2456.4</ele>
        <time>2012-03-11T10:32:44Z</time>
      </trkpt>
      <trkpt lat="45.4883" lon="6.67473">
        <ele>2457.9</ele>
        <time>2012-03-11T10:32:49Z</time>
      </trkpt>
      <trkpt lat="45.48826" lon="6.67457">
        <ele>2461.7</ele>
        <time>2012-03-11T10:33:19.001Z</time>
      </trkpt>
      <trkpt lat="45.48823" lon="6.67449">
        <ele>2462</ele>
        <time>2012-03-11T10:33:24Z</time>
      </trkpt>
      <trkpt lat="45.48819" lon="6.67436">
        <ele>2462</ele>
        <time>2012-03-11T10:33:29.001Z</time>
      </trkpt>
      <trkpt lat="45.48811" lon="6.67411">
        <ele>2461.3</ele>
        <time>2012-03-11T10:33:33.998Z</time>
      </trkpt>
      <trkpt lat="45.48804" lon="6.67388">
        <ele>2460.2</ele>
        <time>2012-03-11T10:33:38.997Z</time>
      </trkpt>
      <trkpt lat="45.48789" lon="6.67357">
        <ele>2457.6</ele>
        <time>2012-03-11T10:33:43.998Z</time>
      </trkpt>
      <trkpt lat="45.48767" lon="6.67326">
        <ele>2453.8</ele>
        <time>2012-03-11T10:33:49.002Z</time>
      </trkpt>
      <trkpt lat="45.48734" lon="6.67297">
        <ele>2450.1</ele>
        <time>2012-03-11T10:33:53.995Z</time>
      </trkpt>
      <trkpt lat="45.48696" lon="6.67299">
        <ele>2444.7</ele>
        <time>2012-03-11T10:33:58.998Z</time>
      </trkpt>
      <trkpt lat="45.48662" lon="6.6732">
        <ele>2438</ele>
        <time>2012-03-11T10:34:04.001Z</time>
      </trkpt>
      <trkpt lat="45.48632" lon="6.6733">
        <ele>2432.1</ele>
        <time>2012-03-11T10:34:09.001Z</time>
      </trkpt>
      <trkpt lat="45.486" lon="6.67322">
        <ele>2426.7</ele>
        <time>2012-03-11T10:34:14.001Z</time>
      </trkpt>
      <trkpt lat="45.48571" lon="6.67308">
        <ele>2421.3</ele>
        <time>2012-03-11T10:34:19.002Z</time>
      </trkpt>
      <trkpt lat="45.48536" lon="6.673">
        <ele>2416.5</ele>
        <time>2012-03-11T10:34:23.998Z</time>
      </trkpt>
      <trkpt lat="45.48509" lon="6.67306">
        <ele>2411</ele>
        <time>2012-03-11T10:34:29Z</time>
      </trkpt>
      <trkpt lat="45.48492" lon="6.67334">
        <ele>2405.6</ele>
        <time>2012-03-11T10:34:34Z</time>
      </trkpt>
      <trkpt lat="45.48474" lon="6.67374">
        <ele>2399.7</ele>
        <time>2012-03-11T10:34:39Z</time>
      </trkpt>
      <trkpt lat="45.48453" lon="6.67426">
        <ele>2392.9</ele>
        <time>2012-03-11T10:34:43.998Z</time>
      </trkpt>
      <trkpt lat="45.48416" lon="6.67468">
        <ele>2383.6</ele>
        <time>2012-03-11T10:34:49.001Z</time>
      </trkpt>
      <trkpt lat="45.48357" lon="6.67471">
        <ele>2368.7</ele>
        <time>2012-03-11T10:34:54.001Z</time>
      </trkpt>
      <trkpt lat="45.48296" lon="6.67486">
        <ele>2356</ele>
        <time>2012-03-11T10:34:59.002Z</time>
      </trkpt>
      <trkpt lat="45.48243" lon="6.67513">
        <ele>2344.9</ele>
        <time>2012-03-11T10:35:04.002Z</time>
      </trkpt>
      <trkpt lat="45.48209" lon="6.67551">
        <ele>2335.1</ele>
        <time>2012-03-11T10:35:09Z</time>
      </trkpt>
      <trkpt lat="45.482" lon="6.67586">
        <ele>2326.5</ele>
        <time>2012-03-11T10:35:14.002Z</time>
      </trkpt>
      <trkpt lat="45.48191" lon="6.67612">
        <ele>2321.2</ele>
        <time>2012-03-11T10:35:19Z</time>
      </trkpt>
      <trkpt lat="45.48187" lon="6.6764">
        <ele>2318</ele>
        <time>2012-03-11T10:35:23.998Z</time>
      </trkpt>
      <trkpt lat="45.48187" lon="6.67655">
        <ele>2316.3</ele>
        <time>2012-03-11T10:35:39.001Z</time>
      </trkpt>
      <trkpt lat="45.48186" lon="6.67673">
        <ele>2315.5</ele>
        <time>2012-03-11T10:35:44.001Z</time>
      </trkpt>
      <trkpt lat="45.48188" lon="6.67677">
        <ele>2313.4</ele>
        <time>2012-03-11T10:35:49.001Z</time>
      </trkpt>
      <trkpt lat="45.48194" lon="6.67685">
        <ele>2310.1</ele>
        <time>2012-03-11T10:35:59.001Z</time>
      </trkpt>
      <trkpt lat="45.48202" lon="6.67688">
        <ele>2308.4</ele>
        <time>2012-03-11T10:36:04.001Z</time>
      </trkpt>
      <trkpt lat="45.48213" lon="6.67688">
        <ele>2305.3</ele>
        <time>2012-03-11T10:36:09.001Z</time>
      </trkpt>
      <trkpt lat="45.48226" lon="6.6769">
        <ele>2297.3</ele>
        <time>2012-03-11T10:36:18.998Z</time>
      </trkpt>
      <trkpt lat="45.48235" lon="6.67685">
        <ele>2293.3</ele>
        <time>2012-03-11T10:36:23.998Z</time>
      </trkpt>
      <trkpt lat="45.4825" lon="6.67676">
        <ele>2288.3</ele>
        <time>2012-03-11T10:36:29Z</time>
      </trkpt>
      <trkpt lat="45.48259" lon="6.67676">
        <ele>2284.8</ele>
        <time>2012-03-11T10:36:34.001Z</time>
      </trkpt>
      <trkpt lat="45.48259" lon="6.67685">
        <ele>2268.5</ele>
        <time>2012-03-11T10:37:08.998Z</time>
      </trkpt>
      <trkpt lat="45.48258" lon="6.67699">
        <ele>2268</ele>
        <time>2012-03-11T10:37:14Z</time>
      </trkpt>
      <trkpt lat="45.48253" lon="6.67721">
        <ele>2265.8</ele>
        <time>2012-03-11T10:37:18.998Z</time>
      </trkpt>
      <trkpt lat="45.48253" lon="6.67741">
        <ele>2262.4</ele>
        <time>2012-03-11T10:37:24.001Z</time>
      </trkpt>
      <trkpt lat="45.48251" lon="6.6775">
        <ele>2259.9</ele>
        <time>2012-03-11T10:37:28.998Z</time>
      </trkpt>
      <trkpt lat="45.48258" lon="6.67759">
        <ele>2257.1</ele>
        <time>2012-03-11T10:37:34Z</time>
      </trkpt>
      <trkpt lat="45.48267" lon="6.67783">
        <ele>2252.6</ele>
        <time>2012-03-11T10:37:38.998Z</time>
      </trkpt>
      <trkpt lat="45.48278" lon="6.67814">
        <ele>2245.9</ele>
        <time>2012-03-11T10:37:44Z</time>
      </trkpt>
      <trkpt lat="45.48275" lon="6.6783">
        <ele>2241.4</ele>
        <time>2012-03-11T10:37:49Z</time>
      </trkpt>
      <trkpt lat="45.48269" lon="6.67845">
        <ele>2237.1</ele>
        <time>2012-03-11T10:37:53.998Z</time>
      </trkpt>
      <trkpt lat="45.48256" lon="6.67863">
        <ele>2231.7</ele>
        <time>2012-03-11T10:37:59Z</time>
      </trkpt>
      <trkpt lat="45.48245" lon="6.67867">
        <ele>2225.4</ele>
        <time>2012-03-11T10:38:04Z</time>
      </trkpt>
      <trkpt lat="45.48231" lon="6.67881">
        <ele>2218.4</ele>
        <time>2012-03-11T10:38:09.001Z</time>
      </trkpt>
      <trkpt lat="45.48211" lon="6.67903">
        <ele>2210.5</ele>
        <time>2012-03-11T10:38:14.001Z</time>
      </trkpt>
      <trkpt lat="45.48198" lon="6.67942">
        <ele>2200.2</ele>
        <time>2012-03-11T10:38:19.002Z</time>
      </trkpt>
      <trkpt lat="45.48194" lon="6.67986">
        <ele>2189.6</ele>
        <time>2012-03-11T10:38:24Z</time>
      </trkpt>
      <trkpt lat="45.48186" lon="6.68006">
        <ele>2181.6</ele>
        <time>2012-03-11T10:38:28.998Z</time>
      </trkpt>
      <trkpt lat="45.48203" lon="6.67993">
        <ele>2186.8</ele>
        <time>2012-03-11T10:39:19.002Z</time>
      </trkpt>
      <trkpt lat="45.48192" lon="6.67994">
        <ele>2188.4</ele>
        <time>2012-03-11T10:39:23.998Z</time>
      </trkpt>
      <trkpt lat="45.48177" lon="6.67992">
        <ele>2188.4</ele>
        <time>2012-03-11T10:39:28.998Z</time>
      </trkpt>
      <trkpt lat="45.48158" lon="6.67995">
        <ele>2187.2</ele>
        <time>2012-03-11T10:39:34.001Z</time>
      </trkpt>
      <trkpt lat="45.4814" lon="6.68019">
        <ele>2181.5</ele>
        <time>2012-03-11T10:39:39.001Z</time>
      </trkpt>
      <trkpt lat="45.4812" lon="6.68062">
        <ele>2172.6</ele>
        <time>2012-03-11T10:39:44.001Z</time>
      </trkpt>
      <trkpt lat="45.48107" lon="6.68115">
        <ele>2163.4</ele>
        <time>2012-03-11T10:39:49.001Z</time>
      </trkpt>
      <trkpt lat="45.48099" lon="6.68155">
        <ele>2155.4</ele>
        <time>2012-03-11T10:39:54Z</time>
      </trkpt>
      <trkpt lat="45.48087" lon="6.682">
        <ele>2147.1</ele>
        <time>2012-03-11T10:39:59.001Z</time>
      </trkpt>
      <trkpt lat="45.48069" lon="6.68242">
        <ele>2140.1</ele>
        <time>2012-03-11T10:40:04.001Z</time>
      </trkpt>
      <trkpt lat="45.48052" lon="6.68272">
        <ele>2134.2</ele>
        <time>2012-03-11T10:40:09.001Z</time>
      </trkpt>
      <trkpt lat="45.48036" lon="6.68286">
        <ele>2129.1</ele>
        <time>2012-03-11T10:40:13.998Z</time>
      </trkpt>
      <trkpt lat="45.48019" lon="6.68306">
        <ele>2124.1</ele>
        <time>2012-03-11T10:40:19Z</time>
      </trkpt>
      <trkpt lat="45.48007" lon="6.68347">
        <ele>2118.4</ele>
        <time>2012-03-11T10:40:24.001Z</time>
      </trkpt>
      <trkpt lat="45.4801" lon="6.68397">
        <ele>2110.6</ele>
        <time>2012-03-11T10:40:29.002Z</time>
      </trkpt>
      <trkpt lat="45.4803" lon="6.68414">
        <ele>2102.8</ele>
        <time>2012-03-11T10:40:34.001Z</time>
      </trkpt>
      <trkpt lat="45.48046" lon="6.6842">
        <ele>2096.5</ele>
        <time>2012-03-11T10:40:39Z</time>
      </trkpt>
      <trkpt lat="45.48062" lon="6.68445">
        <ele>2090.3</ele>
        <time>2012-03-11T10:40:44Z</time>
      </trkpt>
      <trkpt lat="45.48075" lon="6.68487">
        <ele>2082.5</ele>
        <time>2012-03-11T10:40:49.001Z</time>
      </trkpt>
      <trkpt lat="45.48091" lon="6.68553">
        <ele>2071.6</ele>
        <time>2012-03-11T10:40:53.998Z</time>
      </trkpt>
      <trkpt lat="45.48108" lon="6.68632">
        <ele>2057.4</ele>
        <time>2012-03-11T10:40:58.998Z</time>
      </trkpt>
      <trkpt lat="45.48124" lon="6.68707">
        <ele>2040.1</ele>
        <time>2012-03-11T10:41:03.994Z</time>
      </trkpt>
      <trkpt lat="45.48137" lon="6.68775">
        <ele>2023.6</ele>
        <time>2012-03-11T10:41:08.997Z</time>
      </trkpt>
      <trkpt lat="45.4814" lon="6.68833">
        <ele>2006.3</ele>
        <time>2012-03-11T10:41:14.001Z</time>
      </trkpt>
      <trkpt lat="45.48138" lon="6.6888">
        <ele>1992.1</ele>
        <time>2012-03-11T10:41:18.998Z</time>
      </trkpt>
      <trkpt lat="45.48132" lon="6.68937">
        <ele>1980.8</ele>
        <time>2012-03-11T10:41:24.001Z</time>
      </trkpt>
      <trkpt lat="45.48127" lon="6.68987">
        <ele>1971</ele>
        <time>2012-03-11T10:41:29Z</time>
      </trkpt>
      <trkpt lat="45.48132" lon="6.69034">
        <ele>1961.1</ele>
        <time>2012-03-11T10:41:34.004Z</time>
      </trkpt>
      <trkpt lat="45.48156" lon="6.69071">
        <ele>1951.3</ele>
        <time>2012-03-11T10:41:38.998Z</time>
      </trkpt>
      <trkpt lat="45.482" lon="6.69087">
        <ele>1941.3</ele>
        <time>2012-03-11T10:41:43.998Z</time>
      </trkpt>
      <trkpt lat="45.48231" lon="6.69095">
        <ele>1934.8</ele>
        <time>2012-03-11T10:41:49.001Z</time>
      </trkpt>
      <trkpt lat="45.4826" lon="6.6911">
        <ele>1931.6</ele>
        <time>2012-03-11T10:41:54Z</time>
      </trkpt>
      <trkpt lat="45.48291" lon="6.69138">
        <ele>1928.7</ele>
        <time>2012-03-11T10:41:59Z</time>
      </trkpt>
      <trkpt lat="45.48296" lon="6.69159">
        <ele>1923.2</ele>
        <time>2012-03-11T10:42:03.998Z</time>
      </trkpt>
      <trkpt lat="45.48255" lon="6.69156">
        <ele>1914.9</ele>
        <time>2012-03-11T10:42:09.001Z</time>
      </trkpt>
      <trkpt lat="45.48197" lon="6.69147">
        <ele>1904.4</ele>
        <time>2012-03-11T10:42:14Z</time>
      </trkpt>
      <trkpt lat="45.48137" lon="6.6914">
        <ele>1894.2</ele>
        <time>2012-03-11T10:42:19.002Z</time>
      </trkpt>
      <trkpt lat="45.48079" lon="6.69138">
        <ele>1885.3</ele>
        <time>2012-03-11T10:42:24Z</time>
      </trkpt>
      <trkpt lat="45.48022" lon="6.69126">
        <ele>1876</ele>
        <time>2012-03-11T10:42:29.001Z</time>
      </trkpt>
      <trkpt lat="45.47965" lon="6.69105">
        <ele>1865.5</ele>
        <time>2012-03-11T10:42:34.002Z</time>
      </trkpt>
      <trkpt lat="45.47905" lon="6.69065">
        <ele>1852.9</ele>
        <time>2012-03-11T10:42:39Z</time>
      </trkpt>
      <trkpt lat="45.47839" lon="6.69026">
        <ele>1841.2</ele>
        <time>2012-03-11T10:42:44Z</time>
      </trkpt>
      <trkpt lat="45.47777" lon="6.68992">
        <ele>1832</ele>
        <time>2012-03-11T10:42:49Z</time>
      </trkpt>
      <trkpt lat="45.47714" lon="6.68972">
        <ele>1823.7</ele>
        <time>2012-03-11T10:42:54.001Z</time>
      </trkpt>
      <trkpt lat="45.47662" lon="6.68959">
        <ele>1815.4</ele>
        <time>2012-03-11T10:42:59.001Z</time>
      </trkpt>
      <trkpt lat="45.47632" lon="6.68951">
        <ele>1807.1</ele>
        <time>2012-03-11T10:43:04.001Z</time>
      </trkpt>
      <trkpt lat="45.47622" lon="6.68947">
        <ele>1802</ele>
        <time>2012-03-11T10:43:09.001Z</time>
      </trkpt>
      <trkpt lat="45.47625" lon="6.68945">
        <ele>1801.6</ele>
        <time>2012-03-11T10:43:14.001Z</time>
      </trkpt>
      <trkpt lat="45.47639" lon="6.68951">
        <ele>1797.5</ele>
        <time>2012-03-11T10:43:34Z</time>
      </trkpt>
      <trkpt lat="45.4765" lon="6.68946">
        <ele>1808.2</ele>
        <time>2012-03-11T10:45:04.002Z</time>
      </trkpt>
      <trkpt lat="45.47651" lon="6.68942">
        <ele>1810.5</ele>
        <time>2012-03-11T10:45:09.001Z</time>
      </trkpt>
      <trkpt lat="45.47651" lon="6.68939">
        <ele>1813.3</ele>
        <time>2012-03-11T10:45:14.001Z</time>
      </trkpt>
      <trkpt lat="45.47655" lon="6.68933">
        <ele>1814.6</ele>
        <time>2012-03-11T10:45:19.001Z</time>
      </trkpt>
      <trkpt lat="45.4767" lon="6.68929">
        <ele>1814.4</ele>
        <time>2012-03-11T10:45:24.001Z</time>
      </trkpt>
      <trkpt lat="45.47687" lon="6.68913">
        <ele>1817.2</ele>
        <time>2012-03-11T10:45:29Z</time>
      </trkpt>
      <trkpt lat="45.47704" lon="6.68894">
        <ele>1824.1</ele>
        <time>2012-03-11T10:45:34Z</time>
      </trkpt>
      <trkpt lat="45.4772" lon="6.68879">
        <ele>1832.1</ele>
        <time>2012-03-11T10:45:39.001Z</time>
      </trkpt>
      <trkpt lat="45.47738" lon="6.68866">
        <ele>1839.5</ele>
        <time>2012-03-11T10:45:44Z</time>
      </trkpt>
      <trkpt lat="45.47754" lon="6.68853">
        <ele>1848.7</ele>
        <time>2012-03-11T10:45:49Z</time>
      </trkpt>
      <trkpt lat="45.47771" lon="6.68837">
        <ele>1858.2</ele>
        <time>2012-03-11T10:45:54Z</time>
      </trkpt>
      <trkpt lat="45.47787" lon="6.68821">
        <ele>1868.8</ele>
        <time>2012-03-11T10:45:59Z</time>
      </trkpt>
      <trkpt lat="45.47802" lon="6.68807">
        <ele>1879.2</ele>
        <time>2012-03-11T10:46:04Z</time>
      </trkpt>
      <trkpt lat="45.47816" lon="6.68791">
        <ele>1890.9</ele>
        <time>2012-03-11T10:46:09.001Z</time>
      </trkpt>
      <trkpt lat="45.47832" lon="6.68774">
        <ele>1903.1</ele>
        <time>2012-03-11T10:46:14Z</time>
      </trkpt>
      <trkpt lat="45.47848" lon="6.68755">
        <ele>1914.6</ele>
        <time>2012-03-11T10:46:19.001Z</time>
      </trkpt>
      <trkpt lat="45.47864" lon="6.68737">
        <ele>1925.1</ele>
        <time>2012-03-11T10:46:24.001Z</time>
      </trkpt>
      <trkpt lat="45.47879" lon="6.68717">
        <ele>1936.1</ele>
        <time>2012-03-11T10:46:29.002Z</time>
      </trkpt>
      <trkpt lat="45.47895" lon="6.68701">
        <ele>1944.4</ele>
        <time>2012-03-11T10:46:34Z</time>
      </trkpt>
      <trkpt lat="45.47911" lon="6.68685">
        <ele>1955.4</ele>
        <time>2012-03-11T10:46:39.001Z</time>
      </trkpt>
      <trkpt lat="45.47929" lon="6.68666">
        <ele>1965.6</ele>
        <time>2012-03-11T10:46:43.998Z</time>
      </trkpt>
      <trkpt lat="45.47946" lon="6.68648">
        <ele>1974.7</ele>
        <time>2012-03-11T10:46:48.998Z</time>
      </trkpt>
      <trkpt lat="45.47962" lon="6.6863">
        <ele>1984</ele>
        <time>2012-03-11T10:46:53.998Z</time>
      </trkpt>
      <trkpt lat="45.47978" lon="6.68613">
        <ele>1994.5</ele>
        <time>2012-03-11T10:46:59.001Z</time>
      </trkpt>
      <trkpt lat="45.47994" lon="6.68596">
        <ele>2003.4</ele>
        <time>2012-03-11T10:47:04.001Z</time>
      </trkpt>
      <trkpt lat="45.48011" lon="6.68579">
        <ele>2011.7</ele>
        <time>2012-03-11T10:47:09Z</time>
      </trkpt>
      <trkpt lat="45.48028" lon="6.68561">
        <ele>2018.2</ele>
        <time>2012-03-11T10:47:13.998Z</time>
      </trkpt>
      <trkpt lat="45.48045" lon="6.68545">
        <ele>2022.9</ele>
        <time>2012-03-11T10:47:19.001Z</time>
      </trkpt>
      <trkpt lat="45.48064" lon="6.6853">
        <ele>2028</ele>
        <time>2012-03-11T10:47:23.998Z</time>
      </trkpt>
      <trkpt lat="45.48082" lon="6.6851">
        <ele>2033.6</ele>
        <time>2012-03-11T10:47:29.001Z</time>
      </trkpt>
      <trkpt lat="45.48096" lon="6.6849">
        <ele>2038.5</ele>
        <time>2012-03-11T10:47:34.004Z</time>
      </trkpt>
      <trkpt lat="45.48112" lon="6.68473">
        <ele>2041</ele>
        <time>2012-03-11T10:47:38.998Z</time>
      </trkpt>
      <trkpt lat="45.4813" lon="6.68455">
        <ele>2046.5</ele>
        <time>2012-03-11T10:47:43.997Z</time>
      </trkpt>
      <trkpt lat="45.48147" lon="6.68434">
        <ele>2055.7</ele>
        <time>2012-03-11T10:47:48.998Z</time>
      </trkpt>
      <trkpt lat="45.48165" lon="6.68412">
        <ele>2066.4</ele>
        <time>2012-03-11T10:47:54Z</time>
      </trkpt>
      <trkpt lat="45.48182" lon="6.68392">
        <ele>2076.4</ele>
        <time>2012-03-11T10:47:58.998Z</time>
      </trkpt>
      <trkpt lat="45.482" lon="6.68372">
        <ele>2085.9</ele>
        <time>2012-03-11T10:48:04.001Z</time>
      </trkpt>
      <trkpt lat="45.48218" lon="6.68353">
        <ele>2093.8</ele>
        <time>2012-03-11T10:48:09.001Z</time>
      </trkpt>
      <trkpt lat="45.48235" lon="6.68336">
        <ele>2099.7</ele>
        <time>2012-03-11T10:48:13.997Z</time>
      </trkpt>
      <trkpt lat="45.48253" lon="6.68315">
        <ele>2105</ele>
        <time>2012-03-11T10:48:19Z</time>
      </trkpt>
      <trkpt lat="45.48271" lon="6.68293">
        <ele>2111.7</ele>
        <time>2012-03-11T10:48:24Z</time>
      </trkpt>
      <trkpt lat="45.4829" lon="6.68274">
        <ele>2116.9</ele>
        <time>2012-03-11T10:48:29.001Z</time>
      </trkpt>
      <trkpt lat="45.48306" lon="6.68253">
        <ele>2122.9</ele>
        <time>2012-03-11T10:48:33.998Z</time>
      </trkpt>
      <trkpt lat="45.48323" lon="6.68232">
        <ele>2128.5</ele>
        <time>2012-03-11T10:48:39.001Z</time>
      </trkpt>
      <trkpt lat="45.48342" lon="6.68212">
        <ele>2132.8</ele>
        <time>2012-03-11T10:48:44.001Z</time>
      </trkpt>
      <trkpt lat="45.4836" lon="6.68193">
        <ele>2137.3</ele>
        <time>2012-03-11T10:48:48.997Z</time>
      </trkpt>
      <trkpt lat="45.48376" lon="6.68179">
        <ele>2140.3</ele>
        <time>2012-03-11T10:48:54Z</time>
      </trkpt>
      <trkpt lat="45.48393" lon="6.68164">
        <ele>2143.9</ele>
        <time>2012-03-11T10:48:59.001Z</time>
      </trkpt>
      <trkpt lat="45.48411" lon="6.68148">
        <ele>2149.5</ele>
        <time>2012-03-11T10:49:04.001Z</time>
      </trkpt>
      <trkpt lat="45.4843" lon="6.68134">
        <ele>2153.1</ele>
        <time>2012-03-11T10:49:08.997Z</time>
      </trkpt>
      <trkpt lat="45.48448" lon="6.68118">
        <ele>2158.1</ele>
        <time>2012-03-11T10:49:14Z</time>
      </trkpt>
      <trkpt lat="45.48465" lon="6.68101">
        <ele>2167</ele>
        <time>2012-03-11T10:49:19.001Z</time>
      </trkpt>
      <trkpt lat="45.4848" lon="6.68088">
        <ele>2175.4</ele>
        <time>2012-03-11T10:49:23.998Z</time>
      </trkpt>
      <trkpt lat="45.48496" lon="6.6807">
        <ele>2189.5</ele>
        <time>2012-03-11T10:49:28.998Z</time>
      </trkpt>
      <trkpt lat="45.48511" lon="6.68053">
        <ele>2203.9</ele>
        <time>2012-03-11T10:49:33.998Z</time>
      </trkpt>
      <trkpt lat="45.48527" lon="6.68036">
        <ele>2217.4</ele>
        <time>2012-03-11T10:49:39.001Z</time>
      </trkpt>
      <trkpt lat="45.48542" lon="6.68017">
        <ele>2231.8</ele>
        <time>2012-03-11T10:49:43.998Z</time>
      </trkpt>
      <trkpt lat="45.48557" lon="6.67997">
        <ele>2247.5</ele>
        <time>2012-03-11T10:49:48.998Z</time>
      </trkpt>
      <trkpt lat="45.48573" lon="6.67978">
        <ele>2261.3</ele>
        <time>2012-03-11T10:49:54.001Z</time>
      </trkpt>
      <trkpt lat="45.48588" lon="6.67961">
        <ele>2273.9</ele>
        <time>2012-03-11T10:49:58.998Z</time>
      </trkpt>
      <trkpt lat="45.48605" lon="6.67941">
        <ele>2285.2</ele>
        <time>2012-03-11T10:50:04Z</time>
      </trkpt>
      <trkpt lat="45.48621" lon="6.67921">
        <ele>2294.6</ele>
        <time>2012-03-11T10:50:08.998Z</time>
      </trkpt>
      <trkpt lat="45.48639" lon="6.67907">
        <ele>2301.1</ele>
        <time>2012-03-11T10:50:14.001Z</time>
      </trkpt>
      <trkpt lat="45.48655" lon="6.67889">
        <ele>2310.8</ele>
        <time>2012-03-11T10:50:19.001Z</time>
      </trkpt>
      <trkpt lat="45.48672" lon="6.67872">
        <ele>2320.6</ele>
        <time>2012-03-11T10:50:23.998Z</time>
      </trkpt>
      <trkpt lat="45.48689" lon="6.67856">
        <ele>2330.2</ele>
        <time>2012-03-11T10:50:29Z</time>
      </trkpt>
      <trkpt lat="45.48707" lon="6.6784">
        <ele>2338.9</ele>
        <time>2012-03-11T10:50:34.002Z</time>
      </trkpt>
      <trkpt lat="45.48723" lon="6.67827">
        <ele>2345.9</ele>
        <time>2012-03-11T10:50:39Z</time>
      </trkpt>
      <trkpt lat="45.4874" lon="6.67812">
        <ele>2354.3</ele>
        <time>2012-03-11T10:50:43.998Z</time>
      </trkpt>
      <trkpt lat="45.48757" lon="6.67797">
        <ele>2364.1</ele>
        <time>2012-03-11T10:50:49.001Z</time>
      </trkpt>
      <trkpt lat="45.48772" lon="6.67781">
        <ele>2375.4</ele>
        <time>2012-03-11T10:50:54.001Z</time>
      </trkpt>
      <trkpt lat="45.48787" lon="6.67765">
        <ele>2389.5</ele>
        <time>2012-03-11T10:50:58.998Z</time>
      </trkpt>
      <trkpt lat="45.48801" lon="6.67745">
        <ele>2404.8</ele>
        <time>2012-03-11T10:51:03.998Z</time>
      </trkpt>
      <trkpt lat="45.48817" lon="6.67725">
        <ele>2420.6</ele>
        <time>2012-03-11T10:51:09Z</time>
      </trkpt>
      <trkpt lat="45.48833" lon="6.67707">
        <ele>2435.7</ele>
        <time>2012-03-11T10:51:14Z</time>
      </trkpt>
      <trkpt lat="45.48849" lon="6.67681">
        <ele>2451</ele>
        <time>2012-03-11T10:51:19.001Z</time>
      </trkpt>
      <trkpt lat="45.48857" lon="6.67656">
        <ele>2468</ele>
        <time>2012-03-11T10:51:23.998Z</time>
      </trkpt>
      <trkpt lat="45.48862" lon="6.67631">
        <ele>2482.9</ele>
        <time>2012-03-11T10:51:28.998Z</time>
      </trkpt>
      <trkpt lat="45.48862" lon="6.67613">
        <ele>2490.3</ele>
        <time>2012-03-11T10:51:34.001Z</time>
      </trkpt>
      <trkpt lat="45.48862" lon="6.67599">
        <ele>2490.5</ele>
        <time>2012-03-11T10:51:38.998Z</time>
      </trkpt>
      <trkpt lat="45.4886" lon="6.67589">
        <ele>2487.8</ele>
        <time>2012-03-11T10:51:44.001Z</time>
      </trkpt>
      <trkpt lat="45.48859" lon="6.67581">
        <ele>2480.5</ele>
        <time>2012-03-11T10:51:54Z</time>
      </trkpt>
      <trkpt lat="45.48857" lon="6.67577">
        <ele>2478.8</ele>
        <time>2012-03-11T10:51:59.001Z</time>
      </trkpt>
      <trkpt lat="45.48856" lon="6.67572">
        <ele>2478.3</ele>
        <time>2012-03-11T10:52:04.001Z</time>
      </trkpt>
      <trkpt lat="45.48853" lon="6.67564">
        <ele>2477.1</ele>
        <time>2012-03-11T10:52:08.998Z</time>
      </trkpt>
      <trkpt lat="45.48851" lon="6.67551">
        <ele>2475.9</ele>
        <time>2012-03-11T10:52:13.998Z</time>
      </trkpt>
      <trkpt lat="45.48846" lon="6.67539">
        <ele>2475.2</ele>
        <time>2012-03-11T10:52:19Z</time>
      </trkpt>
      <trkpt lat="45.48842" lon="6.67529">
        <ele>2474.2</ele>
        <time>2012-03-11T10:52:24.001Z</time>
      </trkpt>
      <trkpt lat="45.48838" lon="6.67512">
        <ele>2472.7</ele>
        <time>2012-03-11T10:52:29.001Z</time>
      </trkpt>
      <trkpt lat="45.48837" lon="6.67502">
        <ele>2471.7</ele>
        <time>2012-03-11T10:52:34.001Z</time>
      </trkpt>
      <trkpt lat="45.48834" lon="6.67481">
        <ele>2480.9</ele>
        <time>2012-03-11T10:53:49.001Z</time>
      </trkpt>
      <trkpt lat="45.48828" lon="6.6747">
        <ele>2480.9</ele>
        <time>2012-03-11T10:53:54.001Z</time>
      </trkpt>
      <trkpt lat="45.48821" lon="6.67454">
        <ele>2479.5</ele>
        <time>2012-03-11T10:53:58.998Z</time>
      </trkpt>
      <trkpt lat="45.48814" lon="6.67432">
        <ele>2478.4</ele>
        <time>2012-03-11T10:54:04Z</time>
      </trkpt>
      <trkpt lat="45.48806" lon="6.67402">
        <ele>2477</ele>
        <time>2012-03-11T10:54:09Z</time>
      </trkpt>
      <trkpt lat="45.48794" lon="6.67368">
        <ele>2475</ele>
        <time>2012-03-11T10:54:14.001Z</time>
      </trkpt>
      <trkpt lat="45.48776" lon="6.67332">
        <ele>2471.9</ele>
        <time>2012-03-11T10:54:19.001Z</time>
      </trkpt>
      <trkpt lat="45.48771" lon="6.67322">
        <ele>2468.5</ele>
        <time>2012-03-11T10:54:24.001Z</time>
      </trkpt>
      <trkpt lat="45.48762" lon="6.67323">
        <ele>2470.3</ele>
        <time>2012-03-11T10:54:34Z</time>
      </trkpt>
      <trkpt lat="45.48732" lon="6.6731">
        <ele>2470.1</ele>
        <time>2012-03-11T10:54:38.998Z</time>
      </trkpt>
      <trkpt lat="45.48698" lon="6.67298">
        <ele>2467.3</ele>
        <time>2012-03-11T10:54:44Z</time>
      </trkpt>
      <trkpt lat="45.4869" lon="6.67314">
        <ele>2449</ele>
        <time>2012-03-11T10:55:54Z</time>
      </trkpt>
      <trkpt lat="45.48678" lon="6.67323">
        <ele>2449</ele>
        <time>2012-03-11T10:55:58.998Z</time>
      </trkpt>
      <trkpt lat="45.48661" lon="6.6734">
        <ele>2447.4</ele>
        <time>2012-03-11T10:56:04.004Z</time>
      </trkpt>
      <trkpt lat="45.48635" lon="6.67351">
        <ele>2444.7</ele>
        <time>2012-03-11T10:56:09Z</time>
      </trkpt>
      <trkpt lat="45.48608" lon="6.67348">
        <ele>2442.4</ele>
        <time>2012-03-11T10:56:14.001Z</time>
      </trkpt>
      <trkpt lat="45.48581" lon="6.67335">
        <ele>2438.5</ele>
        <time>2012-03-11T10:56:19Z</time>
      </trkpt>
      <trkpt lat="45.48548" lon="6.67326">
        <ele>2432.6</ele>
        <time>2012-03-11T10:56:24Z</time>
      </trkpt>
      <trkpt lat="45.48515" lon="6.6732">
        <ele>2427.2</ele>
        <time>2012-03-11T10:56:29Z</time>
      </trkpt>
      <trkpt lat="45.48486" lon="6.67327">
        <ele>2422.1</ele>
        <time>2012-03-11T10:56:34.001Z</time>
      </trkpt>
      <trkpt lat="45.48467" lon="6.67364">
        <ele>2415.8</ele>
        <time>2012-03-11T10:56:38.998Z</time>
      </trkpt>
      <trkpt lat="45.48438" lon="6.67414">
        <ele>2407.2</ele>
        <time>2012-03-11T10:56:43.998Z</time>
      </trkpt>
      <trkpt lat="45.48404" lon="6.67458">
        <ele>2396.3</ele>
        <time>2012-03-11T10:56:49Z</time>
      </trkpt>
      <trkpt lat="45.48357" lon="6.67477">
        <ele>2383.1</ele>
        <time>2012-03-11T10:56:54.002Z</time>
      </trkpt>
      <trkpt lat="45.48301" lon="6.67474">
        <ele>2369.7</ele>
        <time>2012-03-11T10:56:59.001Z</time>
      </trkpt>
      <trkpt lat="45.48253" lon="6.67487">
        <ele>2358.2</ele>
        <time>2012-03-11T10:57:04Z</time>
      </trkpt>
      <trkpt lat="45.48211" lon="6.67513">
        <ele>2348.1</ele>
        <time>2012-03-11T10:57:08.998Z</time>
      </trkpt>
      <trkpt lat="45.48176" lon="6.67541">
        <ele>2339.7</ele>
        <time>2012-03-11T10:57:14.001Z</time>
      </trkpt>
      <trkpt lat="45.48159" lon="6.6756">
        <ele>2333.8</ele>
        <time>2012-03-11T10:57:18.998Z</time>
      </trkpt>
      <trkpt lat="45.48158" lon="6.67576">
        <ele>2332.2</ele>
        <time>2012-03-11T10:57:23.998Z</time>
      </trkpt>
      <trkpt lat="45.4816" lon="6.67591">
        <ele>2331.3</ele>
        <time>2012-03-11T10:57:29.002Z</time>
      </trkpt>
      <trkpt lat="45.48161" lon="6.6761">
        <ele>2330.6</ele>
        <time>2012-03-11T10:57:34Z</time>
      </trkpt>
      <trkpt lat="45.48163" lon="6.67633">
        <ele>2329.1</ele>
        <time>2012-03-11T10:57:38.998Z</time>
      </trkpt>
      <trkpt lat="45.48164" lon="6.67645">
        <ele>2327.4</ele>
        <time>2012-03-11T10:57:44Z</time>
      </trkpt>
      <trkpt lat="45.48174" lon="6.67668">
        <ele>2324.7</ele>
        <time>2012-03-11T10:58:09.001Z</time>
      </trkpt>
      <trkpt lat="45.4818" lon="6.67691">
        <ele>2322.3</ele>
        <time>2012-03-11T10:58:14.001Z</time>
      </trkpt>
      <trkpt lat="45.48183" lon="6.67704">
        <ele>2318.7</ele>
        <time>2012-03-11T10:58:18.998Z</time>
      </trkpt>
      <trkpt lat="45.4819" lon="6.67698">
        <ele>2312.6</ele>
        <time>2012-03-11T10:58:23.998Z</time>
      </trkpt>
      <trkpt lat="45.48198" lon="6.67686">
        <ele>2301.3</ele>
        <time>2012-03-11T10:58:34Z</time>
      </trkpt>
      <trkpt lat="45.48213" lon="6.67682">
        <ele>2283.5</ele>
        <time>2012-03-11T10:59:14.002Z</time>
      </trkpt>
      <trkpt lat="45.4822" lon="6.67678">
        <ele>2281.7</ele>
        <time>2012-03-11T10:59:18.998Z</time>
      </trkpt>
      <trkpt lat="45.4822" lon="6.67691">
        <ele>2278.3</ele>
        <time>2012-03-11T10:59:24.002Z</time>
      </trkpt>
      <trkpt lat="45.48218" lon="6.67703">
        <ele>2271.5</ele>
        <time>2012-03-11T10:59:39.005Z</time>
      </trkpt>
      <trkpt lat="45.48218" lon="6.67719">
        <ele>2267.6</ele>
        <time>2012-03-11T10:59:44.001Z</time>
      </trkpt>
      <trkpt lat="45.48231" lon="6.67758">
        <ele>2251.7</ele>
        <time>2012-03-11T11:00:09.001Z</time>
      </trkpt>
      <trkpt lat="45.48228" lon="6.67776">
        <ele>2249.6</ele>
        <time>2012-03-11T11:00:13.998Z</time>
      </trkpt>
      <trkpt lat="45.48226" lon="6.67789">
        <ele>2247.4</ele>
        <time>2012-03-11T11:00:19Z</time>
      </trkpt>
      <trkpt lat="45.48228" lon="6.67802">
        <ele>2245.6</ele>
        <time>2012-03-11T11:00:24.001Z</time>
      </trkpt>
      <trkpt lat="45.4823" lon="6.67821">
        <ele>2243.8</ele>
        <time>2012-03-11T11:00:29Z</time>
      </trkpt>
      <trkpt lat="45.48232" lon="6.67837">
        <ele>2240.4</ele>
        <time>2012-03-11T11:00:33.998Z</time>
      </trkpt>
      <trkpt lat="45.48236" lon="6.67844">
        <ele>2232.2</ele>
        <time>2012-03-11T11:00:44.001Z</time>
      </trkpt>
      <trkpt lat="45.48226" lon="6.67856">
        <ele>2229</ele>
        <time>2012-03-11T11:00:49.001Z</time>
      </trkpt>
      <trkpt lat="45.48222" lon="6.67873">
        <ele>2225.1</ele>
        <time>2012-03-11T11:00:54Z</time>
      </trkpt>
      <trkpt lat="45.48208" lon="6.67893">
        <ele>2220.8</ele>
        <time>2012-03-11T11:00:59.001Z</time>
      </trkpt>
      <trkpt lat="45.48197" lon="6.67933">
        <ele>2216.3</ele>
        <time>2012-03-11T11:01:03.998Z</time>
      </trkpt>
      <trkpt lat="45.48195" lon="6.67977">
        <ele>2209.5</ele>
        <time>2012-03-11T11:01:08.998Z</time>
      </trkpt>
      <trkpt lat="45.48198" lon="6.68006">
        <ele>2201</ele>
        <time>2012-03-11T11:01:13.998Z</time>
      </trkpt>
      <trkpt lat="45.48198" lon="6.68034">
        <ele>2191.6</ele>
        <time>2012-03-11T11:01:18.998Z</time>
      </trkpt>
      <trkpt lat="45.48189" lon="6.68072">
        <ele>2181</ele>
        <time>2012-03-11T11:01:24.001Z</time>
      </trkpt>
      <trkpt lat="45.48178" lon="6.68111">
        <ele>2169.1</ele>
        <time>2012-03-11T11:01:29.002Z</time>
      </trkpt>
      <trkpt lat="45.48165" lon="6.68145">
        <ele>2158.1</ele>
        <time>2012-03-11T11:01:33.998Z</time>
      </trkpt>
      <trkpt lat="45.48154" lon="6.68173">
        <ele>2148.7</ele>
        <time>2012-03-11T11:01:39.001Z</time>
      </trkpt>
      <trkpt lat="45.48139" lon="6.68199">
        <ele>2141</ele>
        <time>2012-03-11T11:01:43.998Z</time>
      </trkpt>
      <trkpt lat="45.48137" lon="6.68223">
        <ele>2135.3</ele>
        <time>2012-03-11T11:01:48.998Z</time>
      </trkpt>
      <trkpt lat="45.48122" lon="6.68245">
        <ele>2131.7</ele>
        <time>2012-03-11T11:01:54.001Z</time>
      </trkpt>
      <trkpt lat="45.48101" lon="6.68266">
        <ele>2127.7</ele>
        <time>2012-03-11T11:01:59Z</time>
      </trkpt>
      <trkpt lat="45.48092" lon="6.6828">
        <ele>2123.7</ele>
        <time>2012-03-11T11:02:04.001Z</time>
      </trkpt>
      <trkpt lat="45.48102" lon="6.68278">
        <ele>2121.6</ele>
        <time>2012-03-11T11:02:23.998Z</time>
      </trkpt>
      <trkpt lat="45.4811" lon="6.68284">
        <ele>2123.1</ele>
        <time>2012-03-11T11:03:18.998Z</time>
      </trkpt>
      <trkpt lat="45.48102" lon="6.68309">
        <ele>2123.2</ele>
        <time>2012-03-11T11:03:23.997Z</time>
      </trkpt>
      <trkpt lat="45.48088" lon="6.68354">
        <ele>2122.7</ele>
        <time>2012-03-11T11:03:29.002Z</time>
      </trkpt>
      <trkpt lat="45.48078" lon="6.68415">
        <ele>2120.5</ele>
        <time>2012-03-11T11:03:33.998Z</time>
      </trkpt>
      <trkpt lat="45.48072" lon="6.68488">
        <ele>2114</ele>
        <time>2012-03-11T11:03:39Z</time>
      </trkpt>
      <trkpt lat="45.4806" lon="6.68564">
        <ele>2104.9</ele>
        <time>2012-03-11T11:03:43.998Z</time>
      </trkpt>
      <trkpt lat="45.48051" lon="6.68631">
        <ele>2087</ele>
        <time>2012-03-11T11:03:48.998Z</time>
      </trkpt>
      <trkpt lat="45.48056" lon="6.68699">
        <ele>2066.6</ele>
        <time>2012-03-11T11:03:54Z</time>
      </trkpt>
      <trkpt lat="45.48069" lon="6.68764">
        <ele>2043.6</ele>
        <time>2012-03-11T11:03:58.998Z</time>
      </trkpt>
      <trkpt lat="45.48085" lon="6.68831">
        <ele>2020.1</ele>
        <time>2012-03-11T11:04:03.997Z</time>
      </trkpt>
      <trkpt lat="45.48098" lon="6.68877">
        <ele>1999.1</ele>
        <time>2012-03-11T11:04:09Z</time>
      </trkpt>
      <trkpt lat="45.4811" lon="6.6892">
        <ele>1981.7</ele>
        <time>2012-03-11T11:04:14.001Z</time>
      </trkpt>
      <trkpt lat="45.48111" lon="6.68969">
        <ele>1969.1</ele>
        <time>2012-03-11T11:04:19Z</time>
      </trkpt>
      <trkpt lat="45.48113" lon="6.69014">
        <ele>1959</ele>
        <time>2012-03-11T11:04:23.998Z</time>
      </trkpt>
      <trkpt lat="45.48127" lon="6.69046">
        <ele>1948.6</ele>
        <time>2012-03-11T11:04:29.001Z</time>
      </trkpt>
      <trkpt lat="45.4816" lon="6.69067">
        <ele>1935.8</ele>
        <time>2012-03-11T11:04:34Z</time>
      </trkpt>
      <trkpt lat="45.48205" lon="6.69088">
        <ele>1926.2</ele>
        <time>2012-03-11T11:04:39Z</time>
      </trkpt>
      <trkpt lat="45.48243" lon="6.69108">
        <ele>1916.9</ele>
        <time>2012-03-11T11:04:44Z</time>
      </trkpt>
      <trkpt lat="45.48274" lon="6.69141">
        <ele>1907.8</ele>
        <time>2012-03-11T11:04:49Z</time>
      </trkpt>
      <trkpt lat="45.48285" lon="6.69179">
        <ele>1904.4</ele>
        <time>2012-03-11T11:04:54.001Z</time>
      </trkpt>
      <trkpt lat="45.48241" lon="6.69186">
        <ele>1902</ele>
        <time>2012-03-11T11:04:58.997Z</time>
      </trkpt>
      <trkpt lat="45.48176" lon="6.69174">
        <ele>1899</ele>
        <time>2012-03-11T11:05:04.004Z</time>
      </trkpt>
      <trkpt lat="45.48103" lon="6.6917">
        <ele>1894.1</ele>
        <time>2012-03-11T11:05:08.998Z</time>
      </trkpt>
      <trkpt lat="45.48036" lon="6.69145">
        <ele>1888</ele>
        <time>2012-03-11T11:05:14Z</time>
      </trkpt>
      <trkpt lat="45.47978" lon="6.69108">
        <ele>1880.2</ele>
        <time>2012-03-11T11:05:19Z</time>
      </trkpt>
      <trkpt lat="45.4793" lon="6.69071">
        <ele>1871.7</ele>
        <time>2012-03-11T11:05:24.001Z</time>
      </trkpt>
      <trkpt lat="45.47883" lon="6.69034">
        <ele>1862</ele>
        <time>2012-03-11T11:05:28.998Z</time>
      </trkpt>
      <trkpt lat="45.47818" lon="6.68999">
        <ele>1851.8</ele>
        <time>2012-03-11T11:05:34Z</time>
      </trkpt>
      <trkpt lat="45.47753" lon="6.68961">
        <ele>1841.7</ele>
        <time>2012-03-11T11:05:39Z</time>
      </trkpt>
      <trkpt lat="45.47693" lon="6.68936">
        <ele>1831.1</ele>
        <time>2012-03-11T11:05:43.998Z</time>
      </trkpt>
      <trkpt lat="45.47652" lon="6.68956">
        <ele>1820</ele>
        <time>2012-03-11T11:05:49.001Z</time>
      </trkpt>
      <trkpt lat="45.47618" lon="6.68965">
        <ele>1809.6</ele>
        <time>2012-03-11T11:05:53.998Z</time>
      </trkpt>
      <trkpt lat="45.47632" lon="6.68966">
        <ele>1795.8</ele>
        <time>2012-03-11T11:06:09.001Z</time>
      </trkpt>
      <trkpt lat="45.47637" lon="6.68964">
        <ele>1797.5</ele>
        <time>2012-03-11T11:06:14Z</time>
      </trkpt>
      <trkpt lat="45.47642" lon="6.68954">
        <ele>1818.8</ele>
        <time>2012-03-11T11:06:38.998Z</time>
      </trkpt>
      <trkpt lat="45.47643" lon="6.6895">
        <ele>1820.3</ele>
        <time>2012-03-11T11:06:43.998Z</time>
      </trkpt>
      <trkpt lat="45.47647" lon="6.68945">
        <ele>1821.3</ele>
        <time>2012-03-11T11:06:54.001Z</time>
      </trkpt>
      <trkpt lat="45.47653" lon="6.68944">
        <ele>1820.2</ele>
        <time>2012-03-11T11:06:59.002Z</time>
      </trkpt>
      <trkpt lat="45.47669" lon="6.68935">
        <ele>1817.7</ele>
        <time>2012-03-11T11:07:04.001Z</time>
      </trkpt>
      <trkpt lat="45.47689" lon="6.68925">
        <ele>1818.1</ele>
        <time>2012-03-11T11:07:08.998Z</time>
      </trkpt>
      <trkpt lat="45.47707" lon="6.68909">
        <ele>1823.1</ele>
        <time>2012-03-11T11:07:14.001Z</time>
      </trkpt>
      <trkpt lat="45.47724" lon="6.68889">
        <ele>1832.4</ele>
        <time>2012-03-11T11:07:18.998Z</time>
      </trkpt>
      <trkpt lat="45.4774" lon="6.68869">
        <ele>1845.7</ele>
        <time>2012-03-11T11:07:24Z</time>
      </trkpt>
      <trkpt lat="45.47754" lon="6.68852">
        <ele>1857.5</ele>
        <time>2012-03-11T11:07:29Z</time>
      </trkpt>
      <trkpt lat="45.47766" lon="6.68833">
        <ele>1869</ele>
        <time>2012-03-11T11:07:34.001Z</time>
      </trkpt>
      <trkpt lat="45.4778" lon="6.68813">
        <ele>1880.3</ele>
        <time>2012-03-11T11:07:38.998Z</time>
      </trkpt>
      <trkpt lat="45.47794" lon="6.68796">
        <ele>1892.6</ele>
        <time>2012-03-11T11:07:44.001Z</time>
      </trkpt>
      <trkpt lat="45.47809" lon="6.68777">
        <ele>1904.9</ele>
        <time>2012-03-11T11:07:48.998Z</time>
      </trkpt>
      <trkpt lat="45.47823" lon="6.68757">
        <ele>1917.7</ele>
        <time>2012-03-11T11:07:54Z</time>
      </trkpt>
      <trkpt lat="45.47841" lon="6.68738">
        <ele>1928.9</ele>
        <time>2012-03-11T11:07:59.001Z</time>
      </trkpt>
      <trkpt lat="45.47858" lon="6.68721">
        <ele>1940</ele>
        <time>2012-03-11T11:08:04.001Z</time>
      </trkpt>
      <trkpt lat="45.47874" lon="6.68703">
        <ele>1951.5</ele>
        <time>2012-03-11T11:08:09.001Z</time>
      </trkpt>
      <trkpt lat="45.47891" lon="6.68688">
        <ele>1962</ele>
        <time>2012-03-11T11:08:13.998Z</time>
      </trkpt>
      <trkpt lat="45.47909" lon="6.68675">
        <ele>1972.4</ele>
        <time>2012-03-11T11:08:19Z</time>
      </trkpt>
      <trkpt lat="45.47926" lon="6.68658">
        <ele>1982</ele>
        <time>2012-03-11T11:08:24Z</time>
      </trkpt>
      <trkpt lat="45.47944" lon="6.68638">
        <ele>1989.9</ele>
        <time>2012-03-11T11:08:28.998Z</time>
      </trkpt>
      <trkpt lat="45.47962" lon="6.6862">
        <ele>1996.5</ele>
        <time>2012-03-11T11:08:33.998Z</time>
      </trkpt>
      <trkpt lat="45.4798" lon="6.68602">
        <ele>2006.4</ele>
        <time>2012-03-11T11:08:39.001Z</time>
      </trkpt>
      <trkpt lat="45.47996" lon="6.68587">
        <ele>2015.2</ele>
        <time>2012-03-11T11:08:43.997Z</time>
      </trkpt>
      <trkpt lat="45.48013" lon="6.68567">
        <ele>2024.9</ele>
        <time>2012-03-11T11:08:48.997Z</time>
      </trkpt>
      <trkpt lat="45.4803" lon="6.68548">
        <ele>2034.7</ele>
        <time>2012-03-11T11:08:53.998Z</time>
      </trkpt>
      <trkpt lat="45.48045" lon="6.68529">
        <ele>2045.2</ele>
        <time>2012-03-11T11:08:59.001Z</time>
      </trkpt>
      <trkpt lat="45.48062" lon="6.68511">
        <ele>2056</ele>
        <time>2012-03-11T11:09:03.998Z</time>
      </trkpt>
      <trkpt lat="45.48078" lon="6.68489">
        <ele>2065.8</ele>
        <time>2012-03-11T11:09:09.001Z</time>
      </trkpt>
      <trkpt lat="45.48095" lon="6.68468">
        <ele>2073.6</ele>
        <time>2012-03-11T11:09:13.998Z</time>
      </trkpt>
      <trkpt lat="45.48113" lon="6.68447">
        <ele>2079.5</ele>
        <time>2012-03-11T11:09:18.997Z</time>
      </trkpt>
      <trkpt lat="45.48131" lon="6.68426">
        <ele>2086.1</ele>
        <time>2012-03-11T11:09:24.001Z</time>
      </trkpt>
      <trkpt lat="45.48148" lon="6.68404">
        <ele>2092.5</ele>
        <time>2012-03-11T11:09:28.997Z</time>
      </trkpt>
      <trkpt lat="45.48166" lon="6.68387">
        <ele>2097.7</ele>
        <time>2012-03-11T11:09:34.001Z</time>
      </trkpt>
      <trkpt lat="45.48184" lon="6.68372">
        <ele>2101.8</ele>
        <time>2012-03-11T11:09:39.002Z</time>
      </trkpt>
      <trkpt lat="45.48202" lon="6.68356">
        <ele>2104.4</ele>
        <time>2012-03-11T11:09:43.998Z</time>
      </trkpt>
      <trkpt lat="45.4822" lon="6.68343">
        <ele>2108.3</ele>
        <time>2012-03-11T11:09:48.998Z</time>
      </trkpt>
      <trkpt lat="45.48237" lon="6.68327">
        <ele>2114.6</ele>
        <time>2012-03-11T11:09:54.001Z</time>
      </trkpt>
      <trkpt lat="45.48254" lon="6.68306">
        <ele>2122.7</ele>
        <time>2012-03-11T11:09:59.001Z</time>
      </trkpt>
      <trkpt lat="45.4827" lon="6.68285">
        <ele>2130.9</ele>
        <time>2012-03-11T11:10:03.998Z</time>
      </trkpt>
      <trkpt lat="45.48285" lon="6.68264">
        <ele>2140.3</ele>
        <time>2012-03-11T11:10:09Z</time>
      </trkpt>
      <trkpt lat="45.483" lon="6.68241">
        <ele>2151.7</ele>
        <time>2012-03-11T11:10:14.002Z</time>
      </trkpt>
      <trkpt lat="45.48316" lon="6.68219">
        <ele>2161.1</ele>
        <time>2012-03-11T11:10:19Z</time>
      </trkpt>
      <trkpt lat="45.48335" lon="6.68198">
        <ele>2169</ele>
        <time>2012-03-11T11:10:23.998Z</time>
      </trkpt>
      <trkpt lat="45.48354" lon="6.68179">
        <ele>2175.2</ele>
        <time>2012-03-11T11:10:29Z</time>
      </trkpt>
      <trkpt lat="45.48371" lon="6.6816">
        <ele>2180.5</ele>
        <time>2012-03-11T11:10:33.998Z</time>
      </trkpt>
      <trkpt lat="45.48387" lon="6.68142">
        <ele>2184.8</ele>
        <time>2012-03-11T11:10:39Z</time>
      </trkpt>
      <trkpt lat="45.48403" lon="6.68125">
        <ele>2189.2</ele>
        <time>2012-03-11T11:10:43.998Z</time>
      </trkpt>
      <trkpt lat="45.48415" lon="6.68108">
        <ele>2194.3</ele>
        <time>2012-03-11T11:10:48.997Z</time>
      </trkpt>
      <trkpt lat="45.48424" lon="6.68088">
        <ele>2198</ele>
        <time>2012-03-11T11:10:54Z</time>
      </trkpt>
      <trkpt lat="45.48439" lon="6.68074">
        <ele>2203.9</ele>
        <time>2012-03-11T11:10:59.002Z</time>
      </trkpt>
      <trkpt lat="45.48456" lon="6.68058">
        <ele>2212</ele>
        <time>2012-03-11T11:11:04.001Z</time>
      </trkpt>
      <trkpt lat="45.48474" lon="6.68042">
        <ele>2223.1</ele>
        <time>2012-03-11T11:11:09Z</time>
      </trkpt>
      <trkpt lat="45.4849" lon="6.68026">
        <ele>2236.9</ele>
        <time>2012-03-11T11:11:13.997Z</time>
      </trkpt>
      <trkpt lat="45.48508" lon="6.68011">
        <ele>2250.4</ele>
        <time>2012-03-11T11:11:19.001Z</time>
      </trkpt>
      <trkpt lat="45.48526" lon="6.67992">
        <ele>2262.5</ele>
        <time>2012-03-11T11:11:24.001Z</time>
      </trkpt>
      <trkpt lat="45.48544" lon="6.67972">
        <ele>2275.1</ele>
        <time>2012-03-11T11:11:29Z</time>
      </trkpt>
      <trkpt lat="45.48562" lon="6.67955">
        <ele>2287</ele>
        <time>2012-03-11T11:11:34Z</time>
      </trkpt>
      <trkpt lat="45.48579" lon="6.67943">
        <ele>2296.8</ele>
        <time>2012-03-11T11:11:39Z</time>
      </trkpt>
      <trkpt lat="45.48597" lon="6.67927">
        <ele>2305.1</ele>
        <time>2012-03-11T11:11:43.998Z</time>
      </trkpt>
      <trkpt lat="45.48615" lon="6.6791">
        <ele>2312.7</ele>
        <time>2012-03-11T11:11:49.001Z</time>
      </trkpt>
      <trkpt lat="45.48633" lon="6.67892">
        <ele>2322.5</ele>
        <time>2012-03-11T11:11:54.001Z</time>
      </trkpt>
      <trkpt lat="45.48649" lon="6.67874">
        <ele>2333.4</ele>
        <time>2012-03-11T11:11:59.001Z</time>
      </trkpt>
      <trkpt lat="45.48665" lon="6.67857">
        <ele>2345.8</ele>
        <time>2012-03-11T11:12:04.001Z</time>
      </trkpt>
      <trkpt lat="45.48681" lon="6.67837">
        <ele>2357.4</ele>
        <time>2012-03-11T11:12:08.998Z</time>
      </trkpt>
      <trkpt lat="45.48697" lon="6.67819">
        <ele>2369.8</ele>
        <time>2012-03-11T11:12:14.001Z</time>
      </trkpt>
      <trkpt lat="45.48713" lon="6.67803">
        <ele>2381.7</ele>
        <time>2012-03-11T11:12:19.001Z</time>
      </trkpt>
      <trkpt lat="45.48731" lon="6.67788">
        <ele>2390.7</ele>
        <time>2012-03-11T11:12:23.998Z</time>
      </trkpt>
      <trkpt lat="45.4875" lon="6.67773">
        <ele>2399.9</ele>
        <time>2012-03-11T11:12:29Z</time>
      </trkpt>
      <trkpt lat="45.48767" lon="6.67758">
        <ele>2409.1</ele>
        <time>2012-03-11T11:12:34Z</time>
      </trkpt>
      <trkpt lat="45.48784" lon="6.67744">
        <ele>2419.9</ele>
        <time>2012-03-11T11:12:39.001Z</time>
      </trkpt>
      <trkpt lat="45.488" lon="6.67724">
        <ele>2431.9</ele>
        <time>2012-03-11T11:12:44Z</time>
      </trkpt>
      <trkpt lat="45.48815" lon="6.67706">
        <ele>2442.8</ele>
        <time>2012-03-11T11:12:48.998Z</time>
      </trkpt>
      <trkpt lat="45.48831" lon="6.67688">
        <ele>2453.9</ele>
        <time>2012-03-11T11:12:54.001Z</time>
      </trkpt>
      <trkpt lat="45.48847" lon="6.67664">
        <ele>2464.6</ele>
        <time>2012-03-11T11:12:58.998Z</time>
      </trkpt>
      <trkpt lat="45.4886" lon="6.67646">
        <ele>2473</ele>
        <time>2012-03-11T11:13:03.998Z</time>
      </trkpt>
      <trkpt lat="45.48869" lon="6.67629">
        <ele>2479.2</ele>
        <time>2012-03-11T11:13:08.998Z</time>
      </trkpt>
      <trkpt lat="45.48871" lon="6.67612">
        <ele>2481.9</ele>
        <time>2012-03-11T11:13:14Z</time>
      </trkpt>
      <trkpt lat="45.48871" lon="6.67599">
        <ele>2480.4</ele>
        <time>2012-03-11T11:13:19.001Z</time>
      </trkpt>
      <trkpt lat="45.48869" lon="6.67588">
        <ele>2476.3</ele>
        <time>2012-03-11T11:13:23.998Z</time>
      </trkpt>
      <trkpt lat="45.48869" lon="6.6758">
        <ele>2472.3</ele>
        <time>2012-03-11T11:13:29.001Z</time>
      </trkpt>
      <trkpt lat="45.48866" lon="6.67575">
        <ele>2467.7</ele>
        <time>2012-03-11T11:13:39.004Z</time>
      </trkpt>
      <trkpt lat="45.48864" lon="6.67568">
        <ele>2467.2</ele>
        <time>2012-03-11T11:13:43.998Z</time>
      </trkpt>
      <trkpt lat="45.48862" lon="6.67558">
        <ele>2466.8</ele>
        <time>2012-03-11T11:13:49Z</time>
      </trkpt>
      <trkpt lat="45.48861" lon="6.67545">
        <ele>2467</ele>
        <time>2012-03-11T11:13:54.001Z</time>
      </trkpt>
      <trkpt lat="45.48855" lon="6.67535">
        <ele>2467.5</ele>
        <time>2012-03-11T11:13:59Z</time>
      </trkpt>
      <trkpt lat="45.48848" lon="6.67526">
        <ele>2467.3</ele>
        <time>2012-03-11T11:14:04.005Z</time>
      </trkpt>
      <trkpt lat="45.48841" lon="6.67507">
        <ele>2467.4</ele>
        <time>2012-03-11T11:14:08.995Z</time>
      </trkpt>
      <trkpt lat="45.48835" lon="6.67482">
        <ele>2465.8</ele>
        <time>2012-03-11T11:14:14.001Z</time>
      </trkpt>
      <trkpt lat="45.48832" lon="6.67464">
        <ele>2463.9</ele>
        <time>2012-03-11T11:14:18.998Z</time>
      </trkpt>
      <trkpt lat="45.48826" lon="6.67446">
        <ele>2461.7</ele>
        <time>2012-03-11T11:14:24.001Z</time>
      </trkpt>
      <trkpt lat="45.48819" lon="6.67419">
        <ele>2459.3</ele>
        <time>2012-03-11T11:14:29Z</time>
      </trkpt>
      <trkpt lat="45.4881" lon="6.67392">
        <ele>2457.2</ele>
        <time>2012-03-11T11:14:34Z</time>
      </trkpt>
      <trkpt lat="45.48796" lon="6.67362">
        <ele>2455.6</ele>
        <time>2012-03-11T11:14:39Z</time>
      </trkpt>
      <trkpt lat="45.48776" lon="6.67338">
        <ele>2453.3</ele>
        <time>2012-03-11T11:14:44.001Z</time>
      </trkpt>
      <trkpt lat="45.48744" lon="6.67316">
        <ele>2449.5</ele>
        <time>2012-03-11T11:14:48.998Z</time>
      </trkpt>
      <trkpt lat="45.48707" lon="6.67314">
        <ele>2445.2</ele>
        <time>2012-03-11T11:14:54.004Z</time>
      </trkpt>
      <trkpt lat="45.48671" lon="6.6733">
        <ele>2439.6</ele>
        <time>2012-03-11T11:14:59Z</time>
      </trkpt>
      <trkpt lat="45.48634" lon="6.6734">
        <ele>2433.8</ele>
        <time>2012-03-11T11:15:03.998Z</time>
      </trkpt>
      <trkpt lat="45.48598" lon="6.67325">
        <ele>2426.7</ele>
        <time>2012-03-11T11:15:09Z</time>
      </trkpt>
      <trkpt lat="45.48563" lon="6.67315">
        <ele>2419.3</ele>
        <time>2012-03-11T11:15:14Z</time>
      </trkpt>
      <trkpt lat="45.48528" lon="6.6732">
        <ele>2412.9</ele>
        <time>2012-03-11T11:15:19Z</time>
      </trkpt>
      <trkpt lat="45.48497" lon="6.67333">
        <ele>2407.1</ele>
        <time>2012-03-11T11:15:23.998Z</time>
      </trkpt>
      <trkpt lat="45.48469" lon="6.67359">
        <ele>2400.7</ele>
        <time>2012-03-11T11:15:29.001Z</time>
      </trkpt>
      <trkpt lat="45.48438" lon="6.67406">
        <ele>2393.1</ele>
        <time>2012-03-11T11:15:33.997Z</time>
      </trkpt>
      <trkpt lat="45.48394" lon="6.67466">
        <ele>2383.8</ele>
        <time>2012-03-11T11:15:38.998Z</time>
      </trkpt>
      <trkpt lat="45.48337" lon="6.67482">
        <ele>2373.9</ele>
        <time>2012-03-11T11:15:44Z</time>
      </trkpt>
      <trkpt lat="45.48291" lon="6.67481">
        <ele>2362.9</ele>
        <time>2012-03-11T11:15:48.998Z</time>
      </trkpt>
      <trkpt lat="45.48273" lon="6.6747">
        <ele>2349.2</ele>
        <time>2012-03-11T11:15:54Z</time>
      </trkpt>
      <trkpt lat="45.48276" lon="6.67463">
        <ele>2342.4</ele>
        <time>2012-03-11T11:16:03.995Z</time>
      </trkpt>
      <trkpt lat="45.48268" lon="6.67466">
        <ele>2340.9</ele>
        <time>2012-03-11T11:16:09.001Z</time>
      </trkpt>
      <trkpt lat="45.4825" lon="6.67475">
        <ele>2338.9</ele>
        <time>2012-03-11T11:16:13.997Z</time>
      </trkpt>
      <trkpt lat="45.48224" lon="6.67492">
        <ele>2336.2</ele>
        <time>2012-03-11T11:16:18.997Z</time>
      </trkpt>
      <trkpt lat="45.48202" lon="6.67512">
        <ele>2334.1</ele>
        <time>2012-03-11T11:16:23.997Z</time>
      </trkpt>
      <trkpt lat="45.48195" lon="6.67536">
        <ele>2332.6</ele>
        <time>2012-03-11T11:16:29Z</time>
      </trkpt>
      <trkpt lat="45.48194" lon="6.67566">
        <ele>2330.8</ele>
        <time>2012-03-11T11:16:34Z</time>
      </trkpt>
      <trkpt lat="45.48192" lon="6.67588">
        <ele>2330.6</ele>
        <time>2012-03-11T11:16:39Z</time>
      </trkpt>
      <trkpt lat="45.48191" lon="6.67597">
        <ele>2330.3</ele>
        <time>2012-03-11T11:16:44.001Z</time>
      </trkpt>
      <trkpt lat="45.48191" lon="6.67606">
        <ele>2331.1</ele>
        <time>2012-03-11T11:16:49.001Z</time>
      </trkpt>
      <trkpt lat="45.48187" lon="6.6763">
        <ele>2331</ele>
        <time>2012-03-11T11:16:53.998Z</time>
      </trkpt>
      <trkpt lat="45.48186" lon="6.67653">
        <ele>2330.4</ele>
        <time>2012-03-11T11:16:59Z</time>
      </trkpt>
      <trkpt lat="45.48185" lon="6.67663">
        <ele>2329.6</ele>
        <time>2012-03-11T11:17:04.001Z</time>
      </trkpt>
      <trkpt lat="45.48197" lon="6.67676">
        <ele>2325.3</ele>
        <time>2012-03-11T11:19:29Z</time>
      </trkpt>
      <trkpt lat="45.48208" lon="6.67692">
        <ele>2324.1</ele>
        <time>2012-03-11T11:19:34.001Z</time>
      </trkpt>
      <trkpt lat="45.48225" lon="6.67706">
        <ele>2322</ele>
        <time>2012-03-11T11:19:38.998Z</time>
      </trkpt>
      <trkpt lat="45.48231" lon="6.67708">
        <ele>2319.7</ele>
        <time>2012-03-11T11:19:43.997Z</time>
      </trkpt>
      <trkpt lat="45.48244" lon="6.67708">
        <ele>2315.3</ele>
        <time>2012-03-11T11:19:48.998Z</time>
      </trkpt>
      <trkpt lat="45.48258" lon="6.67708">
        <ele>2308.7</ele>
        <time>2012-03-11T11:19:54Z</time>
      </trkpt>
      <trkpt lat="45.48262" lon="6.67707">
        <ele>2281.5</ele>
        <time>2012-03-11T11:21:34Z</time>
      </trkpt>
      <trkpt lat="45.48258" lon="6.67725">
        <ele>2279.8</ele>
        <time>2012-03-11T11:21:39Z</time>
      </trkpt>
      <trkpt lat="45.4825" lon="6.67744">
        <ele>2278.2</ele>
        <time>2012-03-11T11:21:44.001Z</time>
      </trkpt>
      <trkpt lat="45.48247" lon="6.67772">
        <ele>2275.8</ele>
        <time>2012-03-11T11:21:49Z</time>
      </trkpt>
      <trkpt lat="45.48245" lon="6.67793">
        <ele>2272.7</ele>
        <time>2012-03-11T11:21:53.998Z</time>
      </trkpt>
      <trkpt lat="45.48244" lon="6.67799">
        <ele>2270.3</ele>
        <time>2012-03-11T11:21:58.998Z</time>
      </trkpt>
      <trkpt lat="45.48241" lon="6.67811">
        <ele>2266.8</ele>
        <time>2012-03-11T11:22:04Z</time>
      </trkpt>
      <trkpt lat="45.48238" lon="6.67823">
        <ele>2263.1</ele>
        <time>2012-03-11T11:22:09Z</time>
      </trkpt>
      <trkpt lat="45.48236" lon="6.67829">
        <ele>2259.9</ele>
        <time>2012-03-11T11:22:13.998Z</time>
      </trkpt>
      <trkpt lat="45.48229" lon="6.67835">
        <ele>2255.3</ele>
        <time>2012-03-11T11:22:19Z</time>
      </trkpt>
      <trkpt lat="45.48222" lon="6.67848">
        <ele>2249.9</ele>
        <time>2012-03-11T11:22:24.001Z</time>
      </trkpt>
      <trkpt lat="45.48206" lon="6.67869">
        <ele>2244.5</ele>
        <time>2012-03-11T11:22:29Z</time>
      </trkpt>
      <trkpt lat="45.48188" lon="6.67901">
        <ele>2236.8</ele>
        <time>2012-03-11T11:22:33.998Z</time>
      </trkpt>
      <trkpt lat="45.48174" lon="6.67931">
        <ele>2226.5</ele>
        <time>2012-03-11T11:22:38.997Z</time>
      </trkpt>
      <trkpt lat="45.4817" lon="6.67963">
        <ele>2215.1</ele>
        <time>2012-03-11T11:22:43.997Z</time>
      </trkpt>
      <trkpt lat="45.48165" lon="6.67982">
        <ele>2204.1</ele>
        <time>2012-03-11T11:22:49Z</time>
      </trkpt>
      <trkpt lat="45.4819" lon="6.67996">
        <ele>2186.5</ele>
        <time>2012-03-11T11:23:29Z</time>
      </trkpt>
      <trkpt lat="45.48191" lon="6.68005">
        <ele>2185.6</ele>
        <time>2012-03-11T11:23:34Z</time>
      </trkpt>
      <trkpt lat="45.48188" lon="6.68021">
        <ele>2184</ele>
        <time>2012-03-11T11:23:38.998Z</time>
      </trkpt>
      <trkpt lat="45.48171" lon="6.6805">
        <ele>2181.4</ele>
        <time>2012-03-11T11:23:44Z</time>
      </trkpt>
      <trkpt lat="45.48159" lon="6.68074">
        <ele>2175</ele>
        <time>2012-03-11T11:23:49Z</time>
      </trkpt>
      <trkpt lat="45.48151" lon="6.68107">
        <ele>2168.1</ele>
        <time>2012-03-11T11:23:54.001Z</time>
      </trkpt>
      <trkpt lat="45.4815" lon="6.68151">
        <ele>2159.7</ele>
        <time>2012-03-11T11:23:59.001Z</time>
      </trkpt>
      <trkpt lat="45.48142" lon="6.68187">
        <ele>2152.1</ele>
        <time>2012-03-11T11:24:04Z</time>
      </trkpt>
      <trkpt lat="45.48117" lon="6.68211">
        <ele>2145.8</ele>
        <time>2012-03-11T11:24:09.001Z</time>
      </trkpt>
      <trkpt lat="45.48087" lon="6.68234">
        <ele>2140.1</ele>
        <time>2012-03-11T11:24:13.998Z</time>
      </trkpt>
      <trkpt lat="45.48075" lon="6.68273">
        <ele>2133.3</ele>
        <time>2012-03-11T11:24:19.001Z</time>
      </trkpt>
      <trkpt lat="45.48081" lon="6.68318">
        <ele>2124.9</ele>
        <time>2012-03-11T11:24:24.001Z</time>
      </trkpt>
      <trkpt lat="45.48089" lon="6.68383">
        <ele>2115</ele>
        <time>2012-03-11T11:24:29Z</time>
      </trkpt>
      <trkpt lat="45.48095" lon="6.68447">
        <ele>2102.8</ele>
        <time>2012-03-11T11:24:33.998Z</time>
      </trkpt>
      <trkpt lat="45.48097" lon="6.68518">
        <ele>2088.1</ele>
        <time>2012-03-11T11:24:39.001Z</time>
      </trkpt>
      <trkpt lat="45.4809" lon="6.6859">
        <ele>2071.9</ele>
        <time>2012-03-11T11:24:44Z</time>
      </trkpt>
      <trkpt lat="45.48093" lon="6.68662">
        <ele>2054.9</ele>
        <time>2012-03-11T11:24:49Z</time>
      </trkpt>
      <trkpt lat="45.48105" lon="6.6874">
        <ele>2035</ele>
        <time>2012-03-11T11:24:53.998Z</time>
      </trkpt>
      <trkpt lat="45.48126" lon="6.68825">
        <ele>2015.1</ele>
        <time>2012-03-11T11:24:58.998Z</time>
      </trkpt>
      <trkpt lat="45.48143" lon="6.68903">
        <ele>1995.4</ele>
        <time>2012-03-11T11:25:04Z</time>
      </trkpt>
      <trkpt lat="45.48142" lon="6.68965">
        <ele>1976</ele>
        <time>2012-03-11T11:25:08.998Z</time>
      </trkpt>
      <trkpt lat="45.48132" lon="6.69021">
        <ele>1961</ele>
        <time>2012-03-11T11:25:14Z</time>
      </trkpt>
      <trkpt lat="45.48151" lon="6.69056">
        <ele>1952.9</ele>
        <time>2012-03-11T11:25:19Z</time>
      </trkpt>
      <trkpt lat="45.48182" lon="6.69078">
        <ele>1947.6</ele>
        <time>2012-03-11T11:25:24.002Z</time>
      </trkpt>
      <trkpt lat="45.48217" lon="6.69091">
        <ele>1941</ele>
        <time>2012-03-11T11:25:29Z</time>
      </trkpt>
      <trkpt lat="45.4825" lon="6.69108">
        <ele>1934.3</ele>
        <time>2012-03-11T11:25:34Z</time>
      </trkpt>
      <trkpt lat="45.48279" lon="6.6913">
        <ele>1928.3</ele>
        <time>2012-03-11T11:25:39Z</time>
      </trkpt>
      <trkpt lat="45.48305" lon="6.69163">
        <ele>1923.1</ele>
        <time>2012-03-11T11:25:44Z</time>
      </trkpt>
      <trkpt lat="45.48285" lon="6.69171">
        <ele>1917.8</ele>
        <time>2012-03-11T11:25:49Z</time>
      </trkpt>
      <trkpt lat="45.48234" lon="6.69159">
        <ele>1911.3</ele>
        <time>2012-03-11T11:25:53.998Z</time>
      </trkpt>
      <trkpt lat="45.48181" lon="6.69157">
        <ele>1904</ele>
        <time>2012-03-11T11:25:59.001Z</time>
      </trkpt>
      <trkpt lat="45.48124" lon="6.69161">
        <ele>1899.1</ele>
        <time>2012-03-11T11:26:04.004Z</time>
      </trkpt>
      <trkpt lat="45.4807" lon="6.69162">
        <ele>1895.8</ele>
        <time>2012-03-11T11:26:08.998Z</time>
      </trkpt>
      <trkpt lat="45.48019" lon="6.69155">
        <ele>1891.8</ele>
        <time>2012-03-11T11:26:14.001Z</time>
      </trkpt>
      <trkpt lat="45.47972" lon="6.69137">
        <ele>1889.5</ele>
        <time>2012-03-11T11:26:19Z</time>
      </trkpt>
      <trkpt lat="45.47928" lon="6.69098">
        <ele>1886.1</ele>
        <time>2012-03-11T11:26:24.001Z</time>
      </trkpt>
      <trkpt lat="45.47878" lon="6.69069">
        <ele>1881.5</ele>
        <time>2012-03-11T11:26:28.998Z</time>
      </trkpt>
      <trkpt lat="45.47827" lon="6.69051">
        <ele>1872.8</ele>
        <time>2012-03-11T11:26:34Z</time>
      </trkpt>
      <trkpt lat="45.47782" lon="6.69024">
        <ele>1859.7</ele>
        <time>2012-03-11T11:26:39Z</time>
      </trkpt>
      <trkpt lat="45.47732" lon="6.68998">
        <ele>1846.1</ele>
        <time>2012-03-11T11:26:44Z</time>
      </trkpt>
      <trkpt lat="45.47681" lon="6.68991">
        <ele>1832.5</ele>
        <time>2012-03-11T11:26:49.001Z</time>
      </trkpt>
      <trkpt lat="45.47639" lon="6.68983">
        <ele>1822.8</ele>
        <time>2012-03-11T11:26:53.995Z</time>
      </trkpt>
      <trkpt lat="45.47605" lon="6.68972">
        <ele>1815</ele>
        <time>2012-03-11T11:26:59Z</time>
      </trkpt>
      <trkpt lat="45.47572" lon="6.68958">
        <ele>1809.8</ele>
        <time>2012-03-11T11:27:04.001Z</time>
      </trkpt>
      <trkpt lat="45.47542" lon="6.68941">
        <ele>1807.5</ele>
        <time>2012-03-11T11:27:09Z</time>
      </trkpt>
      <trkpt lat="45.47513" lon="6.68934">
        <ele>1805.6</ele>
        <time>2012-03-11T11:27:13.998Z</time>
      </trkpt>
      <trkpt lat="45.47491" lon="6.68929">
        <ele>1803.5</ele>
        <time>2012-03-11T11:27:19Z</time>
      </trkpt>
      <trkpt lat="45.47478" lon="6.68919">
        <ele>1801.9</ele>
        <time>2012-03-11T11:27:24Z</time>
      </trkpt>
      <trkpt lat="45.47471" lon="6.68916">
        <ele>1802.5</ele>
        <time>2012-03-11T11:27:29Z</time>
      </trkpt>
      <trkpt lat="45.47461" lon="6.68911">
        <ele>1804.1</ele>
        <time>2012-03-11T11:27:34Z</time>
      </trkpt>
      <trkpt lat="45.47452" lon="6.68909">
        <ele>1805.3</ele>
        <time>2012-03-11T11:27:39Z</time>
      </trkpt>
      <trkpt lat="45.47443" lon="6.68905">
        <ele>1805.5</ele>
        <time>2012-03-11T11:27:44.001Z</time>
      </trkpt>
      <trkpt lat="45.47432" lon="6.68902">
        <ele>1806.4</ele>
        <time>2012-03-11T11:27:48.997Z</time>
      </trkpt>
      <trkpt lat="45.47421" lon="6.68901">
        <ele>1808.1</ele>
        <time>2012-03-11T11:27:53.998Z</time>
      </trkpt>
      <trkpt lat="45.47413" lon="6.68901">
        <ele>1808.8</ele>
        <time>2012-03-11T11:27:59.001Z</time>
      </trkpt>
      <trkpt lat="45.47403" lon="6.68902">
        <ele>1809.4</ele>
        <time>2012-03-11T11:28:04Z</time>
      </trkpt>
      <trkpt lat="45.47394" lon="6.68903">
        <ele>1807.8</ele>
        <time>2012-03-11T11:28:08.998Z</time>
      </trkpt>
      <trkpt lat="45.47386" lon="6.68905">
        <ele>1805.8</ele>
        <time>2012-03-11T11:28:13.998Z</time>
      </trkpt>
      <trkpt lat="45.47376" lon="6.68908">
        <ele>1804.5</ele>
        <time>2012-03-11T11:28:18.998Z</time>
      </trkpt>
      <trkpt lat="45.47369" lon="6.68909">
        <ele>1804.5</ele>
        <time>2012-03-11T11:28:24.001Z</time>
      </trkpt>
      <trkpt lat="45.47362" lon="6.68911">
        <ele>1804.7</ele>
        <time>2012-03-11T11:28:29.001Z</time>
      </trkpt>
      <trkpt lat="45.47356" lon="6.68914">
        <ele>1805.4</ele>
        <time>2012-03-11T11:28:33.997Z</time>
      </trkpt>
      <trkpt lat="45.47351" lon="6.68915">
        <ele>1806.6</ele>
        <time>2012-03-11T11:28:39.002Z</time>
      </trkpt>
      <trkpt lat="45.47345" lon="6.68917">
        <ele>1809.8</ele>
        <time>2012-03-11T11:28:44.001Z</time>
      </trkpt>
      <trkpt lat="45.47338" lon="6.68921">
        <ele>1812.9</ele>
        <time>2012-03-11T11:28:48.997Z</time>
      </trkpt>
      <trkpt lat="45.47333" lon="6.68925">
        <ele>1815.6</ele>
        <time>2012-03-11T11:28:53.998Z</time>
      </trkpt>
      <trkpt lat="45.47325" lon="6.68929">
        <ele>1817</ele>
        <time>2012-03-11T11:28:59Z</time>
      </trkpt>
      <trkpt lat="45.47316" lon="6.68933">
        <ele>1818</ele>
        <time>2012-03-11T11:29:04.001Z</time>
      </trkpt>
      <trkpt lat="45.47307" lon="6.68959">
        <ele>1833.9</ele>
        <time>2012-03-11T11:32:18.998Z</time>
      </trkpt>
      <trkpt lat="45.47313" lon="6.68975">
        <ele>1825.9</ele>
        <time>2012-03-11T11:32:49.001Z</time>
      </trkpt>
      <trkpt lat="45.4732" lon="6.6899">
        <ele>1820.6</ele>
        <time>2012-03-11T11:32:54Z</time>
      </trkpt>
      <trkpt lat="45.47328" lon="6.69007">
        <ele>1816.5</ele>
        <time>2012-03-11T11:32:59.001Z</time>
      </trkpt>
      <trkpt lat="45.47334" lon="6.69027">
        <ele>1817.2</ele>
        <time>2012-03-11T11:33:03.998Z</time>
      </trkpt>
      <trkpt lat="45.47338" lon="6.69045">
        <ele>1820.7</ele>
        <time>2012-03-11T11:33:09.002Z</time>
      </trkpt>
      <trkpt lat="45.47339" lon="6.69064">
        <ele>1825</ele>
        <time>2012-03-11T11:33:14.001Z</time>
      </trkpt>
      <trkpt lat="45.47341" lon="6.69086">
        <ele>1832.5</ele>
        <time>2012-03-11T11:33:19Z</time>
      </trkpt>
      <trkpt lat="45.47341" lon="6.69113">
        <ele>1843.5</ele>
        <time>2012-03-11T11:33:24.001Z</time>
      </trkpt>
      <trkpt lat="45.47343" lon="6.69137">
        <ele>1852.2</ele>
        <time>2012-03-11T11:33:29.001Z</time>
      </trkpt>
      <trkpt lat="45.47347" lon="6.69161">
        <ele>1861.1</ele>
        <time>2012-03-11T11:33:34.001Z</time>
      </trkpt>
      <trkpt lat="45.47351" lon="6.69185">
        <ele>1867.8</ele>
        <time>2012-03-11T11:33:39Z</time>
      </trkpt>
      <trkpt lat="45.47356" lon="6.69208">
        <ele>1874</ele>
        <time>2012-03-11T11:33:43.998Z</time>
      </trkpt>
      <trkpt lat="45.47359" lon="6.69229">
        <ele>1879.6</ele>
        <time>2012-03-11T11:33:49.002Z</time>
      </trkpt>
      <trkpt lat="45.47362" lon="6.69252">
        <ele>1885.2</ele>
        <time>2012-03-11T11:33:54Z</time>
      </trkpt>
      <trkpt lat="45.47366" lon="6.69276">
        <ele>1889.7</ele>
        <time>2012-03-11T11:33:58.998Z</time>
      </trkpt>
      <trkpt lat="45.47371" lon="6.69299">
        <ele>1894.7</ele>
        <time>2012-03-11T11:34:03.998Z</time>
      </trkpt>
      <trkpt lat="45.47375" lon="6.69321">
        <ele>1899.2</ele>
        <time>2012-03-11T11:34:09.001Z</time>
      </trkpt>
      <trkpt lat="45.47378" lon="6.69343">
        <ele>1903.5</ele>
        <time>2012-03-11T11:34:14Z</time>
      </trkpt>
      <trkpt lat="45.47381" lon="6.69366">
        <ele>1910.7</ele>
        <time>2012-03-11T11:34:18.998Z</time>
      </trkpt>
      <trkpt lat="45.47383" lon="6.6939">
        <ele>1917.4</ele>
        <time>2012-03-11T11:34:23.998Z</time>
      </trkpt>
      <trkpt lat="45.47387" lon="6.69414">
        <ele>1923.4</ele>
        <time>2012-03-11T11:34:28.998Z</time>
      </trkpt>
      <trkpt lat="45.4739" lon="6.69438">
        <ele>1929.4</ele>
        <time>2012-03-11T11:34:34.001Z</time>
      </trkpt>
      <trkpt lat="45.47393" lon="6.69461">
        <ele>1935</ele>
        <time>2012-03-11T11:34:39.001Z</time>
      </trkpt>
      <trkpt lat="45.47396" lon="6.69482">
        <ele>1941.7</ele>
        <time>2012-03-11T11:34:43.998Z</time>
      </trkpt>
      <trkpt lat="45.47398" lon="6.69503">
        <ele>1949.9</ele>
        <time>2012-03-11T11:34:49Z</time>
      </trkpt>
      <trkpt lat="45.47401" lon="6.69524">
        <ele>1959.7</ele>
        <time>2012-03-11T11:34:53.998Z</time>
      </trkpt>
      <trkpt lat="45.47402" lon="6.69548">
        <ele>1971.2</ele>
        <time>2012-03-11T11:34:58.997Z</time>
      </trkpt>
      <trkpt lat="45.47404" lon="6.69571">
        <ele>1979.1</ele>
        <time>2012-03-11T11:35:04.005Z</time>
      </trkpt>
      <trkpt lat="45.47408" lon="6.69595">
        <ele>1984.2</ele>
        <time>2012-03-11T11:35:08.998Z</time>
      </trkpt>
      <trkpt lat="45.47412" lon="6.69615">
        <ele>1988.1</ele>
        <time>2012-03-11T11:35:14Z</time>
      </trkpt>
      <trkpt lat="45.47415" lon="6.69639">
        <ele>1993.8</ele>
        <time>2012-03-11T11:35:19Z</time>
      </trkpt>
      <trkpt lat="45.47419" lon="6.69664">
        <ele>1998</ele>
        <time>2012-03-11T11:35:24.001Z</time>
      </trkpt>
      <trkpt lat="45.47424" lon="6.69688">
        <ele>2001.9</ele>
        <time>2012-03-11T11:35:29.001Z</time>
      </trkpt>
      <trkpt lat="45.47429" lon="6.69709">
        <ele>2002.9</ele>
        <time>2012-03-11T11:35:33.998Z</time>
      </trkpt>
      <trkpt lat="45.47435" lon="6.69728">
        <ele>2003.5</ele>
        <time>2012-03-11T11:35:38.998Z</time>
      </trkpt>
      <trkpt lat="45.47442" lon="6.69748">
        <ele>2004.9</ele>
        <time>2012-03-11T11:35:44Z</time>
      </trkpt>
      <trkpt lat="45.47448" lon="6.69769">
        <ele>2009.3</ele>
        <time>2012-03-11T11:35:49Z</time>
      </trkpt>
      <trkpt lat="45.47451" lon="6.69793">
        <ele>2014.6</ele>
        <time>2012-03-11T11:35:54.001Z</time>
      </trkpt>
      <trkpt lat="45.47455" lon="6.69817">
        <ele>2018.7</ele>
        <time>2012-03-11T11:35:58.998Z</time>
      </trkpt>
      <trkpt lat="45.47458" lon="6.69841">
        <ele>2025.5</ele>
        <time>2012-03-11T11:36:04Z</time>
      </trkpt>
      <trkpt lat="45.47462" lon="6.69865">
        <ele>2034.3</ele>
        <time>2012-03-11T11:36:09.002Z</time>
      </trkpt>
      <trkpt lat="45.47465" lon="6.69886">
        <ele>2042.5</ele>
        <time>2012-03-11T11:36:14Z</time>
      </trkpt>
      <trkpt lat="45.47468" lon="6.69908">
        <ele>2048.9</ele>
        <time>2012-03-11T11:36:19.002Z</time>
      </trkpt>
      <trkpt lat="45.47472" lon="6.69932">
        <ele>2055.8</ele>
        <time>2012-03-11T11:36:23.998Z</time>
      </trkpt>
      <trkpt lat="45.47475" lon="6.69958">
        <ele>2062.4</ele>
        <time>2012-03-11T11:36:29Z</time>
      </trkpt>
      <trkpt lat="45.47479" lon="6.69981">
        <ele>2068.7</ele>
        <time>2012-03-11T11:36:34.001Z</time>
      </trkpt>
      <trkpt lat="45.47483" lon="6.70004">
        <ele>2075.6</ele>
        <time>2012-03-11T11:36:39Z</time>
      </trkpt>
      <trkpt lat="45.47486" lon="6.70026">
        <ele>2081.4</ele>
        <time>2012-03-11T11:36:43.998Z</time>
      </trkpt>
      <trkpt lat="45.47487" lon="6.70045">
        <ele>2086.5</ele>
        <time>2012-03-11T11:36:48.998Z</time>
      </trkpt>
      <trkpt lat="45.47486" lon="6.70063">
        <ele>2093.2</ele>
        <time>2012-03-11T11:36:53.998Z</time>
      </trkpt>
      <trkpt lat="45.47486" lon="6.70081">
        <ele>2100.8</ele>
        <time>2012-03-11T11:36:59Z</time>
      </trkpt>
      <trkpt lat="45.4749" lon="6.70096">
        <ele>2104.7</ele>
        <time>2012-03-11T11:37:04.001Z</time>
      </trkpt>
      <trkpt lat="45.47491" lon="6.70108">
        <ele>2105.2</ele>
        <time>2012-03-11T11:37:08.998Z</time>
      </trkpt>
      <trkpt lat="45.47489" lon="6.70113">
        <ele>2106.7</ele>
        <time>2012-03-11T11:37:14.001Z</time>
      </trkpt>
      <trkpt lat="45.47484" lon="6.70125">
        <ele>2109.2</ele>
        <time>2012-03-11T11:37:18.998Z</time>
      </trkpt>
      <trkpt lat="45.47473" lon="6.70139">
        <ele>2111</ele>
        <time>2012-03-11T11:37:24.001Z</time>
      </trkpt>
      <trkpt lat="45.47454" lon="6.70138">
        <ele>2111.6</ele>
        <time>2012-03-11T11:37:29.001Z</time>
      </trkpt>
      <trkpt lat="45.47417" lon="6.70134">
        <ele>2111.7</ele>
        <time>2012-03-11T11:37:34.001Z</time>
      </trkpt>
      <trkpt lat="45.47368" lon="6.70126">
        <ele>2107.3</ele>
        <time>2012-03-11T11:37:38.998Z</time>
      </trkpt>
      <trkpt lat="45.4733" lon="6.70118">
        <ele>2099.4</ele>
        <time>2012-03-11T11:37:44.002Z</time>
      </trkpt>
      <trkpt lat="45.473" lon="6.70121">
        <ele>2086.7</ele>
        <time>2012-03-11T11:37:49Z</time>
      </trkpt>
      <trkpt lat="45.47278" lon="6.70125">
        <ele>2076.6</ele>
        <time>2012-03-11T11:37:54Z</time>
      </trkpt>
      <trkpt lat="45.47312" lon="6.70134">
        <ele>2075.9</ele>
        <time>2012-03-11T11:39:39.001Z</time>
      </trkpt>
      <trkpt lat="45.47316" lon="6.70134">
        <ele>2074.3</ele>
        <time>2012-03-11T11:39:49Z</time>
      </trkpt>
      <trkpt lat="45.4733" lon="6.70144">
        <ele>2072.2</ele>
        <time>2012-03-11T11:39:54Z</time>
      </trkpt>
      <trkpt lat="45.47344" lon="6.70154">
        <ele>2072.4</ele>
        <time>2012-03-11T11:39:59.001Z</time>
      </trkpt>
      <trkpt lat="45.47358" lon="6.70167">
        <ele>2073.8</ele>
        <time>2012-03-11T11:40:04.002Z</time>
      </trkpt>
      <trkpt lat="45.47372" lon="6.70179">
        <ele>2077</ele>
        <time>2012-03-11T11:40:09Z</time>
      </trkpt>
      <trkpt lat="45.47387" lon="6.70192">
        <ele>2081.2</ele>
        <time>2012-03-11T11:40:13.998Z</time>
      </trkpt>
      <trkpt lat="45.47402" lon="6.70203">
        <ele>2086.3</ele>
        <time>2012-03-11T11:40:19Z</time>
      </trkpt>
      <trkpt lat="45.47415" lon="6.70215">
        <ele>2091.5</ele>
        <time>2012-03-11T11:40:23.998Z</time>
      </trkpt>
      <trkpt lat="45.47428" lon="6.70225">
        <ele>2097</ele>
        <time>2012-03-11T11:40:29.001Z</time>
      </trkpt>
      <trkpt lat="45.4744" lon="6.70235">
        <ele>2102.5</ele>
        <time>2012-03-11T11:40:33.997Z</time>
      </trkpt>
      <trkpt lat="45.47453" lon="6.70245">
        <ele>2109.5</ele>
        <time>2012-03-11T11:40:39.001Z</time>
      </trkpt>
      <trkpt lat="45.47466" lon="6.70255">
        <ele>2116.5</ele>
        <time>2012-03-11T11:40:44.001Z</time>
      </trkpt>
      <trkpt lat="45.47479" lon="6.70265">
        <ele>2123.5</ele>
        <time>2012-03-11T11:40:49Z</time>
      </trkpt>
      <trkpt lat="45.47493" lon="6.70276">
        <ele>2130.2</ele>
        <time>2012-03-11T11:40:53.998Z</time>
      </trkpt>
      <trkpt lat="45.47506" lon="6.70287">
        <ele>2134.5</ele>
        <time>2012-03-11T11:40:59.001Z</time>
      </trkpt>
      <trkpt lat="45.4752" lon="6.70298">
        <ele>2137.7</ele>
        <time>2012-03-11T11:41:04.001Z</time>
      </trkpt>
      <trkpt lat="45.47534" lon="6.7031">
        <ele>2140.9</ele>
        <time>2012-03-11T11:41:08.998Z</time>
      </trkpt>
      <trkpt lat="45.47547" lon="6.70322">
        <ele>2146.3</ele>
        <time>2012-03-11T11:41:13.997Z</time>
      </trkpt>
      <trkpt lat="45.47558" lon="6.70332">
        <ele>2151.6</ele>
        <time>2012-03-11T11:41:18.998Z</time>
      </trkpt>
      <trkpt lat="45.47572" lon="6.70342">
        <ele>2157.8</ele>
        <time>2012-03-11T11:41:24Z</time>
      </trkpt>
      <trkpt lat="45.47584" lon="6.70353">
        <ele>2163.6</ele>
        <time>2012-03-11T11:41:28.998Z</time>
      </trkpt>
      <trkpt lat="45.47596" lon="6.70363">
        <ele>2167.9</ele>
        <time>2012-03-11T11:41:33.998Z</time>
      </trkpt>
      <trkpt lat="45.47607" lon="6.70372">
        <ele>2170.7</ele>
        <time>2012-03-11T11:41:39Z</time>
      </trkpt>
      <trkpt lat="45.4762" lon="6.70383">
        <ele>2174.6</ele>
        <time>2012-03-11T11:41:44.001Z</time>
      </trkpt>
      <trkpt lat="45.47631" lon="6.70394">
        <ele>2180.1</ele>
        <time>2012-03-11T11:41:49Z</time>
      </trkpt>
      <trkpt lat="45.47642" lon="6.70404">
        <ele>2185.7</ele>
        <time>2012-03-11T11:41:54Z</time>
      </trkpt>
      <trkpt lat="45.47654" lon="6.70413">
        <ele>2190.9</ele>
        <time>2012-03-11T11:41:59.001Z</time>
      </trkpt>
      <trkpt lat="45.47664" lon="6.70422">
        <ele>2197</ele>
        <time>2012-03-11T11:42:04.001Z</time>
      </trkpt>
      <trkpt lat="45.47677" lon="6.70434">
        <ele>2203.9</ele>
        <time>2012-03-11T11:42:09.001Z</time>
      </trkpt>
      <trkpt lat="45.47691" lon="6.70444">
        <ele>2211.2</ele>
        <time>2012-03-11T11:42:14Z</time>
      </trkpt>
      <trkpt lat="45.47704" lon="6.70454">
        <ele>2217.8</ele>
        <time>2012-03-11T11:42:19Z</time>
      </trkpt>
      <trkpt lat="45.47715" lon="6.70465">
        <ele>2223.7</ele>
        <time>2012-03-11T11:42:23.998Z</time>
      </trkpt>
      <trkpt lat="45.47729" lon="6.70475">
        <ele>2227.6</ele>
        <time>2012-03-11T11:42:29.001Z</time>
      </trkpt>
      <trkpt lat="45.47741" lon="6.70487">
        <ele>2229.6</ele>
        <time>2012-03-11T11:42:34.001Z</time>
      </trkpt>
      <trkpt lat="45.47754" lon="6.70498">
        <ele>2231.3</ele>
        <time>2012-03-11T11:42:38.998Z</time>
      </trkpt>
      <trkpt lat="45.47768" lon="6.7051">
        <ele>2234.5</ele>
        <time>2012-03-11T11:42:43.998Z</time>
      </trkpt>
      <trkpt lat="45.47782" lon="6.7052">
        <ele>2237.9</ele>
        <time>2012-03-11T11:42:49.001Z</time>
      </trkpt>
      <trkpt lat="45.47794" lon="6.70531">
        <ele>2240</ele>
        <time>2012-03-11T11:42:54.001Z</time>
      </trkpt>
      <trkpt lat="45.47806" lon="6.70542">
        <ele>2240.5</ele>
        <time>2012-03-11T11:42:58.998Z</time>
      </trkpt>
      <trkpt lat="45.47819" lon="6.70551">
        <ele>2241.2</ele>
        <time>2012-03-11T11:43:03.998Z</time>
      </trkpt>
      <trkpt lat="45.47833" lon="6.70561">
        <ele>2242.4</ele>
        <time>2012-03-11T11:43:09Z</time>
      </trkpt>
      <trkpt lat="45.47847" lon="6.70572">
        <ele>2245</ele>
        <time>2012-03-11T11:43:13.998Z</time>
      </trkpt>
      <trkpt lat="45.47861" lon="6.70582">
        <ele>2247.1</ele>
        <time>2012-03-11T11:43:19Z</time>
      </trkpt>
      <trkpt lat="45.47874" lon="6.70593">
        <ele>2249.4</ele>
        <time>2012-03-11T11:43:23.998Z</time>
      </trkpt>
      <trkpt lat="45.47887" lon="6.70604">
        <ele>2251.5</ele>
        <time>2012-03-11T11:43:29Z</time>
      </trkpt>
      <trkpt lat="45.47902" lon="6.70616">
        <ele>2256</ele>
        <time>2012-03-11T11:43:34.001Z</time>
      </trkpt>
      <trkpt lat="45.47915" lon="6.70627">
        <ele>2259</ele>
        <time>2012-03-11T11:43:39Z</time>
      </trkpt>
      <trkpt lat="45.47928" lon="6.70638">
        <ele>2261.4</ele>
        <time>2012-03-11T11:43:43.998Z</time>
      </trkpt>
      <trkpt lat="45.47942" lon="6.70649">
        <ele>2262.4</ele>
        <time>2012-03-11T11:43:49Z</time>
      </trkpt>
      <trkpt lat="45.47955" lon="6.70661">
        <ele>2264.9</ele>
        <time>2012-03-11T11:43:53.998Z</time>
      </trkpt>
      <trkpt lat="45.4797" lon="6.70673">
        <ele>2267.6</ele>
        <time>2012-03-11T11:43:58.998Z</time>
      </trkpt>
      <trkpt lat="45.47984" lon="6.70685">
        <ele>2271</ele>
        <time>2012-03-11T11:44:04.001Z</time>
      </trkpt>
      <trkpt lat="45.48" lon="6.70696">
        <ele>2275.2</ele>
        <time>2012-03-11T11:44:09.001Z</time>
      </trkpt>
      <trkpt lat="45.48013" lon="6.70706">
        <ele>2278.2</ele>
        <time>2012-03-11T11:44:14.001Z</time>
      </trkpt>
      <trkpt lat="45.48027" lon="6.70717">
        <ele>2280.9</ele>
        <time>2012-03-11T11:44:19Z</time>
      </trkpt>
      <trkpt lat="45.4804" lon="6.70727">
        <ele>2285</ele>
        <time>2012-03-11T11:44:23.998Z</time>
      </trkpt>
      <trkpt lat="45.48051" lon="6.70737">
        <ele>2289.7</ele>
        <time>2012-03-11T11:44:29.004Z</time>
      </trkpt>
      <trkpt lat="45.48064" lon="6.70748">
        <ele>2294.1</ele>
        <time>2012-03-11T11:44:34Z</time>
      </trkpt>
      <trkpt lat="45.48076" lon="6.70759">
        <ele>2299.9</ele>
        <time>2012-03-11T11:44:39Z</time>
      </trkpt>
      <trkpt lat="45.48091" lon="6.7077">
        <ele>2304.7</ele>
        <time>2012-03-11T11:44:44.001Z</time>
      </trkpt>
      <trkpt lat="45.48105" lon="6.70781">
        <ele>2307.1</ele>
        <time>2012-03-11T11:44:49Z</time>
      </trkpt>
      <trkpt lat="45.48121" lon="6.70792">
        <ele>2308.9</ele>
        <time>2012-03-11T11:44:54Z</time>
      </trkpt>
      <trkpt lat="45.48134" lon="6.70802">
        <ele>2311.7</ele>
        <time>2012-03-11T11:44:58.998Z</time>
      </trkpt>
      <trkpt lat="45.48148" lon="6.70813">
        <ele>2315.2</ele>
        <time>2012-03-11T11:45:03.995Z</time>
      </trkpt>
      <trkpt lat="45.48161" lon="6.70824">
        <ele>2319.2</ele>
        <time>2012-03-11T11:45:09Z</time>
      </trkpt>
      <trkpt lat="45.48174" lon="6.70834">
        <ele>2324.1</ele>
        <time>2012-03-11T11:45:14Z</time>
      </trkpt>
      <trkpt lat="45.48187" lon="6.70845">
        <ele>2327.2</ele>
        <time>2012-03-11T11:45:19Z</time>
      </trkpt>
      <trkpt lat="45.482" lon="6.70855">
        <ele>2328.3</ele>
        <time>2012-03-11T11:45:24Z</time>
      </trkpt>
      <trkpt lat="45.48213" lon="6.70865">
        <ele>2329.8</ele>
        <time>2012-03-11T11:45:29Z</time>
      </trkpt>
      <trkpt lat="45.48226" lon="6.70875">
        <ele>2332.3</ele>
        <time>2012-03-11T11:45:34Z</time>
      </trkpt>
      <trkpt lat="45.48239" lon="6.70884">
        <ele>2335.4</ele>
        <time>2012-03-11T11:45:39Z</time>
      </trkpt>
      <trkpt lat="45.48252" lon="6.70894">
        <ele>2338.6</ele>
        <time>2012-03-11T11:45:43.998Z</time>
      </trkpt>
      <trkpt lat="45.48266" lon="6.70906">
        <ele>2341.4</ele>
        <time>2012-03-11T11:45:49Z</time>
      </trkpt>
      <trkpt lat="45.4828" lon="6.70917">
        <ele>2344.9</ele>
        <time>2012-03-11T11:45:54.001Z</time>
      </trkpt>
      <trkpt lat="45.48293" lon="6.70929">
        <ele>2348.6</ele>
        <time>2012-03-11T11:45:58.998Z</time>
      </trkpt>
      <trkpt lat="45.48304" lon="6.70939">
        <ele>2354.3</ele>
        <time>2012-03-11T11:46:04.001Z</time>
      </trkpt>
      <trkpt lat="45.48316" lon="6.70948">
        <ele>2360.5</ele>
        <time>2012-03-11T11:46:09Z</time>
      </trkpt>
      <trkpt lat="45.4833" lon="6.70958">
        <ele>2365.8</ele>
        <time>2012-03-11T11:46:14Z</time>
      </trkpt>
      <trkpt lat="45.48344" lon="6.7097">
        <ele>2368.2</ele>
        <time>2012-03-11T11:46:18.998Z</time>
      </trkpt>
      <trkpt lat="45.48358" lon="6.70981">
        <ele>2369.4</ele>
        <time>2012-03-11T11:46:24.002Z</time>
      </trkpt>
      <trkpt lat="45.48372" lon="6.70994">
        <ele>2369.9</ele>
        <time>2012-03-11T11:46:28.998Z</time>
      </trkpt>
      <trkpt lat="45.48385" lon="6.71005">
        <ele>2371.5</ele>
        <time>2012-03-11T11:46:34Z</time>
      </trkpt>
      <trkpt lat="45.48396" lon="6.71016">
        <ele>2374.1</ele>
        <time>2012-03-11T11:46:39Z</time>
      </trkpt>
      <trkpt lat="45.48409" lon="6.71027">
        <ele>2377.8</ele>
        <time>2012-03-11T11:46:44Z</time>
      </trkpt>
      <trkpt lat="45.48423" lon="6.71038">
        <ele>2381.7</ele>
        <time>2012-03-11T11:46:49Z</time>
      </trkpt>
      <trkpt lat="45.48437" lon="6.71049">
        <ele>2384.6</ele>
        <time>2012-03-11T11:46:53.998Z</time>
      </trkpt>
      <trkpt lat="45.48451" lon="6.7106">
        <ele>2387.3</ele>
        <time>2012-03-11T11:46:59Z</time>
      </trkpt>
      <trkpt lat="45.48464" lon="6.71071">
        <ele>2389.8</ele>
        <time>2012-03-11T11:47:04Z</time>
      </trkpt>
      <trkpt lat="45.48475" lon="6.71083">
        <ele>2391.8</ele>
        <time>2012-03-11T11:47:09.001Z</time>
      </trkpt>
      <trkpt lat="45.48489" lon="6.71093">
        <ele>2392.6</ele>
        <time>2012-03-11T11:47:14Z</time>
      </trkpt>
      <trkpt lat="45.48498" lon="6.711">
        <ele>2394.7</ele>
        <time>2012-03-11T11:47:19Z</time>
      </trkpt>
      <trkpt lat="45.48509" lon="6.71107">
        <ele>2396</ele>
        <time>2012-03-11T11:47:23.998Z</time>
      </trkpt>
      <trkpt lat="45.48522" lon="6.71107">
        <ele>2391.6</ele>
        <time>2012-03-11T11:47:49Z</time>
      </trkpt>
      <trkpt lat="45.48527" lon="6.71109">
        <ele>2391</ele>
        <time>2012-03-11T11:47:54.001Z</time>
      </trkpt>
      <trkpt lat="45.48536" lon="6.71112">
        <ele>2391</ele>
        <time>2012-03-11T11:47:59Z</time>
      </trkpt>
      <trkpt lat="45.48549" lon="6.71117">
        <ele>2390.5</ele>
        <time>2012-03-11T11:48:04Z</time>
      </trkpt>
      <trkpt lat="45.48565" lon="6.71125">
        <ele>2388.3</ele>
        <time>2012-03-11T11:48:09Z</time>
      </trkpt>
      <trkpt lat="45.48586" lon="6.71143">
        <ele>2385.6</ele>
        <time>2012-03-11T11:48:14Z</time>
      </trkpt>
      <trkpt lat="45.48605" lon="6.71165">
        <ele>2382.8</ele>
        <time>2012-03-11T11:48:18.998Z</time>
      </trkpt>
      <trkpt lat="45.48637" lon="6.71181">
        <ele>2377.7</ele>
        <time>2012-03-11T11:48:23.998Z</time>
      </trkpt>
      <trkpt lat="45.48682" lon="6.71178">
        <ele>2370.7</ele>
        <time>2012-03-11T11:48:28.998Z</time>
      </trkpt>
      <trkpt lat="45.48721" lon="6.71164">
        <ele>2365.9</ele>
        <time>2012-03-11T11:48:34Z</time>
      </trkpt>
      <trkpt lat="45.48747" lon="6.7114">
        <ele>2360</ele>
        <time>2012-03-11T11:48:39.001Z</time>
      </trkpt>
      <trkpt lat="45.4877" lon="6.71112">
        <ele>2352.2</ele>
        <time>2012-03-11T11:48:44Z</time>
      </trkpt>
      <trkpt lat="45.48798" lon="6.71078">
        <ele>2338.4</ele>
        <time>2012-03-11T11:48:48.998Z</time>
      </trkpt>
      <trkpt lat="45.48837" lon="6.71037">
        <ele>2322.1</ele>
        <time>2012-03-11T11:48:54Z</time>
      </trkpt>
      <trkpt lat="45.48878" lon="6.70996">
        <ele>2309.9</ele>
        <time>2012-03-11T11:48:58.998Z</time>
      </trkpt>
      <trkpt lat="45.48901" lon="6.70961">
        <ele>2301.9</ele>
        <time>2012-03-11T11:49:04Z</time>
      </trkpt>
      <trkpt lat="45.48915" lon="6.70935">
        <ele>2298.3</ele>
        <time>2012-03-11T11:49:09.001Z</time>
      </trkpt>
      <trkpt lat="45.48922" lon="6.70915">
        <ele>2299.2</ele>
        <time>2012-03-11T11:49:14.001Z</time>
      </trkpt>
      <trkpt lat="45.48925" lon="6.70906">
        <ele>2301.2</ele>
        <time>2012-03-11T11:49:19.001Z</time>
      </trkpt>
      <trkpt lat="45.48929" lon="6.70896">
        <ele>2304</ele>
        <time>2012-03-11T11:49:23.997Z</time>
      </trkpt>
      <trkpt lat="45.48936" lon="6.70891">
        <ele>2305.2</ele>
        <time>2012-03-11T11:49:28.998Z</time>
      </trkpt>
      <trkpt lat="45.48939" lon="6.70896">
        <ele>2306.7</ele>
        <time>2012-03-11T11:49:39.001Z</time>
      </trkpt>
      <trkpt lat="45.48939" lon="6.709">
        <ele>2313.7</ele>
        <time>2012-03-11T11:49:48.998Z</time>
      </trkpt>
      <trkpt lat="45.48938" lon="6.7091">
        <ele>2319.6</ele>
        <time>2012-03-11T11:50:04Z</time>
      </trkpt>
      <trkpt lat="45.48945" lon="6.70923">
        <ele>2318.6</ele>
        <time>2012-03-11T11:50:24.001Z</time>
      </trkpt>
      <trkpt lat="45.48951" lon="6.70928">
        <ele>2318.7</ele>
        <time>2012-03-11T11:50:33.998Z</time>
      </trkpt>
      <trkpt lat="45.48952" lon="6.70935">
        <ele>2315.7</ele>
        <time>2012-03-11T11:50:39Z</time>
      </trkpt>
      <trkpt lat="45.48955" lon="6.70955">
        <ele>2312.2</ele>
        <time>2012-03-11T11:50:44.001Z</time>
      </trkpt>
      <trkpt lat="45.48962" lon="6.7098">
        <ele>2310.5</ele>
        <time>2012-03-11T11:50:49.001Z</time>
      </trkpt>
      <trkpt lat="45.4897" lon="6.71008">
        <ele>2313.3</ele>
        <time>2012-03-11T11:50:54Z</time>
      </trkpt>
      <trkpt lat="45.48976" lon="6.71036">
        <ele>2317.9</ele>
        <time>2012-03-11T11:50:59.001Z</time>
      </trkpt>
      <trkpt lat="45.48982" lon="6.71064">
        <ele>2322.9</ele>
        <time>2012-03-11T11:51:04Z</time>
      </trkpt>
      <trkpt lat="45.48987" lon="6.71093">
        <ele>2328.7</ele>
        <time>2012-03-11T11:51:09Z</time>
      </trkpt>
      <trkpt lat="45.48994" lon="6.71123">
        <ele>2332.8</ele>
        <time>2012-03-11T11:51:14Z</time>
      </trkpt>
      <trkpt lat="45.49" lon="6.71154">
        <ele>2339.3</ele>
        <time>2012-03-11T11:51:19.001Z</time>
      </trkpt>
      <trkpt lat="45.49006" lon="6.71183">
        <ele>2344.9</ele>
        <time>2012-03-11T11:51:24Z</time>
      </trkpt>
      <trkpt lat="45.49012" lon="6.71209">
        <ele>2350.3</ele>
        <time>2012-03-11T11:51:29Z</time>
      </trkpt>
      <trkpt lat="45.49016" lon="6.71236">
        <ele>2357.9</ele>
        <time>2012-03-11T11:51:34Z</time>
      </trkpt>
      <trkpt lat="45.49018" lon="6.71263">
        <ele>2367.3</ele>
        <time>2012-03-11T11:51:39.001Z</time>
      </trkpt>
      <trkpt lat="45.49023" lon="6.71288">
        <ele>2378.8</ele>
        <time>2012-03-11T11:51:44Z</time>
      </trkpt>
      <trkpt lat="45.49026" lon="6.71316">
        <ele>2390.3</ele>
        <time>2012-03-11T11:51:49Z</time>
      </trkpt>
      <trkpt lat="45.49029" lon="6.71344">
        <ele>2400.6</ele>
        <time>2012-03-11T11:51:54Z</time>
      </trkpt>
      <trkpt lat="45.49033" lon="6.71371">
        <ele>2411.4</ele>
        <time>2012-03-11T11:51:58.998Z</time>
      </trkpt>
      <trkpt lat="45.49036" lon="6.71398">
        <ele>2419.8</ele>
        <time>2012-03-11T11:52:04Z</time>
      </trkpt>
      <trkpt lat="45.49041" lon="6.71425">
        <ele>2427.1</ele>
        <time>2012-03-11T11:52:09.001Z</time>
      </trkpt>
      <trkpt lat="45.49043" lon="6.71455">
        <ele>2435.6</ele>
        <time>2012-03-11T11:52:13.998Z</time>
      </trkpt>
      <trkpt lat="45.49045" lon="6.7149">
        <ele>2441.2</ele>
        <time>2012-03-11T11:52:19Z</time>
      </trkpt>
      <trkpt lat="45.4905" lon="6.71521">
        <ele>2441</ele>
        <time>2012-03-11T11:52:24Z</time>
      </trkpt>
      <trkpt lat="45.49055" lon="6.71549">
        <ele>2435.9</ele>
        <time>2012-03-11T11:52:29Z</time>
      </trkpt>
      <trkpt lat="45.49062" lon="6.71576">
        <ele>2429.1</ele>
        <time>2012-03-11T11:52:34.001Z</time>
      </trkpt>
      <trkpt lat="45.49067" lon="6.71603">
        <ele>2424.2</ele>
        <time>2012-03-11T11:52:39Z</time>
      </trkpt>
      <trkpt lat="45.49071" lon="6.71629">
        <ele>2420.5</ele>
        <time>2012-03-11T11:52:43.998Z</time>
      </trkpt>
      <trkpt lat="45.49075" lon="6.71656">
        <ele>2417.1</ele>
        <time>2012-03-11T11:52:49.002Z</time>
      </trkpt>
      <trkpt lat="45.4908" lon="6.71681">
        <ele>2414.3</ele>
        <time>2012-03-11T11:52:54Z</time>
      </trkpt>
      <trkpt lat="45.49086" lon="6.71706">
        <ele>2412.3</ele>
        <time>2012-03-11T11:52:59Z</time>
      </trkpt>
      <trkpt lat="45.49092" lon="6.71734">
        <ele>2410.9</ele>
        <time>2012-03-11T11:53:04.001Z</time>
      </trkpt>
      <trkpt lat="45.49098" lon="6.7176">
        <ele>2410.5</ele>
        <time>2012-03-11T11:53:08.998Z</time>
      </trkpt>
      <trkpt lat="45.49103" lon="6.71786">
        <ele>2410.3</ele>
        <time>2012-03-11T11:53:13.995Z</time>
      </trkpt>
      <trkpt lat="45.49106" lon="6.7181">
        <ele>2412.2</ele>
        <time>2012-03-11T11:53:18.997Z</time>
      </trkpt>
      <trkpt lat="45.49109" lon="6.71838">
        <ele>2416.1</ele>
        <time>2012-03-11T11:53:24Z</time>
      </trkpt>
      <trkpt lat="45.49114" lon="6.71863">
        <ele>2420</ele>
        <time>2012-03-11T11:53:28.998Z</time>
      </trkpt>
      <trkpt lat="45.49119" lon="6.71889">
        <ele>2425.3</ele>
        <time>2012-03-11T11:53:34Z</time>
      </trkpt>
      <trkpt lat="45.49122" lon="6.71915">
        <ele>2432</ele>
        <time>2012-03-11T11:53:39Z</time>
      </trkpt>
      <trkpt lat="45.49128" lon="6.71942">
        <ele>2440.1</ele>
        <time>2012-03-11T11:53:44Z</time>
      </trkpt>
      <trkpt lat="45.49132" lon="6.71967">
        <ele>2449.3</ele>
        <time>2012-03-11T11:53:49.001Z</time>
      </trkpt>
      <trkpt lat="45.49132" lon="6.71998">
        <ele>2459</ele>
        <time>2012-03-11T11:53:54Z</time>
      </trkpt>
      <trkpt lat="45.49136" lon="6.72026">
        <ele>2464.8</ele>
        <time>2012-03-11T11:53:58.998Z</time>
      </trkpt>
      <trkpt lat="45.49141" lon="6.72055">
        <ele>2468.6</ele>
        <time>2012-03-11T11:54:03.998Z</time>
      </trkpt>
      <trkpt lat="45.49146" lon="6.72087">
        <ele>2472.3</ele>
        <time>2012-03-11T11:54:09Z</time>
      </trkpt>
      <trkpt lat="45.49151" lon="6.72119">
        <ele>2476.1</ele>
        <time>2012-03-11T11:54:14.001Z</time>
      </trkpt>
      <trkpt lat="45.49156" lon="6.72148">
        <ele>2477.1</ele>
        <time>2012-03-11T11:54:18.998Z</time>
      </trkpt>
      <trkpt lat="45.4916" lon="6.72177">
        <ele>2477.3</ele>
        <time>2012-03-11T11:54:24.001Z</time>
      </trkpt>
      <trkpt lat="45.49164" lon="6.72203">
        <ele>2478</ele>
        <time>2012-03-11T11:54:28.998Z</time>
      </trkpt>
      <trkpt lat="45.49171" lon="6.72233">
        <ele>2479.1</ele>
        <time>2012-03-11T11:54:34.004Z</time>
      </trkpt>
      <trkpt lat="45.49177" lon="6.72261">
        <ele>2481</ele>
        <time>2012-03-11T11:54:39Z</time>
      </trkpt>
      <trkpt lat="45.49182" lon="6.72292">
        <ele>2485</ele>
        <time>2012-03-11T11:54:44Z</time>
      </trkpt>
      <trkpt lat="45.49187" lon="6.7232">
        <ele>2489.1</ele>
        <time>2012-03-11T11:54:49.001Z</time>
      </trkpt>
      <trkpt lat="45.49191" lon="6.72341">
        <ele>2494.9</ele>
        <time>2012-03-11T11:54:54Z</time>
      </trkpt>
      <trkpt lat="45.49193" lon="6.72361">
        <ele>2498.5</ele>
        <time>2012-03-11T11:54:59.001Z</time>
      </trkpt>
      <trkpt lat="45.49196" lon="6.72384">
        <ele>2499.3</ele>
        <time>2012-03-11T11:55:04.001Z</time>
      </trkpt>
      <trkpt lat="45.492" lon="6.72411">
        <ele>2499.7</ele>
        <time>2012-03-11T11:55:09.001Z</time>
      </trkpt>
      <trkpt lat="45.49204" lon="6.72437">
        <ele>2499.5</ele>
        <time>2012-03-11T11:55:14Z</time>
      </trkpt>
      <trkpt lat="45.49209" lon="6.72465">
        <ele>2501.3</ele>
        <time>2012-03-11T11:55:19Z</time>
      </trkpt>
      <trkpt lat="45.49213" lon="6.72489">
        <ele>2503.8</ele>
        <time>2012-03-11T11:55:24Z</time>
      </trkpt>
      <trkpt lat="45.49217" lon="6.72518">
        <ele>2506.7</ele>
        <time>2012-03-11T11:55:28.998Z</time>
      </trkpt>
      <trkpt lat="45.49221" lon="6.72547">
        <ele>2509.8</ele>
        <time>2012-03-11T11:55:33.998Z</time>
      </trkpt>
      <trkpt lat="45.49225" lon="6.72575">
        <ele>2512.9</ele>
        <time>2012-03-11T11:55:39Z</time>
      </trkpt>
      <trkpt lat="45.4923" lon="6.72603">
        <ele>2515.4</ele>
        <time>2012-03-11T11:55:44.001Z</time>
      </trkpt>
      <trkpt lat="45.49236" lon="6.72632">
        <ele>2517.2</ele>
        <time>2012-03-11T11:55:49Z</time>
      </trkpt>
      <trkpt lat="45.49242" lon="6.72661">
        <ele>2520.9</ele>
        <time>2012-03-11T11:55:54.001Z</time>
      </trkpt>
      <trkpt lat="45.49248" lon="6.72689">
        <ele>2525.6</ele>
        <time>2012-03-11T11:55:59Z</time>
      </trkpt>
      <trkpt lat="45.49254" lon="6.72717">
        <ele>2530.4</ele>
        <time>2012-03-11T11:56:03.998Z</time>
      </trkpt>
      <trkpt lat="45.49259" lon="6.72742">
        <ele>2535.5</ele>
        <time>2012-03-11T11:56:09.001Z</time>
      </trkpt>
      <trkpt lat="45.49264" lon="6.7277">
        <ele>2543.2</ele>
        <time>2012-03-11T11:56:14.001Z</time>
      </trkpt>
      <trkpt lat="45.49269" lon="6.72801">
        <ele>2549.6</ele>
        <time>2012-03-11T11:56:18.997Z</time>
      </trkpt>
      <trkpt lat="45.49274" lon="6.7283">
        <ele>2554.9</ele>
        <time>2012-03-11T11:56:23.998Z</time>
      </trkpt>
      <trkpt lat="45.49278" lon="6.72859">
        <ele>2558.8</ele>
        <time>2012-03-11T11:56:28.998Z</time>
      </trkpt>
      <trkpt lat="45.49283" lon="6.72888">
        <ele>2561.8</ele>
        <time>2012-03-11T11:56:33.998Z</time>
      </trkpt>
      <trkpt lat="45.49289" lon="6.72917">
        <ele>2564.4</ele>
        <time>2012-03-11T11:56:39.001Z</time>
      </trkpt>
      <trkpt lat="45.49295" lon="6.72946">
        <ele>2567.8</ele>
        <time>2012-03-11T11:56:44.002Z</time>
      </trkpt>
      <trkpt lat="45.49298" lon="6.72975">
        <ele>2570.5</ele>
        <time>2012-03-11T11:56:48.998Z</time>
      </trkpt>
      <trkpt lat="45.49303" lon="6.73003">
        <ele>2570.7</ele>
        <time>2012-03-11T11:56:53.998Z</time>
      </trkpt>
      <trkpt lat="45.49308" lon="6.73029">
        <ele>2570.9</ele>
        <time>2012-03-11T11:56:59Z</time>
      </trkpt>
      <trkpt lat="45.49311" lon="6.73055">
        <ele>2572.4</ele>
        <time>2012-03-11T11:57:04.001Z</time>
      </trkpt>
      <trkpt lat="45.49316" lon="6.73081">
        <ele>2575.4</ele>
        <time>2012-03-11T11:57:08.998Z</time>
      </trkpt>
      <trkpt lat="45.49322" lon="6.73105">
        <ele>2579.2</ele>
        <time>2012-03-11T11:57:14.001Z</time>
      </trkpt>
      <trkpt lat="45.49328" lon="6.7313">
        <ele>2584</ele>
        <time>2012-03-11T11:57:18.998Z</time>
      </trkpt>
      <trkpt lat="45.49333" lon="6.73154">
        <ele>2590</ele>
        <time>2012-03-11T11:57:24.001Z</time>
      </trkpt>
      <trkpt lat="45.49339" lon="6.73179">
        <ele>2598</ele>
        <time>2012-03-11T11:57:29Z</time>
      </trkpt>
      <trkpt lat="45.49343" lon="6.73204">
        <ele>2608.7</ele>
        <time>2012-03-11T11:57:34.001Z</time>
      </trkpt>
      <trkpt lat="45.49346" lon="6.7323">
        <ele>2622</ele>
        <time>2012-03-11T11:57:38.998Z</time>
      </trkpt>
      <trkpt lat="45.49349" lon="6.73256">
        <ele>2634.7</ele>
        <time>2012-03-11T11:57:44.002Z</time>
      </trkpt>
      <trkpt lat="45.49352" lon="6.73281">
        <ele>2647.7</ele>
        <time>2012-03-11T11:57:49Z</time>
      </trkpt>
      <trkpt lat="45.49354" lon="6.73309">
        <ele>2661.1</ele>
        <time>2012-03-11T11:57:53.998Z</time>
      </trkpt>
      <trkpt lat="45.49356" lon="6.73335">
        <ele>2674.9</ele>
        <time>2012-03-11T11:57:58.998Z</time>
      </trkpt>
      <trkpt lat="45.4936" lon="6.73359">
        <ele>2686.8</ele>
        <time>2012-03-11T11:58:04.002Z</time>
      </trkpt>
      <trkpt lat="45.49366" lon="6.73383">
        <ele>2697.2</ele>
        <time>2012-03-11T11:58:08.998Z</time>
      </trkpt>
      <trkpt lat="45.4937" lon="6.73408">
        <ele>2710.2</ele>
        <time>2012-03-11T11:58:14.001Z</time>
      </trkpt>
      <trkpt lat="45.49372" lon="6.73438">
        <ele>2723.1</ele>
        <time>2012-03-11T11:58:19.001Z</time>
      </trkpt>
      <trkpt lat="45.49376" lon="6.73448">
        <ele>2731.1</ele>
        <time>2012-03-11T11:58:24Z</time>
      </trkpt>
      <trkpt lat="45.49378" lon="6.73462">
        <ele>2731.9</ele>
        <time>2012-03-11T11:58:29Z</time>
      </trkpt>
      <trkpt lat="45.49387" lon="6.73465">
        <ele>2729.1</ele>
        <time>2012-03-11T11:58:34Z</time>
      </trkpt>
      <trkpt lat="45.49392" lon="6.73475">
        <ele>2726.1</ele>
        <time>2012-03-11T11:58:39.001Z</time>
      </trkpt>
      <trkpt lat="45.49399" lon="6.73478">
        <ele>2724.3</ele>
        <time>2012-03-11T11:59:49.004Z</time>
      </trkpt>
      <trkpt lat="45.49414" lon="6.73482">
        <ele>2723.8</ele>
        <time>2012-03-11T11:59:54.001Z</time>
      </trkpt>
      <trkpt lat="45.49431" lon="6.73471">
        <ele>2722.6</ele>
        <time>2012-03-11T11:59:59Z</time>
      </trkpt>
      <trkpt lat="45.49449" lon="6.73454">
        <ele>2720.1</ele>
        <time>2012-03-11T12:00:04.001Z</time>
      </trkpt>
      <trkpt lat="45.49469" lon="6.73431">
        <ele>2717.2</ele>
        <time>2012-03-11T12:00:09.001Z</time>
      </trkpt>
      <trkpt lat="45.49489" lon="6.73414">
        <ele>2712.5</ele>
        <time>2012-03-11T12:00:13.998Z</time>
      </trkpt>
      <trkpt lat="45.4951" lon="6.73401">
        <ele>2705.8</ele>
        <time>2012-03-11T12:00:19Z</time>
      </trkpt>
      <trkpt lat="45.4952" lon="6.734">
        <ele>2700.1</ele>
        <time>2012-03-11T12:00:24.002Z</time>
      </trkpt>
      <trkpt lat="45.4952" lon="6.73398">
        <ele>2679.8</ele>
        <time>2012-03-11T12:00:49.001Z</time>
      </trkpt>
      <trkpt lat="45.49532" lon="6.73387">
        <ele>2679.3</ele>
        <time>2012-03-11T12:00:54.001Z</time>
      </trkpt>
      <trkpt lat="45.49557" lon="6.73391">
        <ele>2679.3</ele>
        <time>2012-03-11T12:00:58.998Z</time>
      </trkpt>
      <trkpt lat="45.49581" lon="6.73402">
        <ele>2676.6</ele>
        <time>2012-03-11T12:01:04Z</time>
      </trkpt>
      <trkpt lat="45.49606" lon="6.73409">
        <ele>2671</ele>
        <time>2012-03-11T12:01:08.997Z</time>
      </trkpt>
      <trkpt lat="45.49626" lon="6.73399">
        <ele>2664.5</ele>
        <time>2012-03-11T12:01:13.998Z</time>
      </trkpt>
      <trkpt lat="45.49646" lon="6.73378">
        <ele>2656.5</ele>
        <time>2012-03-11T12:01:18.998Z</time>
      </trkpt>
      <trkpt lat="45.49672" lon="6.73348">
        <ele>2647.4</ele>
        <time>2012-03-11T12:01:24Z</time>
      </trkpt>
      <trkpt lat="45.49694" lon="6.73318">
        <ele>2640.5</ele>
        <time>2012-03-11T12:01:29Z</time>
      </trkpt>
      <trkpt lat="45.49708" lon="6.73281">
        <ele>2634.9</ele>
        <time>2012-03-11T12:01:34Z</time>
      </trkpt>
      <trkpt lat="45.49712" lon="6.73233">
        <ele>2628.9</ele>
        <time>2012-03-11T12:01:38.998Z</time>
      </trkpt>
      <trkpt lat="45.49718" lon="6.7319">
        <ele>2623.4</ele>
        <time>2012-03-11T12:01:44.001Z</time>
      </trkpt>
      <trkpt lat="45.49719" lon="6.7315">
        <ele>2618.8</ele>
        <time>2012-03-11T12:01:48.998Z</time>
      </trkpt>
      <trkpt lat="45.49724" lon="6.73115">
        <ele>2616.2</ele>
        <time>2012-03-11T12:01:54.001Z</time>
      </trkpt>
      <trkpt lat="45.49734" lon="6.73096">
        <ele>2614</ele>
        <time>2012-03-11T12:01:59.001Z</time>
      </trkpt>
      <trkpt lat="45.4973" lon="6.73087">
        <ele>2615.1</ele>
        <time>2012-03-11T12:02:28.998Z</time>
      </trkpt>
      <trkpt lat="45.49731" lon="6.7307">
        <ele>2616.5</ele>
        <time>2012-03-11T12:02:33.998Z</time>
      </trkpt>
      <trkpt lat="45.4974" lon="6.73047">
        <ele>2615.9</ele>
        <time>2012-03-11T12:02:39Z</time>
      </trkpt>
      <trkpt lat="45.49769" lon="6.7303">
        <ele>2611</ele>
        <time>2012-03-11T12:02:44.001Z</time>
      </trkpt>
      <trkpt lat="45.49804" lon="6.73004">
        <ele>2599.8</ele>
        <time>2012-03-11T12:02:49.001Z</time>
      </trkpt>
      <trkpt lat="45.49854" lon="6.72967">
        <ele>2586.7</ele>
        <time>2012-03-11T12:02:53.995Z</time>
      </trkpt>
      <trkpt lat="45.49905" lon="6.72935">
        <ele>2572.5</ele>
        <time>2012-03-11T12:02:58.995Z</time>
      </trkpt>
      <trkpt lat="45.49949" lon="6.7292">
        <ele>2559.4</ele>
        <time>2012-03-11T12:03:03.998Z</time>
      </trkpt>
      <trkpt lat="45.49974" lon="6.72897">
        <ele>2548.5</ele>
        <time>2012-03-11T12:03:09Z</time>
      </trkpt>
      <trkpt lat="45.50001" lon="6.72857">
        <ele>2536.7</ele>
        <time>2012-03-11T12:03:14.001Z</time>
      </trkpt>
      <trkpt lat="45.50046" lon="6.72812">
        <ele>2521.8</ele>
        <time>2012-03-11T12:03:18.998Z</time>
      </trkpt>
      <trkpt lat="45.50118" lon="6.728">
        <ele>2500.1</ele>
        <time>2012-03-11T12:03:23.998Z</time>
      </trkpt>
      <trkpt lat="45.50183" lon="6.72787">
        <ele>2476.2</ele>
        <time>2012-03-11T12:03:28.998Z</time>
      </trkpt>
      <trkpt lat="45.50231" lon="6.72773">
        <ele>2455.4</ele>
        <time>2012-03-11T12:03:34.004Z</time>
      </trkpt>
      <trkpt lat="45.50252" lon="6.72768">
        <ele>2437.1</ele>
        <time>2012-03-11T12:03:39.001Z</time>
      </trkpt>
      <trkpt lat="45.50232" lon="6.72769">
        <ele>2469.9</ele>
        <time>2012-03-11T12:04:39Z</time>
      </trkpt>
      <trkpt lat="45.50241" lon="6.72771">
        <ele>2470.9</ele>
        <time>2012-03-11T12:04:53.998Z</time>
      </trkpt>
      <trkpt lat="45.5025" lon="6.72764">
        <ele>2470</ele>
        <time>2012-03-11T12:04:58.998Z</time>
      </trkpt>
      <trkpt lat="45.50268" lon="6.72754">
        <ele>2468.8</ele>
        <time>2012-03-11T12:05:04.001Z</time>
      </trkpt>
      <trkpt lat="45.50302" lon="6.72739">
        <ele>2467.5</ele>
        <time>2012-03-11T12:05:09.001Z</time>
      </trkpt>
      <trkpt lat="45.50325" lon="6.72739">
        <ele>2464.8</ele>
        <time>2012-03-11T12:05:14Z</time>
      </trkpt>
      <trkpt lat="45.50343" lon="6.72719">
        <ele>2456.2</ele>
        <time>2012-03-11T12:05:19Z</time>
      </trkpt>
      <trkpt lat="45.50346" lon="6.72697">
        <ele>2446.1</ele>
        <time>2012-03-11T12:05:24Z</time>
      </trkpt>
      <trkpt lat="45.50351" lon="6.72672">
        <ele>2435.5</ele>
        <time>2012-03-11T12:05:29.001Z</time>
      </trkpt>
      <trkpt lat="45.50366" lon="6.72642">
        <ele>2425.8</ele>
        <time>2012-03-11T12:05:33.998Z</time>
      </trkpt>
      <trkpt lat="45.50391" lon="6.72621">
        <ele>2416.4</ele>
        <time>2012-03-11T12:05:39.002Z</time>
      </trkpt>
      <trkpt lat="45.5043" lon="6.72608">
        <ele>2406.3</ele>
        <time>2012-03-11T12:05:44Z</time>
      </trkpt>
      <trkpt lat="45.50465" lon="6.72587">
        <ele>2394.5</ele>
        <time>2012-03-11T12:05:49.001Z</time>
      </trkpt>
      <trkpt lat="45.50497" lon="6.72572">
        <ele>2382.5</ele>
        <time>2012-03-11T12:05:53.998Z</time>
      </trkpt>
      <trkpt lat="45.50528" lon="6.72574">
        <ele>2370.2</ele>
        <time>2012-03-11T12:05:58.998Z</time>
      </trkpt>
      <trkpt lat="45.50559" lon="6.72588">
        <ele>2355.7</ele>
        <time>2012-03-11T12:06:03.998Z</time>
      </trkpt>
      <trkpt lat="45.50603" lon="6.72588">
        <ele>2339.6</ele>
        <time>2012-03-11T12:06:08.998Z</time>
      </trkpt>
      <trkpt lat="45.50649" lon="6.72584">
        <ele>2321.2</ele>
        <time>2012-03-11T12:06:13.998Z</time>
      </trkpt>
      <trkpt lat="45.50695" lon="6.72581">
        <ele>2302.3</ele>
        <time>2012-03-11T12:06:19.001Z</time>
      </trkpt>
      <trkpt lat="45.50734" lon="6.72575">
        <ele>2280.9</ele>
        <time>2012-03-11T12:06:24Z</time>
      </trkpt>
      <trkpt lat="45.50778" lon="6.72572">
        <ele>2256.9</ele>
        <time>2012-03-11T12:06:28.998Z</time>
      </trkpt>
      <trkpt lat="45.50818" lon="6.72573">
        <ele>2238</ele>
        <time>2012-03-11T12:06:34.004Z</time>
      </trkpt>
      <trkpt lat="45.50855" lon="6.72578">
        <ele>2226.4</ele>
        <time>2012-03-11T12:06:39Z</time>
      </trkpt>
      <trkpt lat="45.50886" lon="6.72568">
        <ele>2218.5</ele>
        <time>2012-03-11T12:06:44.002Z</time>
      </trkpt>
      <trkpt lat="45.50922" lon="6.72561">
        <ele>2210.7</ele>
        <time>2012-03-11T12:06:49.001Z</time>
      </trkpt>
      <trkpt lat="45.50957" lon="6.72556">
        <ele>2202.2</ele>
        <time>2012-03-11T12:06:53.998Z</time>
      </trkpt>
      <trkpt lat="45.50992" lon="6.72548">
        <ele>2192.5</ele>
        <time>2012-03-11T12:06:58.998Z</time>
      </trkpt>
      <trkpt lat="45.51026" lon="6.72543">
        <ele>2183</ele>
        <time>2012-03-11T12:07:04.004Z</time>
      </trkpt>
      <trkpt lat="45.51052" lon="6.72529">
        <ele>2176</ele>
        <time>2012-03-11T12:07:09.001Z</time>
      </trkpt>
      <trkpt lat="45.51066" lon="6.72516">
        <ele>2170</ele>
        <time>2012-03-11T12:07:14Z</time>
      </trkpt>
      <trkpt lat="45.51066" lon="6.72506">
        <ele>2167.4</ele>
        <time>2012-03-11T12:07:18.998Z</time>
      </trkpt>
      <trkpt lat="45.51058" lon="6.72496">
        <ele>2181.9</ele>
        <time>2012-03-11T12:07:33.997Z</time>
      </trkpt>
      <trkpt lat="45.51064" lon="6.725">
        <ele>2186.5</ele>
        <time>2012-03-11T12:07:39Z</time>
      </trkpt>
      <trkpt lat="45.51071" lon="6.72502">
        <ele>2189.3</ele>
        <time>2012-03-11T12:07:43.998Z</time>
      </trkpt>
      <trkpt lat="45.51059" lon="6.72507">
        <ele>2195</ele>
        <time>2012-03-11T12:08:23.998Z</time>
      </trkpt>
      <trkpt lat="45.51052" lon="6.72513">
        <ele>2205</ele>
        <time>2012-03-11T12:08:43.997Z</time>
      </trkpt>
      <trkpt lat="45.51045" lon="6.72518">
        <ele>2206.6</ele>
        <time>2012-03-11T12:08:54.001Z</time>
      </trkpt>
      <trkpt lat="45.51042" lon="6.7252">
        <ele>2204.7</ele>
        <time>2012-03-11T12:08:58.998Z</time>
      </trkpt>
      <trkpt lat="45.51037" lon="6.72521">
        <ele>2203.8</ele>
        <time>2012-03-11T12:09:03.998Z</time>
      </trkpt>
      <trkpt lat="45.51031" lon="6.72525">
        <ele>2203.3</ele>
        <time>2012-03-11T12:09:08.998Z</time>
      </trkpt>
      <trkpt lat="45.51024" lon="6.7253">
        <ele>2205</ele>
        <time>2012-03-11T12:09:14Z</time>
      </trkpt>
      <trkpt lat="45.51016" lon="6.72533">
        <ele>2206.1</ele>
        <time>2012-03-11T12:09:18.998Z</time>
      </trkpt>
      <trkpt lat="45.51008" lon="6.72535">
        <ele>2206.5</ele>
        <time>2012-03-11T12:09:24Z</time>
      </trkpt>
      <trkpt lat="45.51" lon="6.72538">
        <ele>2206.3</ele>
        <time>2012-03-11T12:09:29Z</time>
      </trkpt>
      <trkpt lat="45.50992" lon="6.72542">
        <ele>2208.1</ele>
        <time>2012-03-11T12:09:34.004Z</time>
      </trkpt>
      <trkpt lat="45.50984" lon="6.72546">
        <ele>2211</ele>
        <time>2012-03-11T12:09:38.998Z</time>
      </trkpt>
      <trkpt lat="45.50976" lon="6.7255">
        <ele>2215.2</ele>
        <time>2012-03-11T12:09:44.001Z</time>
      </trkpt>
      <trkpt lat="45.5097" lon="6.72552">
        <ele>2215.9</ele>
        <time>2012-03-11T12:09:49Z</time>
      </trkpt>
      <trkpt lat="45.50963" lon="6.72555">
        <ele>2216.7</ele>
        <time>2012-03-11T12:09:54.001Z</time>
      </trkpt>
      <trkpt lat="45.50955" lon="6.72558">
        <ele>2219.4</ele>
        <time>2012-03-11T12:09:59Z</time>
      </trkpt>
      <trkpt lat="45.50947" lon="6.72564">
        <ele>2223.3</ele>
        <time>2012-03-11T12:10:03.998Z</time>
      </trkpt>
      <trkpt lat="45.50939" lon="6.7257">
        <ele>2228.4</ele>
        <time>2012-03-11T12:10:08.998Z</time>
      </trkpt>
      <trkpt lat="45.50928" lon="6.72577">
        <ele>2232.9</ele>
        <time>2012-03-11T12:10:13.998Z</time>
      </trkpt>
      <trkpt lat="45.50919" lon="6.72582">
        <ele>2236.5</ele>
        <time>2012-03-11T12:10:19.001Z</time>
      </trkpt>
      <trkpt lat="45.50909" lon="6.72588">
        <ele>2240.1</ele>
        <time>2012-03-11T12:10:23.998Z</time>
      </trkpt>
      <trkpt lat="45.509" lon="6.72595">
        <ele>2244.7</ele>
        <time>2012-03-11T12:10:29.001Z</time>
      </trkpt>
      <trkpt lat="45.50891" lon="6.726">
        <ele>2248.6</ele>
        <time>2012-03-11T12:10:34.001Z</time>
      </trkpt>
      <trkpt lat="45.50881" lon="6.72605">
        <ele>2251.9</ele>
        <time>2012-03-11T12:10:38.998Z</time>
      </trkpt>
      <trkpt lat="45.50873" lon="6.72609">
        <ele>2256</ele>
        <time>2012-03-11T12:10:44Z</time>
      </trkpt>
      <trkpt lat="45.50864" lon="6.72615">
        <ele>2261.1</ele>
        <time>2012-03-11T12:10:49Z</time>
      </trkpt>
      <trkpt lat="45.50856" lon="6.7262">
        <ele>2265.4</ele>
        <time>2012-03-11T12:10:54Z</time>
      </trkpt>
      <trkpt lat="45.50846" lon="6.72626">
        <ele>2267.7</ele>
        <time>2012-03-11T12:10:58.998Z</time>
      </trkpt>
      <trkpt lat="45.50837" lon="6.72632">
        <ele>2270.5</ele>
        <time>2012-03-11T12:11:04Z</time>
      </trkpt>
      <trkpt lat="45.50828" lon="6.72639">
        <ele>2272.6</ele>
        <time>2012-03-11T12:11:09Z</time>
      </trkpt>
      <trkpt lat="45.50819" lon="6.72644">
        <ele>2273.8</ele>
        <time>2012-03-11T12:11:14Z</time>
      </trkpt>
      <trkpt lat="45.50811" lon="6.72649">
        <ele>2276.5</ele>
        <time>2012-03-11T12:11:19Z</time>
      </trkpt>
      <trkpt lat="45.50802" lon="6.72655">
        <ele>2278.4</ele>
        <time>2012-03-11T12:11:23.998Z</time>
      </trkpt>
      <trkpt lat="45.50793" lon="6.72662">
        <ele>2281.9</ele>
        <time>2012-03-11T12:11:29Z</time>
      </trkpt>
      <trkpt lat="45.50784" lon="6.72667">
        <ele>2285</ele>
        <time>2012-03-11T12:11:34.004Z</time>
      </trkpt>
      <trkpt lat="45.50775" lon="6.72672">
        <ele>2286.7</ele>
        <time>2012-03-11T12:11:39Z</time>
      </trkpt>
      <trkpt lat="45.50766" lon="6.72676">
        <ele>2286.6</ele>
        <time>2012-03-11T12:11:43.998Z</time>
      </trkpt>
      <trkpt lat="45.50758" lon="6.7268">
        <ele>2286.8</ele>
        <time>2012-03-11T12:11:49Z</time>
      </trkpt>
      <trkpt lat="45.50751" lon="6.72683">
        <ele>2286.5</ele>
        <time>2012-03-11T12:11:53.998Z</time>
      </trkpt>
      <trkpt lat="45.50745" lon="6.72685">
        <ele>2287.8</ele>
        <time>2012-03-11T12:11:59Z</time>
      </trkpt>
      <trkpt lat="45.5074" lon="6.72687">
        <ele>2288.6</ele>
        <time>2012-03-11T12:12:03.998Z</time>
      </trkpt>
      <trkpt lat="45.50735" lon="6.72689">
        <ele>2288.8</ele>
        <time>2012-03-11T12:12:09Z</time>
      </trkpt>
      <trkpt lat="45.50729" lon="6.72691">
        <ele>2288.6</ele>
        <time>2012-03-11T12:12:14Z</time>
      </trkpt>
      <trkpt lat="45.50719" lon="6.72696">
        <ele>2289.6</ele>
        <time>2012-03-11T12:12:18.997Z</time>
      </trkpt>
      <trkpt lat="45.5071" lon="6.72701">
        <ele>2289.7</ele>
        <time>2012-03-11T12:12:24.001Z</time>
      </trkpt>
      <trkpt lat="45.50701" lon="6.72704">
        <ele>2289.7</ele>
        <time>2012-03-11T12:12:29.001Z</time>
      </trkpt>
      <trkpt lat="45.50693" lon="6.72711">
        <ele>2291.9</ele>
        <time>2012-03-11T12:12:34.001Z</time>
      </trkpt>
      <trkpt lat="45.50683" lon="6.72716">
        <ele>2294.5</ele>
        <time>2012-03-11T12:12:39Z</time>
      </trkpt>
      <trkpt lat="45.50674" lon="6.72721">
        <ele>2294.9</ele>
        <time>2012-03-11T12:12:44.001Z</time>
      </trkpt>
      <trkpt lat="45.50663" lon="6.72725">
        <ele>2295.8</ele>
        <time>2012-03-11T12:12:49Z</time>
      </trkpt>
      <trkpt lat="45.50653" lon="6.7273">
        <ele>2297.2</ele>
        <time>2012-03-11T12:12:54Z</time>
      </trkpt>
      <trkpt lat="45.50645" lon="6.72735">
        <ele>2298.3</ele>
        <time>2012-03-11T12:12:58.998Z</time>
      </trkpt>
      <trkpt lat="45.50637" lon="6.72739">
        <ele>2299.7</ele>
        <time>2012-03-11T12:13:04Z</time>
      </trkpt>
      <trkpt lat="45.50628" lon="6.72743">
        <ele>2300.5</ele>
        <time>2012-03-11T12:13:08.997Z</time>
      </trkpt>
      <trkpt lat="45.5062" lon="6.72748">
        <ele>2302</ele>
        <time>2012-03-11T12:13:14Z</time>
      </trkpt>
      <trkpt lat="45.50611" lon="6.72751">
        <ele>2302.7</ele>
        <time>2012-03-11T12:13:18.998Z</time>
      </trkpt>
      <trkpt lat="45.50603" lon="6.72755">
        <ele>2303.2</ele>
        <time>2012-03-11T12:13:23.998Z</time>
      </trkpt>
      <trkpt lat="45.50594" lon="6.72761">
        <ele>2305.2</ele>
        <time>2012-03-11T12:13:29Z</time>
      </trkpt>
      <trkpt lat="45.50586" lon="6.72766">
        <ele>2307.3</ele>
        <time>2012-03-11T12:13:33.998Z</time>
      </trkpt>
      <trkpt lat="45.50578" lon="6.72771">
        <ele>2309.9</ele>
        <time>2012-03-11T12:13:39.001Z</time>
      </trkpt>
      <trkpt lat="45.5057" lon="6.72777">
        <ele>2313.6</ele>
        <time>2012-03-11T12:13:44Z</time>
      </trkpt>
      <trkpt lat="45.50561" lon="6.72781">
        <ele>2318.1</ele>
        <time>2012-03-11T12:13:49Z</time>
      </trkpt>
      <trkpt lat="45.50552" lon="6.72786">
        <ele>2325.1</ele>
        <time>2012-03-11T12:13:54Z</time>
      </trkpt>
      <trkpt lat="45.50543" lon="6.72791">
        <ele>2335.5</ele>
        <time>2012-03-11T12:13:59Z</time>
      </trkpt>
      <trkpt lat="45.50533" lon="6.72798">
        <ele>2344.7</ele>
        <time>2012-03-11T12:14:04.001Z</time>
      </trkpt>
      <trkpt lat="45.50524" lon="6.72806">
        <ele>2350.9</ele>
        <time>2012-03-11T12:14:08.998Z</time>
      </trkpt>
      <trkpt lat="45.50515" lon="6.72813">
        <ele>2356.4</ele>
        <time>2012-03-11T12:14:13.998Z</time>
      </trkpt>
      <trkpt lat="45.50506" lon="6.72822">
        <ele>2365.1</ele>
        <time>2012-03-11T12:14:19Z</time>
      </trkpt>
      <trkpt lat="45.50496" lon="6.7283">
        <ele>2373.5</ele>
        <time>2012-03-11T12:14:24.001Z</time>
      </trkpt>
      <trkpt lat="45.50487" lon="6.72837">
        <ele>2380.7</ele>
        <time>2012-03-11T12:14:28.998Z</time>
      </trkpt>
      <trkpt lat="45.50478" lon="6.72843">
        <ele>2386.4</ele>
        <time>2012-03-11T12:14:34.001Z</time>
      </trkpt>
      <trkpt lat="45.5047" lon="6.72848">
        <ele>2389.1</ele>
        <time>2012-03-11T12:14:38.997Z</time>
      </trkpt>
      <trkpt lat="45.50462" lon="6.72853">
        <ele>2388.8</ele>
        <time>2012-03-11T12:14:44.001Z</time>
      </trkpt>
      <trkpt lat="45.50454" lon="6.72857">
        <ele>2392.1</ele>
        <time>2012-03-11T12:14:48.998Z</time>
      </trkpt>
      <trkpt lat="45.50445" lon="6.72862">
        <ele>2396.3</ele>
        <time>2012-03-11T12:14:53.998Z</time>
      </trkpt>
      <trkpt lat="45.50438" lon="6.72865">
        <ele>2399</ele>
        <time>2012-03-11T12:14:59Z</time>
      </trkpt>
      <trkpt lat="45.50429" lon="6.72868">
        <ele>2399.3</ele>
        <time>2012-03-11T12:15:03.998Z</time>
      </trkpt>
      <trkpt lat="45.5042" lon="6.72871">
        <ele>2399.5</ele>
        <time>2012-03-11T12:15:08.998Z</time>
      </trkpt>
      <trkpt lat="45.50411" lon="6.72876">
        <ele>2404.6</ele>
        <time>2012-03-11T12:15:14Z</time>
      </trkpt>
      <trkpt lat="45.50402" lon="6.72881">
        <ele>2416.7</ele>
        <time>2012-03-11T12:15:19Z</time>
      </trkpt>
      <trkpt lat="45.50392" lon="6.72887">
        <ele>2428.7</ele>
        <time>2012-03-11T12:15:24Z</time>
      </trkpt>
      <trkpt lat="45.50383" lon="6.72892">
        <ele>2438.8</ele>
        <time>2012-03-11T12:15:29Z</time>
      </trkpt>
      <trkpt lat="45.50373" lon="6.72898">
        <ele>2446.8</ele>
        <time>2012-03-11T12:15:34Z</time>
      </trkpt>
      <trkpt lat="45.50363" lon="6.72904">
        <ele>2452.8</ele>
        <time>2012-03-11T12:15:39Z</time>
      </trkpt>
      <trkpt lat="45.50354" lon="6.72909">
        <ele>2457.5</ele>
        <time>2012-03-11T12:15:44Z</time>
      </trkpt>
      <trkpt lat="45.50345" lon="6.72915">
        <ele>2461.7</ele>
        <time>2012-03-11T12:15:49Z</time>
      </trkpt>
      <trkpt lat="45.50335" lon="6.7292">
        <ele>2465.4</ele>
        <time>2012-03-11T12:15:54Z</time>
      </trkpt>
      <trkpt lat="45.50326" lon="6.72925">
        <ele>2469.4</ele>
        <time>2012-03-11T12:15:58.995Z</time>
      </trkpt>
      <trkpt lat="45.50316" lon="6.72932">
        <ele>2472.5</ele>
        <time>2012-03-11T12:16:04Z</time>
      </trkpt>
      <trkpt lat="45.50307" lon="6.72937">
        <ele>2475.2</ele>
        <time>2012-03-11T12:16:09.001Z</time>
      </trkpt>
      <trkpt lat="45.50298" lon="6.72942">
        <ele>2476.8</ele>
        <time>2012-03-11T12:16:14.002Z</time>
      </trkpt>
      <trkpt lat="45.50289" lon="6.72947">
        <ele>2478.1</ele>
        <time>2012-03-11T12:16:19.001Z</time>
      </trkpt>
      <trkpt lat="45.5028" lon="6.72952">
        <ele>2480.3</ele>
        <time>2012-03-11T12:16:24Z</time>
      </trkpt>
      <trkpt lat="45.50271" lon="6.72957">
        <ele>2482.9</ele>
        <time>2012-03-11T12:16:29.001Z</time>
      </trkpt>
      <trkpt lat="45.50262" lon="6.72963">
        <ele>2485.3</ele>
        <time>2012-03-11T12:16:34Z</time>
      </trkpt>
      <trkpt lat="45.50254" lon="6.72968">
        <ele>2487.4</ele>
        <time>2012-03-11T12:16:39Z</time>
      </trkpt>
      <trkpt lat="45.50245" lon="6.72973">
        <ele>2489.6</ele>
        <time>2012-03-11T12:16:43.998Z</time>
      </trkpt>
      <trkpt lat="45.50236" lon="6.72979">
        <ele>2492</ele>
        <time>2012-03-11T12:16:48.998Z</time>
      </trkpt>
      <trkpt lat="45.50227" lon="6.72985">
        <ele>2493.5</ele>
        <time>2012-03-11T12:16:54.002Z</time>
      </trkpt>
      <trkpt lat="45.50218" lon="6.7299">
        <ele>2495.1</ele>
        <time>2012-03-11T12:16:58.998Z</time>
      </trkpt>
      <trkpt lat="45.50209" lon="6.72995">
        <ele>2496.4</ele>
        <time>2012-03-11T12:17:04Z</time>
      </trkpt>
      <trkpt lat="45.502" lon="6.73">
        <ele>2497.7</ele>
        <time>2012-03-11T12:17:09Z</time>
      </trkpt>
      <trkpt lat="45.50192" lon="6.73004">
        <ele>2498.1</ele>
        <time>2012-03-11T12:17:13.998Z</time>
      </trkpt>
      <trkpt lat="45.50183" lon="6.73008">
        <ele>2498.4</ele>
        <time>2012-03-11T12:17:18.998Z</time>
      </trkpt>
      <trkpt lat="45.50175" lon="6.73013">
        <ele>2499.1</ele>
        <time>2012-03-11T12:17:23.995Z</time>
      </trkpt>
      <trkpt lat="45.50167" lon="6.73016">
        <ele>2499.5</ele>
        <time>2012-03-11T12:17:29.001Z</time>
      </trkpt>
      <trkpt lat="45.50158" lon="6.7302">
        <ele>2499.4</ele>
        <time>2012-03-11T12:17:34Z</time>
      </trkpt>
      <trkpt lat="45.5015" lon="6.73022">
        <ele>2499.7</ele>
        <time>2012-03-11T12:17:39.001Z</time>
      </trkpt>
      <trkpt lat="45.50142" lon="6.73026">
        <ele>2501.4</ele>
        <time>2012-03-11T12:17:43.998Z</time>
      </trkpt>
      <trkpt lat="45.50133" lon="6.73031">
        <ele>2503.3</ele>
        <time>2012-03-11T12:17:48.998Z</time>
      </trkpt>
      <trkpt lat="45.50124" lon="6.73036">
        <ele>2505.3</ele>
        <time>2012-03-11T12:17:53.998Z</time>
      </trkpt>
      <trkpt lat="45.50115" lon="6.73041">
        <ele>2507.7</ele>
        <time>2012-03-11T12:17:58.998Z</time>
      </trkpt>
      <trkpt lat="45.50105" lon="6.73045">
        <ele>2510.2</ele>
        <time>2012-03-11T12:18:04Z</time>
      </trkpt>
      <trkpt lat="45.50097" lon="6.73048">
        <ele>2511.3</ele>
        <time>2012-03-11T12:18:08.998Z</time>
      </trkpt>
      <trkpt lat="45.50089" lon="6.73052">
        <ele>2512.1</ele>
        <time>2012-03-11T12:18:14.004Z</time>
      </trkpt>
      <trkpt lat="45.50081" lon="6.73054">
        <ele>2513.1</ele>
        <time>2012-03-11T12:18:19.001Z</time>
      </trkpt>
      <trkpt lat="45.50073" lon="6.73058">
        <ele>2514.4</ele>
        <time>2012-03-11T12:18:23.998Z</time>
      </trkpt>
      <trkpt lat="45.50065" lon="6.73062">
        <ele>2515.8</ele>
        <time>2012-03-11T12:18:29Z</time>
      </trkpt>
      <trkpt lat="45.50057" lon="6.73067">
        <ele>2518.7</ele>
        <time>2012-03-11T12:18:34.001Z</time>
      </trkpt>
      <trkpt lat="45.50048" lon="6.73071">
        <ele>2521.1</ele>
        <time>2012-03-11T12:18:39.002Z</time>
      </trkpt>
      <trkpt lat="45.5004" lon="6.73075">
        <ele>2524.9</ele>
        <time>2012-03-11T12:18:44Z</time>
      </trkpt>
      <trkpt lat="45.50032" lon="6.73078">
        <ele>2529.1</ele>
        <time>2012-03-11T12:18:49.001Z</time>
      </trkpt>
      <trkpt lat="45.50023" lon="6.73083">
        <ele>2533.3</ele>
        <time>2012-03-11T12:18:54.001Z</time>
      </trkpt>
      <trkpt lat="45.50014" lon="6.73088">
        <ele>2537.6</ele>
        <time>2012-03-11T12:18:58.998Z</time>
      </trkpt>
      <trkpt lat="45.50005" lon="6.73093">
        <ele>2541.3</ele>
        <time>2012-03-11T12:19:04.001Z</time>
      </trkpt>
      <trkpt lat="45.49996" lon="6.73098">
        <ele>2545.1</ele>
        <time>2012-03-11T12:19:08.998Z</time>
      </trkpt>
      <trkpt lat="45.49987" lon="6.73106">
        <ele>2549.2</ele>
        <time>2012-03-11T12:19:13.998Z</time>
      </trkpt>
      <trkpt lat="45.49978" lon="6.73113">
        <ele>2552.4</ele>
        <time>2012-03-11T12:19:19.004Z</time>
      </trkpt>
      <trkpt lat="45.49969" lon="6.73118">
        <ele>2555.4</ele>
        <time>2012-03-11T12:19:24.001Z</time>
      </trkpt>
      <trkpt lat="45.4996" lon="6.73125">
        <ele>2559.6</ele>
        <time>2012-03-11T12:19:29.001Z</time>
      </trkpt>
      <trkpt lat="45.49951" lon="6.73129">
        <ele>2563.3</ele>
        <time>2012-03-11T12:19:34Z</time>
      </trkpt>
      <trkpt lat="45.49943" lon="6.73134">
        <ele>2568</ele>
        <time>2012-03-11T12:19:39.001Z</time>
      </trkpt>
      <trkpt lat="45.49934" lon="6.73137">
        <ele>2572.1</ele>
        <time>2012-03-11T12:19:44Z</time>
      </trkpt>
      <trkpt lat="45.49925" lon="6.73139">
        <ele>2575.7</ele>
        <time>2012-03-11T12:19:49.002Z</time>
      </trkpt>
      <trkpt lat="45.49916" lon="6.73144">
        <ele>2579.1</ele>
        <time>2012-03-11T12:19:54.001Z</time>
      </trkpt>
      <trkpt lat="45.49907" lon="6.73148">
        <ele>2582.9</ele>
        <time>2012-03-11T12:19:58.998Z</time>
      </trkpt>
      <trkpt lat="45.49899" lon="6.73152">
        <ele>2585.4</ele>
        <time>2012-03-11T12:20:04.001Z</time>
      </trkpt>
      <trkpt lat="45.4989" lon="6.73157">
        <ele>2588.5</ele>
        <time>2012-03-11T12:20:09.001Z</time>
      </trkpt>
      <trkpt lat="45.49881" lon="6.73163">
        <ele>2591.4</ele>
        <time>2012-03-11T12:20:13.998Z</time>
      </trkpt>
      <trkpt lat="45.49873" lon="6.73167">
        <ele>2593.2</ele>
        <time>2012-03-11T12:20:19.001Z</time>
      </trkpt>
      <trkpt lat="45.49864" lon="6.73171">
        <ele>2595.5</ele>
        <time>2012-03-11T12:20:24.001Z</time>
      </trkpt>
      <trkpt lat="45.49856" lon="6.73176">
        <ele>2598.3</ele>
        <time>2012-03-11T12:20:29.002Z</time>
      </trkpt>
      <trkpt lat="45.49848" lon="6.7318">
        <ele>2601.5</ele>
        <time>2012-03-11T12:20:34.001Z</time>
      </trkpt>
      <trkpt lat="45.4984" lon="6.73185">
        <ele>2604.9</ele>
        <time>2012-03-11T12:20:39.001Z</time>
      </trkpt>
      <trkpt lat="45.49831" lon="6.73191">
        <ele>2608.5</ele>
        <time>2012-03-11T12:20:44.001Z</time>
      </trkpt>
      <trkpt lat="45.49823" lon="6.73197">
        <ele>2611.9</ele>
        <time>2012-03-11T12:20:49.001Z</time>
      </trkpt>
      <trkpt lat="45.49814" lon="6.73202">
        <ele>2615</ele>
        <time>2012-03-11T12:20:54.001Z</time>
      </trkpt>
      <trkpt lat="45.49806" lon="6.73209">
        <ele>2618.3</ele>
        <time>2012-03-11T12:20:59.001Z</time>
      </trkpt>
      <trkpt lat="45.49796" lon="6.73216">
        <ele>2620.7</ele>
        <time>2012-03-11T12:21:04Z</time>
      </trkpt>
      <trkpt lat="45.49787" lon="6.73222">
        <ele>2621.6</ele>
        <time>2012-03-11T12:21:09Z</time>
      </trkpt>
      <trkpt lat="45.49779" lon="6.73227">
        <ele>2621.1</ele>
        <time>2012-03-11T12:21:14.001Z</time>
      </trkpt>
      <trkpt lat="45.4977" lon="6.73232">
        <ele>2620</ele>
        <time>2012-03-11T12:21:19.001Z</time>
      </trkpt>
      <trkpt lat="45.49762" lon="6.73237">
        <ele>2618</ele>
        <time>2012-03-11T12:21:24.001Z</time>
      </trkpt>
      <trkpt lat="45.49752" lon="6.73241">
        <ele>2616.3</ele>
        <time>2012-03-11T12:21:28.998Z</time>
      </trkpt>
      <trkpt lat="45.49743" lon="6.73246">
        <ele>2615</ele>
        <time>2012-03-11T12:21:34Z</time>
      </trkpt>
      <trkpt lat="45.49734" lon="6.73252">
        <ele>2614</ele>
        <time>2012-03-11T12:21:38.998Z</time>
      </trkpt>
      <trkpt lat="45.49725" lon="6.73258">
        <ele>2613</ele>
        <time>2012-03-11T12:21:44.001Z</time>
      </trkpt>
      <trkpt lat="45.49715" lon="6.73264">
        <ele>2612.2</ele>
        <time>2012-03-11T12:21:49Z</time>
      </trkpt>
      <trkpt lat="45.49705" lon="6.73269">
        <ele>2612.1</ele>
        <time>2012-03-11T12:21:54.001Z</time>
      </trkpt>
      <trkpt lat="45.49695" lon="6.73274">
        <ele>2612.3</ele>
        <time>2012-03-11T12:21:58.998Z</time>
      </trkpt>
      <trkpt lat="45.49686" lon="6.73279">
        <ele>2611.5</ele>
        <time>2012-03-11T12:22:04Z</time>
      </trkpt>
      <trkpt lat="45.49676" lon="6.73283">
        <ele>2610.4</ele>
        <time>2012-03-11T12:22:09Z</time>
      </trkpt>
      <trkpt lat="45.49667" lon="6.73286">
        <ele>2608.3</ele>
        <time>2012-03-11T12:22:13.998Z</time>
      </trkpt>
      <trkpt lat="45.49658" lon="6.7329">
        <ele>2606.4</ele>
        <time>2012-03-11T12:22:19.001Z</time>
      </trkpt>
      <trkpt lat="45.49648" lon="6.73294">
        <ele>2605.7</ele>
        <time>2012-03-11T12:22:24Z</time>
      </trkpt>
      <trkpt lat="45.49638" lon="6.73299">
        <ele>2605.9</ele>
        <time>2012-03-11T12:22:28.998Z</time>
      </trkpt>
      <trkpt lat="45.49628" lon="6.73305">
        <ele>2607.2</ele>
        <time>2012-03-11T12:22:34.001Z</time>
      </trkpt>
      <trkpt lat="45.49619" lon="6.7331">
        <ele>2608.3</ele>
        <time>2012-03-11T12:22:39Z</time>
      </trkpt>
      <trkpt lat="45.4961" lon="6.73315">
        <ele>2609.7</ele>
        <time>2012-03-11T12:22:44.004Z</time>
      </trkpt>
      <trkpt lat="45.49601" lon="6.7332">
        <ele>2611.7</ele>
        <time>2012-03-11T12:22:49Z</time>
      </trkpt>
      <trkpt lat="45.49592" lon="6.73326">
        <ele>2614.6</ele>
        <time>2012-03-11T12:22:53.998Z</time>
      </trkpt>
      <trkpt lat="45.49581" lon="6.73333">
        <ele>2618.4</ele>
        <time>2012-03-11T12:22:59Z</time>
      </trkpt>
      <trkpt lat="45.49571" lon="6.7334">
        <ele>2621.2</ele>
        <time>2012-03-11T12:23:04Z</time>
      </trkpt>
      <trkpt lat="45.49561" lon="6.73348">
        <ele>2624.3</ele>
        <time>2012-03-11T12:23:09Z</time>
      </trkpt>
      <trkpt lat="45.49551" lon="6.73353">
        <ele>2627</ele>
        <time>2012-03-11T12:23:14Z</time>
      </trkpt>
      <trkpt lat="45.49541" lon="6.7336">
        <ele>2630.5</ele>
        <time>2012-03-11T12:23:19.001Z</time>
      </trkpt>
      <trkpt lat="45.49531" lon="6.73366">
        <ele>2633.5</ele>
        <time>2012-03-11T12:23:24Z</time>
      </trkpt>
      <trkpt lat="45.49522" lon="6.7337">
        <ele>2634.8</ele>
        <time>2012-03-11T12:23:28.998Z</time>
      </trkpt>
      <trkpt lat="45.49512" lon="6.73375">
        <ele>2636.2</ele>
        <time>2012-03-11T12:23:34Z</time>
      </trkpt>
      <trkpt lat="45.49503" lon="6.73379">
        <ele>2637.4</ele>
        <time>2012-03-11T12:23:39Z</time>
      </trkpt>
      <trkpt lat="45.49494" lon="6.73383">
        <ele>2638.3</ele>
        <time>2012-03-11T12:23:44Z</time>
      </trkpt>
      <trkpt lat="45.49485" lon="6.73387">
        <ele>2638.8</ele>
        <time>2012-03-11T12:23:48.995Z</time>
      </trkpt>
      <trkpt lat="45.49477" lon="6.7339">
        <ele>2638.6</ele>
        <time>2012-03-11T12:23:54Z</time>
      </trkpt>
      <trkpt lat="45.49468" lon="6.73396">
        <ele>2638.3</ele>
        <time>2012-03-11T12:23:59Z</time>
      </trkpt>
      <trkpt lat="45.49459" lon="6.73402">
        <ele>2640</ele>
        <time>2012-03-11T12:24:04.002Z</time>
      </trkpt>
      <trkpt lat="45.49449" lon="6.73408">
        <ele>2642.5</ele>
        <time>2012-03-11T12:24:09.002Z</time>
      </trkpt>
      <trkpt lat="45.4942" lon="6.7346">
        <ele>2704.8</ele>
        <time>2012-03-11T12:25:44Z</time>
      </trkpt>
      <trkpt lat="45.49425" lon="6.73473">
        <ele>2706.4</ele>
        <time>2012-03-11T12:25:49.001Z</time>
      </trkpt>
      <trkpt lat="45.49427" lon="6.73485">
        <ele>2708.1</ele>
        <time>2012-03-11T12:25:54.002Z</time>
      </trkpt>
      <trkpt lat="45.49428" lon="6.73494">
        <ele>2710.6</ele>
        <time>2012-03-11T12:25:59Z</time>
      </trkpt>
      <trkpt lat="45.49429" lon="6.73503">
        <ele>2711.4</ele>
        <time>2012-03-11T12:26:04Z</time>
      </trkpt>
      <trkpt lat="45.49428" lon="6.73514">
        <ele>2710.7</ele>
        <time>2012-03-11T12:26:08.995Z</time>
      </trkpt>
      <trkpt lat="45.49429" lon="6.73519">
        <ele>2709.4</ele>
        <time>2012-03-11T12:26:14.001Z</time>
      </trkpt>
      <trkpt lat="45.49431" lon="6.73523">
        <ele>2708.9</ele>
        <time>2012-03-11T12:26:19Z</time>
      </trkpt>
      <trkpt lat="45.49428" lon="6.73532">
        <ele>2707.8</ele>
        <time>2012-03-11T12:26:44.004Z</time>
      </trkpt>
      <trkpt lat="45.49428" lon="6.73532">
        <ele>2699.3</ele>
        <time>2012-03-11T12:28:09Z</time>
      </trkpt>
      <trkpt lat="45.49425" lon="6.73533">
        <ele>2699.1</ele>
        <time>2012-03-11T12:28:19Z</time>
      </trkpt>
      <trkpt lat="45.49419" lon="6.73535">
        <ele>2698.9</ele>
        <time>2012-03-11T12:28:38.998Z</time>
      </trkpt>
      <trkpt lat="45.49405" lon="6.7354">
        <ele>2700.4</ele>
        <time>2012-03-11T12:33:44Z</time>
      </trkpt>
      <trkpt lat="45.49415" lon="6.73531">
        <ele>2699.9</ele>
        <time>2012-03-11T12:37:14.001Z</time>
      </trkpt>
      <trkpt lat="45.49429" lon="6.73514">
        <ele>2705.8</ele>
        <time>2012-03-11T12:37:34Z</time>
      </trkpt>
      <trkpt lat="45.49448" lon="6.73487">
        <ele>2690.9</ele>
        <time>2012-03-11T12:42:03.998Z</time>
      </trkpt>
      <trkpt lat="45.49458" lon="6.73484">
        <ele>2690.9</ele>
        <time>2012-03-11T12:42:19Z</time>
      </trkpt>
      <trkpt lat="45.4946" lon="6.73476">
        <ele>2688.8</ele>
        <time>2012-03-11T12:42:44Z</time>
      </trkpt>
      <trkpt lat="45.4947" lon="6.7346">
        <ele>2687.7</ele>
        <time>2012-03-11T12:42:49.001Z</time>
      </trkpt>
      <trkpt lat="45.49481" lon="6.73439">
        <ele>2686.1</ele>
        <time>2012-03-11T12:42:53.995Z</time>
      </trkpt>
      <trkpt lat="45.49496" lon="6.7342">
        <ele>2684.5</ele>
        <time>2012-03-11T12:42:59Z</time>
      </trkpt>
      <trkpt lat="45.49513" lon="6.73397">
        <ele>2682.6</ele>
        <time>2012-03-11T12:43:04.001Z</time>
      </trkpt>
      <trkpt lat="45.49536" lon="6.73383">
        <ele>2680.6</ele>
        <time>2012-03-11T12:43:08.998Z</time>
      </trkpt>
      <trkpt lat="45.49559" lon="6.73376">
        <ele>2678.8</ele>
        <time>2012-03-11T12:43:14Z</time>
      </trkpt>
      <trkpt lat="45.49577" lon="6.73381">
        <ele>2676.9</ele>
        <time>2012-03-11T12:43:19Z</time>
      </trkpt>
      <trkpt lat="45.49595" lon="6.73393">
        <ele>2673.8</ele>
        <time>2012-03-11T12:43:23.998Z</time>
      </trkpt>
      <trkpt lat="45.49609" lon="6.73397">
        <ele>2670.4</ele>
        <time>2012-03-11T12:43:29Z</time>
      </trkpt>
      <trkpt lat="45.49628" lon="6.73385">
        <ele>2666.9</ele>
        <time>2012-03-11T12:43:34.001Z</time>
      </trkpt>
      <trkpt lat="45.49647" lon="6.73371">
        <ele>2662.6</ele>
        <time>2012-03-11T12:43:39Z</time>
      </trkpt>
      <trkpt lat="45.49669" lon="6.73361">
        <ele>2658.1</ele>
        <time>2012-03-11T12:43:43.998Z</time>
      </trkpt>
      <trkpt lat="45.49686" lon="6.73347">
        <ele>2654.1</ele>
        <time>2012-03-11T12:43:49Z</time>
      </trkpt>
      <trkpt lat="45.49689" lon="6.73312">
        <ele>2665.7</ele>
        <time>2012-03-11T13:11:34.002Z</time>
      </trkpt>
      <trkpt lat="45.49701" lon="6.7328">
        <ele>2665.9</ele>
        <time>2012-03-11T13:11:39Z</time>
      </trkpt>
      <trkpt lat="45.49714" lon="6.73242">
        <ele>2661.4</ele>
        <time>2012-03-11T13:11:44Z</time>
      </trkpt>
      <trkpt lat="45.49722" lon="6.73204">
        <ele>2651.3</ele>
        <time>2012-03-11T13:11:49Z</time>
      </trkpt>
      <trkpt lat="45.49732" lon="6.7317">
        <ele>2642.5</ele>
        <time>2012-03-11T13:11:54.002Z</time>
      </trkpt>
      <trkpt lat="45.49733" lon="6.73161">
        <ele>2635.1</ele>
        <time>2012-03-11T13:11:59Z</time>
      </trkpt>
      <trkpt lat="45.49727" lon="6.73158">
        <ele>2626.7</ele>
        <time>2012-03-11T13:15:44Z</time>
      </trkpt>
      <trkpt lat="45.49726" lon="6.73153">
        <ele>2621</ele>
        <time>2012-03-11T13:15:48.997Z</time>
      </trkpt>
      <trkpt lat="45.49714" lon="6.73164">
        <ele>2602.5</ele>
        <time>2012-03-11T13:35:34Z</time>
      </trkpt>
      <trkpt lat="45.49716" lon="6.73168">
        <ele>2626.7</ele>
        <time>2012-03-11T13:39:09Z</time>
      </trkpt>
      <trkpt lat="45.49706" lon="6.73174">
        <ele>2625.5</ele>
        <time>2012-03-11T13:39:14.002Z</time>
      </trkpt>
      <trkpt lat="45.49691" lon="6.73174">
        <ele>2623.8</ele>
        <time>2012-03-11T13:39:19Z</time>
      </trkpt>
      <trkpt lat="45.49685" lon="6.73174">
        <ele>2622.2</ele>
        <time>2012-03-11T13:39:24Z</time>
      </trkpt>
      <trkpt lat="45.49681" lon="6.7317">
        <ele>2620.5</ele>
        <time>2012-03-11T13:39:39Z</time>
      </trkpt>
      <trkpt lat="45.49667" lon="6.73158">
        <ele>2619</ele>
        <time>2012-03-11T13:39:44Z</time>
      </trkpt>
      <trkpt lat="45.49639" lon="6.73128">
        <ele>2615.7</ele>
        <time>2012-03-11T13:39:49Z</time>
      </trkpt>
      <trkpt lat="45.49591" lon="6.7309">
        <ele>2608.9</ele>
        <time>2012-03-11T13:39:53.996Z</time>
      </trkpt>
      <trkpt lat="45.49538" lon="6.73058">
        <ele>2598.6</ele>
        <time>2012-03-11T13:39:59Z</time>
      </trkpt>
      <trkpt lat="45.49489" lon="6.73032">
        <ele>2582.9</ele>
        <time>2012-03-11T13:40:04Z</time>
      </trkpt>
      <trkpt lat="45.49449" lon="6.73022">
        <ele>2567.1</ele>
        <time>2012-03-11T13:40:09.002Z</time>
      </trkpt>
      <trkpt lat="45.49415" lon="6.73007">
        <ele>2552.6</ele>
        <time>2012-03-11T13:40:14.000Z</time>
      </trkpt>
      <trkpt lat="45.49384" lon="6.72964">
        <ele>2537.1</ele>
        <time>2012-03-11T13:40:19Z</time>
      </trkpt>
      <trkpt lat="45.49359" lon="6.72911">
        <ele>2521.3</ele>
        <time>2012-03-11T13:40:24.002Z</time>
      </trkpt>
      <trkpt lat="45.49349" lon="6.72853">
        <ele>2506.4</ele>
        <time>2012-03-11T13:40:29.002Z</time>
      </trkpt>
      <trkpt lat="45.49345" lon="6.7279">
        <ele>2492.2</ele>
        <time>2012-03-11T13:40:34Z</time>
      </trkpt>
      <trkpt lat="45.49355" lon="6.72735">
        <ele>2480.1</ele>
        <time>2012-03-11T13:40:39Z</time>
      </trkpt>
      <trkpt lat="45.49357" lon="6.72673">
        <ele>2468.1</ele>
        <time>2012-03-11T13:40:43.997Z</time>
      </trkpt>
      <trkpt lat="45.4933" lon="6.72598">
        <ele>2459.1</ele>
        <time>2012-03-11T13:40:49Z</time>
      </trkpt>
      <trkpt lat="45.49293" lon="6.72536">
        <ele>2454.2</ele>
        <time>2012-03-11T13:40:53.997Z</time>
      </trkpt>
      <trkpt lat="45.49258" lon="6.72482">
        <ele>2450.2</ele>
        <time>2012-03-11T13:40:59Z</time>
      </trkpt>
      <trkpt lat="45.49246" lon="6.72435">
        <ele>2447.3</ele>
        <time>2012-03-11T13:41:04.005Z</time>
      </trkpt>
      <trkpt lat="45.49243" lon="6.72393">
        <ele>2447</ele>
        <time>2012-03-11T13:41:09.002Z</time>
      </trkpt>
      <trkpt lat="45.49243" lon="6.72337">
        <ele>2444.1</ele>
        <time>2012-03-11T13:41:13.997Z</time>
      </trkpt>
      <trkpt lat="45.49238" lon="6.72274">
        <ele>2441.1</ele>
        <time>2012-03-11T13:41:19.002Z</time>
      </trkpt>
      <trkpt lat="45.49231" lon="6.72211">
        <ele>2437.6</ele>
        <time>2012-03-11T13:41:24Z</time>
      </trkpt>
      <trkpt lat="45.49225" lon="6.72144">
        <ele>2434.2</ele>
        <time>2012-03-11T13:41:29Z</time>
      </trkpt>
      <trkpt lat="45.49226" lon="6.72069">
        <ele>2431.2</ele>
        <time>2012-03-11T13:41:34.002Z</time>
      </trkpt>
      <trkpt lat="45.49226" lon="6.72011">
        <ele>2426.8</ele>
        <time>2012-03-11T13:41:38.996Z</time>
      </trkpt>
      <trkpt lat="45.4922" lon="6.71958">
        <ele>2421.4</ele>
        <time>2012-03-11T13:41:44Z</time>
      </trkpt>
      <trkpt lat="45.49197" lon="6.71901">
        <ele>2416.8</ele>
        <time>2012-03-11T13:41:49Z</time>
      </trkpt>
      <trkpt lat="45.49171" lon="6.71857">
        <ele>2410.6</ele>
        <time>2012-03-11T13:41:54.000Z</time>
      </trkpt>
      <trkpt lat="45.49146" lon="6.71829">
        <ele>2406.3</ele>
        <time>2012-03-11T13:41:59Z</time>
      </trkpt>
      <trkpt lat="45.49127" lon="6.71802">
        <ele>2402.7</ele>
        <time>2012-03-11T13:42:03.997Z</time>
      </trkpt>
      <trkpt lat="45.49103" lon="6.71749">
        <ele>2398</ele>
        <time>2012-03-11T13:42:08.999Z</time>
      </trkpt>
      <trkpt lat="45.4907" lon="6.71673">
        <ele>2392.7</ele>
        <time>2012-03-11T13:42:14Z</time>
      </trkpt>
      <trkpt lat="45.49044" lon="6.71604">
        <ele>2387.4</ele>
        <time>2012-03-11T13:42:18.997Z</time>
      </trkpt>
      <trkpt lat="45.49023" lon="6.71556">
        <ele>2382.1</ele>
        <time>2012-03-11T13:42:23.999Z</time>
      </trkpt>
      <trkpt lat="45.49008" lon="6.71529">
        <ele>2379.4</ele>
        <time>2012-03-11T13:42:29.000Z</time>
      </trkpt>
      <trkpt lat="45.49001" lon="6.71518">
        <ele>2376.5</ele>
        <time>2012-03-11T13:42:34.000Z</time>
      </trkpt>
      <trkpt lat="45.49" lon="6.71511">
        <ele>2375</ele>
        <time>2012-03-11T13:42:39Z</time>
      </trkpt>
      <trkpt lat="45.49001" lon="6.71501">
        <ele>2375.9</ele>
        <time>2012-03-11T13:42:44.000Z</time>
      </trkpt>
      <trkpt lat="45.49002" lon="6.7149">
        <ele>2376.5</ele>
        <time>2012-03-11T13:42:48.999Z</time>
      </trkpt>
      <trkpt lat="45.49003" lon="6.71482">
        <ele>2377.3</ele>
        <time>2012-03-11T13:42:54Z</time>
      </trkpt>
      <trkpt lat="45.48999" lon="6.71476">
        <ele>2378.9</ele>
        <time>2012-03-11T13:42:58.997Z</time>
      </trkpt>
      <trkpt lat="45.48993" lon="6.71467">
        <ele>2380.7</ele>
        <time>2012-03-11T13:43:04Z</time>
      </trkpt>
      <trkpt lat="45.48987" lon="6.7146">
        <ele>2381.6</ele>
        <time>2012-03-11T13:43:09Z</time>
      </trkpt>
      <trkpt lat="45.48982" lon="6.71452">
        <ele>2381.1</ele>
        <time>2012-03-11T13:43:14.002Z</time>
      </trkpt>
      <trkpt lat="45.48976" lon="6.71446">
        <ele>2380.8</ele>
        <time>2012-03-11T13:43:19Z</time>
      </trkpt>
      <trkpt lat="45.48965" lon="6.71439">
        <ele>2381.3</ele>
        <time>2012-03-11T13:43:34.000Z</time>
      </trkpt>
      <trkpt lat="45.48959" lon="6.71432">
        <ele>2380.7</ele>
        <time>2012-03-11T13:43:38.999Z</time>
      </trkpt>
      <trkpt lat="45.48952" lon="6.71424">
        <ele>2380.9</ele>
        <time>2012-03-11T13:43:44Z</time>
      </trkpt>
      <trkpt lat="45.48947" lon="6.71418">
        <ele>2381.5</ele>
        <time>2012-03-11T13:43:49Z</time>
      </trkpt>
      <trkpt lat="45.48943" lon="6.71414">
        <ele>2387.3</ele>
        <time>2012-03-11T13:44:23.999Z</time>
      </trkpt>
      <trkpt lat="45.48929" lon="6.71405">
        <ele>2386.3</ele>
        <time>2012-03-11T13:44:29.003Z</time>
      </trkpt>
      <trkpt lat="45.48907" lon="6.71395">
        <ele>2384.3</ele>
        <time>2012-03-11T13:44:33.996Z</time>
      </trkpt>
      <trkpt lat="45.48893" lon="6.71378">
        <ele>2381.2</ele>
        <time>2012-03-11T13:44:39Z</time>
      </trkpt>
      <trkpt lat="45.48877" lon="6.71351">
        <ele>2377.4</ele>
        <time>2012-03-11T13:44:44Z</time>
      </trkpt>
      <trkpt lat="45.4886" lon="6.71319">
        <ele>2371.7</ele>
        <time>2012-03-11T13:44:49Z</time>
      </trkpt>
      <trkpt lat="45.48845" lon="6.71285">
        <ele>2364.3</ele>
        <time>2012-03-11T13:44:53.997Z</time>
      </trkpt>
      <trkpt lat="45.48818" lon="6.71258">
        <ele>2356.1</ele>
        <time>2012-03-11T13:44:58.992Z</time>
      </trkpt>
      <trkpt lat="45.48796" lon="6.71214">
        <ele>2346.2</ele>
        <time>2012-03-11T13:45:04Z</time>
      </trkpt>
      <trkpt lat="45.48797" lon="6.71186">
        <ele>2334.5</ele>
        <time>2012-03-11T13:45:09Z</time>
      </trkpt>
      <trkpt lat="45.48809" lon="6.7118">
        <ele>2322.7</ele>
        <time>2012-03-11T13:45:14.000Z</time>
      </trkpt>
      <trkpt lat="45.48819" lon="6.71162">
        <ele>2312.3</ele>
        <time>2012-03-11T13:45:19.000Z</time>
      </trkpt>
      <trkpt lat="45.4882" lon="6.71158">
        <ele>2305.4</ele>
        <time>2012-03-11T13:45:24.002Z</time>
      </trkpt>
      <trkpt lat="45.48818" lon="6.71142">
        <ele>2300.2</ele>
        <time>2012-03-11T13:45:29.002Z</time>
      </trkpt>
      <trkpt lat="45.48827" lon="6.71125">
        <ele>2293.9</ele>
        <time>2012-03-11T13:45:34Z</time>
      </trkpt>
      <trkpt lat="45.48845" lon="6.71105">
        <ele>2287.7</ele>
        <time>2012-03-11T13:45:39.002Z</time>
      </trkpt>
      <trkpt lat="45.48867" lon="6.71097">
        <ele>2281.8</ele>
        <time>2012-03-11T13:45:44Z</time>
      </trkpt>
      <trkpt lat="45.48884" lon="6.71077">
        <ele>2277.8</ele>
        <time>2012-03-11T13:45:49.002Z</time>
      </trkpt>
      <trkpt lat="45.48888" lon="6.7104">
        <ele>2274.9</ele>
        <time>2012-03-11T13:45:54Z</time>
      </trkpt>
      <trkpt lat="45.48889" lon="6.71018">
        <ele>2277.5</ele>
        <time>2012-03-11T13:45:59Z</time>
      </trkpt>
      <trkpt lat="45.48891" lon="6.71005">
        <ele>2279.1</ele>
        <time>2012-03-11T13:46:04Z</time>
      </trkpt>
      <trkpt lat="45.48892" lon="6.70992">
        <ele>2280.2</ele>
        <time>2012-03-11T13:46:09.002Z</time>
      </trkpt>
      <trkpt lat="45.48892" lon="6.70981">
        <ele>2280.8</ele>
        <time>2012-03-11T13:46:14Z</time>
      </trkpt>
      <trkpt lat="45.48893" lon="6.70973">
        <ele>2282.1</ele>
        <time>2012-03-11T13:46:19.000Z</time>
      </trkpt>
      <trkpt lat="45.48894" lon="6.70968">
        <ele>2283.1</ele>
        <time>2012-03-11T13:46:24Z</time>
      </trkpt>
      <trkpt lat="45.48895" lon="6.70961">
        <ele>2283.1</ele>
        <time>2012-03-11T13:46:29Z</time>
      </trkpt>
      <trkpt lat="45.48895" lon="6.70952">
        <ele>2283.9</ele>
        <time>2012-03-11T13:46:33.996Z</time>
      </trkpt>
      <trkpt lat="45.48898" lon="6.70941">
        <ele>2285.5</ele>
        <time>2012-03-11T13:46:39Z</time>
      </trkpt>
      <trkpt lat="45.489" lon="6.70934">
        <ele>2286</ele>
        <time>2012-03-11T13:46:44.002Z</time>
      </trkpt>
      <trkpt lat="45.48903" lon="6.70927">
        <ele>2286.7</ele>
        <time>2012-03-11T13:46:49.002Z</time>
      </trkpt>
      <trkpt lat="45.48906" lon="6.70918">
        <ele>2287.4</ele>
        <time>2012-03-11T13:46:53.997Z</time>
      </trkpt>
      <trkpt lat="45.48909" lon="6.70909">
        <ele>2287.4</ele>
        <time>2012-03-11T13:46:58.997Z</time>
      </trkpt>
      <trkpt lat="45.48916" lon="6.70901">
        <ele>2288</ele>
        <time>2012-03-11T13:47:04.000Z</time>
      </trkpt>
      <trkpt lat="45.4892" lon="6.70882">
        <ele>2287.1</ele>
        <time>2012-03-11T13:47:09Z</time>
      </trkpt>
      <trkpt lat="45.48924" lon="6.70854">
        <ele>2285.1</ele>
        <time>2012-03-11T13:47:13.999Z</time>
      </trkpt>
      <trkpt lat="45.48925" lon="6.70826">
        <ele>2280.2</ele>
        <time>2012-03-11T13:47:18.997Z</time>
      </trkpt>
      <trkpt lat="45.48913" lon="6.70789">
        <ele>2273.7</ele>
        <time>2012-03-11T13:47:24Z</time>
      </trkpt>
      <trkpt lat="45.48885" lon="6.70736">
        <ele>2266</ele>
        <time>2012-03-11T13:47:28.997Z</time>
      </trkpt>
      <trkpt lat="45.48848" lon="6.70659">
        <ele>2255.8</ele>
        <time>2012-03-11T13:47:34Z</time>
      </trkpt>
      <trkpt lat="45.48797" lon="6.70594">
        <ele>2242.5</ele>
        <time>2012-03-11T13:47:39Z</time>
      </trkpt>
      <trkpt lat="45.48749" lon="6.70551">
        <ele>2234.3</ele>
        <time>2012-03-11T13:47:44.002Z</time>
      </trkpt>
      <trkpt lat="45.48703" lon="6.7053">
        <ele>2225.5</ele>
        <time>2012-03-11T13:47:49Z</time>
      </trkpt>
      <trkpt lat="45.48669" lon="6.70509">
        <ele>2218.6</ele>
        <time>2012-03-11T13:47:53.996Z</time>
      </trkpt>
      <trkpt lat="45.48647" lon="6.70507">
        <ele>2213.2</ele>
        <time>2012-03-11T13:47:59Z</time>
      </trkpt>
      <trkpt lat="45.4864" lon="6.70507">
        <ele>2208.2</ele>
        <time>2012-03-11T13:48:04Z</time>
      </trkpt>
      <trkpt lat="45.48634" lon="6.70493">
        <ele>2205.3</ele>
        <time>2012-03-11T13:48:09Z</time>
      </trkpt>
      <trkpt lat="45.48617" lon="6.70455">
        <ele>2201.7</ele>
        <time>2012-03-11T13:48:14.000Z</time>
      </trkpt>
      <trkpt lat="45.4861" lon="6.70405">
        <ele>2198.2</ele>
        <time>2012-03-11T13:48:18.999Z</time>
      </trkpt>
      <trkpt lat="45.48615" lon="6.70362">
        <ele>2194.5</ele>
        <time>2012-03-11T13:48:23.997Z</time>
      </trkpt>
      <trkpt lat="45.48618" lon="6.7032">
        <ele>2191.4</ele>
        <time>2012-03-11T13:48:29Z</time>
      </trkpt>
      <trkpt lat="45.48617" lon="6.70276">
        <ele>2187.6</ele>
        <time>2012-03-11T13:48:34.000Z</time>
      </trkpt>
      <trkpt lat="45.48621" lon="6.7023">
        <ele>2181.6</ele>
        <time>2012-03-11T13:48:38.999Z</time>
      </trkpt>
      <trkpt lat="45.48619" lon="6.7018">
        <ele>2176</ele>
        <time>2012-03-11T13:48:44Z</time>
      </trkpt>
      <trkpt lat="45.48609" lon="6.70124">
        <ele>2168.6</ele>
        <time>2012-03-11T13:48:49Z</time>
      </trkpt>
      <trkpt lat="45.48591" lon="6.70062">
        <ele>2158.3</ele>
        <time>2012-03-11T13:48:54Z</time>
      </trkpt>
      <trkpt lat="45.48569" lon="6.70001">
        <ele>2144.1</ele>
        <time>2012-03-11T13:48:59Z</time>
      </trkpt>
      <trkpt lat="45.48541" lon="6.69964">
        <ele>2131.4</ele>
        <time>2012-03-11T13:49:04Z</time>
      </trkpt>
      <trkpt lat="45.4852" lon="6.69943">
        <ele>2125.2</ele>
        <time>2012-03-11T13:49:08.997Z</time>
      </trkpt>
      <trkpt lat="45.48499" lon="6.69915">
        <ele>2120.6</ele>
        <time>2012-03-11T13:49:14Z</time>
      </trkpt>
      <trkpt lat="45.48477" lon="6.69883">
        <ele>2112.7</ele>
        <time>2012-03-11T13:49:19Z</time>
      </trkpt>
      <trkpt lat="45.48454" lon="6.69846">
        <ele>2100</ele>
        <time>2012-03-11T13:49:24Z</time>
      </trkpt>
      <trkpt lat="45.4844" lon="6.69814">
        <ele>2088.1</ele>
        <time>2012-03-11T13:49:29.002Z</time>
      </trkpt>
      <trkpt lat="45.48422" lon="6.69793">
        <ele>2075.1</ele>
        <time>2012-03-11T13:49:33.997Z</time>
      </trkpt>
      <trkpt lat="45.48399" lon="6.6977">
        <ele>2064.4</ele>
        <time>2012-03-11T13:49:38.997Z</time>
      </trkpt>
      <trkpt lat="45.48369" lon="6.69738">
        <ele>2054</ele>
        <time>2012-03-11T13:49:44.002Z</time>
      </trkpt>
      <trkpt lat="45.48344" lon="6.69714">
        <ele>2044.2</ele>
        <time>2012-03-11T13:49:48.999Z</time>
      </trkpt>
      <trkpt lat="45.48311" lon="6.69692">
        <ele>2034.7</ele>
        <time>2012-03-11T13:49:53.997Z</time>
      </trkpt>
      <trkpt lat="45.48275" lon="6.69665">
        <ele>2024.2</ele>
        <time>2012-03-11T13:49:59Z</time>
      </trkpt>
      <trkpt lat="45.48242" lon="6.69627">
        <ele>2015</ele>
        <time>2012-03-11T13:50:04.002Z</time>
      </trkpt>
      <trkpt lat="45.48202" lon="6.69581">
        <ele>2007.2</ele>
        <time>2012-03-11T13:50:08.999Z</time>
      </trkpt>
      <trkpt lat="45.48165" lon="6.69526">
        <ele>1998.3</ele>
        <time>2012-03-11T13:50:13.999Z</time>
      </trkpt>
      <trkpt lat="45.48141" lon="6.69497">
        <ele>1988.8</ele>
        <time>2012-03-11T13:50:18.999Z</time>
      </trkpt>
      <trkpt lat="45.48126" lon="6.69492">
        <ele>1982.7</ele>
        <time>2012-03-11T13:50:24Z</time>
      </trkpt>
      <trkpt lat="45.48125" lon="6.69493">
        <ele>1997.1</ele>
        <time>2012-03-11T13:51:03.999Z</time>
      </trkpt>
      <trkpt lat="45.48125" lon="6.69494">
        <ele>1995.6</ele>
        <time>2012-03-11T13:51:14.000Z</time>
      </trkpt>
      <trkpt lat="45.48116" lon="6.69477">
        <ele>1993.6</ele>
        <time>2012-03-11T13:51:19Z</time>
      </trkpt>
      <trkpt lat="45.48092" lon="6.69449">
        <ele>1990.7</ele>
        <time>2012-03-11T13:51:23.997Z</time>
      </trkpt>
      <trkpt lat="45.48057" lon="6.69419">
        <ele>1985.8</ele>
        <time>2012-03-11T13:51:29.005Z</time>
      </trkpt>
      <trkpt lat="45.48026" lon="6.69394">
        <ele>1979.9</ele>
        <time>2012-03-11T13:51:34.000Z</time>
      </trkpt>
      <trkpt lat="45.47995" lon="6.69362">
        <ele>1972.1</ele>
        <time>2012-03-11T13:51:39.000Z</time>
      </trkpt>
      <trkpt lat="45.47967" lon="6.6934">
        <ele>1962.9</ele>
        <time>2012-03-11T13:51:44.000Z</time>
      </trkpt>
      <trkpt lat="45.47946" lon="6.69325">
        <ele>1954</ele>
        <time>2012-03-11T13:51:49.000Z</time>
      </trkpt>
      <trkpt lat="45.47916" lon="6.69305">
        <ele>1945.5</ele>
        <time>2012-03-11T13:51:54.000Z</time>
      </trkpt>
      <trkpt lat="45.47888" lon="6.69312">
        <ele>1935</ele>
        <time>2012-03-11T13:51:58.997Z</time>
      </trkpt>
      <trkpt lat="45.47859" lon="6.69318">
        <ele>1924.5</ele>
        <time>2012-03-11T13:52:04.003Z</time>
      </trkpt>
      <trkpt lat="45.47829" lon="6.69319">
        <ele>1912.3</ele>
        <time>2012-03-11T13:52:09.003Z</time>
      </trkpt>
      <trkpt lat="45.47806" lon="6.69326">
        <ele>1902</ele>
        <time>2012-03-11T13:52:14Z</time>
      </trkpt>
      <trkpt lat="45.47792" lon="6.6933">
        <ele>1892.8</ele>
        <time>2012-03-11T13:52:18.997Z</time>
      </trkpt>
      <trkpt lat="45.47783" lon="6.69316">
        <ele>1883.4</ele>
        <time>2012-03-11T13:52:24Z</time>
      </trkpt>
      <trkpt lat="45.47754" lon="6.6928">
        <ele>1873.6</ele>
        <time>2012-03-11T13:52:29Z</time>
      </trkpt>
      <trkpt lat="45.4772" lon="6.6923">
        <ele>1865</ele>
        <time>2012-03-11T13:52:34.002Z</time>
      </trkpt>
      <trkpt lat="45.47683" lon="6.69178">
        <ele>1857.5</ele>
        <time>2012-03-11T13:52:39.003Z</time>
      </trkpt>
      <trkpt lat="45.47658" lon="6.69121">
        <ele>1849.7</ele>
        <time>2012-03-11T13:52:44.002Z</time>
      </trkpt>
      <trkpt lat="45.47636" lon="6.6907">
        <ele>1840.5</ele>
        <time>2012-03-11T13:52:48.996Z</time>
      </trkpt>
      <trkpt lat="45.47617" lon="6.69029">
        <ele>1832.1</ele>
        <time>2012-03-11T13:52:54Z</time>
      </trkpt>
      <trkpt lat="45.47606" lon="6.68987">
        <ele>1822.8</ele>
        <time>2012-03-11T13:52:59.002Z</time>
      </trkpt>
      <trkpt lat="45.47607" lon="6.68957">
        <ele>1811.1</ele>
        <time>2012-03-11T13:53:04.002Z</time>
      </trkpt>
      <trkpt lat="45.47616" lon="6.68947">
        <ele>1803.7</ele>
        <time>2012-03-11T13:53:09Z</time>
      </trkpt>
      <trkpt lat="45.47625" lon="6.68942">
        <ele>1803.2</ele>
        <time>2012-03-11T13:53:14Z</time>
      </trkpt>
      <trkpt lat="45.47633" lon="6.68944">
        <ele>1813.9</ele>
        <time>2012-03-11T13:53:23.996Z</time>
      </trkpt>
      <trkpt lat="45.47656" lon="6.68938">
        <ele>1829.1</ele>
        <time>2012-03-11T13:54:44Z</time>
      </trkpt>
      <trkpt lat="45.47675" lon="6.68917">
        <ele>1822.3</ele>
        <time>2012-03-11T13:55:04.000Z</time>
      </trkpt>
      <trkpt lat="45.47693" lon="6.68896">
        <ele>1823.4</ele>
        <time>2012-03-11T13:55:09.002Z</time>
      </trkpt>
      <trkpt lat="45.4771" lon="6.68876">
        <ele>1827.2</ele>
        <time>2012-03-11T13:55:14.002Z</time>
      </trkpt>
      <trkpt lat="45.47727" lon="6.68857">
        <ele>1832.8</ele>
        <time>2012-03-11T13:55:18.997Z</time>
      </trkpt>
      <trkpt lat="45.47744" lon="6.68839">
        <ele>1837.6</ele>
        <time>2012-03-11T13:55:24.002Z</time>
      </trkpt>
      <trkpt lat="45.47761" lon="6.68822">
        <ele>1844.6</ele>
        <time>2012-03-11T13:55:29Z</time>
      </trkpt>
      <trkpt lat="45.47777" lon="6.68807">
        <ele>1855.5</ele>
        <time>2012-03-11T13:55:33.999Z</time>
      </trkpt>
      <trkpt lat="45.47791" lon="6.6879">
        <ele>1869</ele>
        <time>2012-03-11T13:55:39.002Z</time>
      </trkpt>
      <trkpt lat="45.47805" lon="6.68773">
        <ele>1883.9</ele>
        <time>2012-03-11T13:55:44.002Z</time>
      </trkpt>
      <trkpt lat="45.47822" lon="6.68757">
        <ele>1898.1</ele>
        <time>2012-03-11T13:55:49.002Z</time>
      </trkpt>
      <trkpt lat="45.47839" lon="6.68739">
        <ele>1910.2</ele>
        <time>2012-03-11T13:55:54Z</time>
      </trkpt>
      <trkpt lat="45.47855" lon="6.68721">
        <ele>1922.3</ele>
        <time>2012-03-11T13:55:59.000Z</time>
      </trkpt>
      <trkpt lat="45.47871" lon="6.68704">
        <ele>1935.1</ele>
        <time>2012-03-11T13:56:04.005Z</time>
      </trkpt>
      <trkpt lat="45.47887" lon="6.68686">
        <ele>1948</ele>
        <time>2012-03-11T13:56:09Z</time>
      </trkpt>
      <trkpt lat="45.47902" lon="6.68669">
        <ele>1960.5</ele>
        <time>2012-03-11T13:56:14Z</time>
      </trkpt>
      <trkpt lat="45.47918" lon="6.68651">
        <ele>1972.3</ele>
        <time>2012-03-11T13:56:19Z</time>
      </trkpt>
      <trkpt lat="45.47935" lon="6.68633">
        <ele>1982.6</ele>
        <time>2012-03-11T13:56:24.002Z</time>
      </trkpt>
      <trkpt lat="45.47953" lon="6.68614">
        <ele>1992.6</ele>
        <time>2012-03-11T13:56:28.999Z</time>
      </trkpt>
      <trkpt lat="45.47971" lon="6.68594">
        <ele>2002.5</ele>
        <time>2012-03-11T13:56:34Z</time>
      </trkpt>
      <trkpt lat="45.47988" lon="6.68575">
        <ele>2011.4</ele>
        <time>2012-03-11T13:56:39.002Z</time>
      </trkpt>
      <trkpt lat="45.48005" lon="6.68557">
        <ele>2018.9</ele>
        <time>2012-03-11T13:56:44.002Z</time>
      </trkpt>
      <trkpt lat="45.48021" lon="6.6854">
        <ele>2024.3</ele>
        <time>2012-03-11T13:56:49.002Z</time>
      </trkpt>
      <trkpt lat="45.48038" lon="6.68522">
        <ele>2029.8</ele>
        <time>2012-03-11T13:56:54Z</time>
      </trkpt>
      <trkpt lat="45.48055" lon="6.68504">
        <ele>2035</ele>
        <time>2012-03-11T13:56:59Z</time>
      </trkpt>
      <trkpt lat="45.48072" lon="6.68486">
        <ele>2040.3</ele>
        <time>2012-03-11T13:57:04.002Z</time>
      </trkpt>
      <trkpt lat="45.4809" lon="6.68467">
        <ele>2044.7</ele>
        <time>2012-03-11T13:57:08.997Z</time>
      </trkpt>
      <trkpt lat="45.48109" lon="6.68449">
        <ele>2048.7</ele>
        <time>2012-03-11T13:57:14Z</time>
      </trkpt>
      <trkpt lat="45.48127" lon="6.68429">
        <ele>2053.9</ele>
        <time>2012-03-11T13:57:18.999Z</time>
      </trkpt>
      <trkpt lat="45.48144" lon="6.6841">
        <ele>2060</ele>
        <time>2012-03-11T13:57:23.997Z</time>
      </trkpt>
      <trkpt lat="45.48161" lon="6.68392">
        <ele>2067.1</ele>
        <time>2012-03-11T13:57:29.002Z</time>
      </trkpt>
      <trkpt lat="45.4818" lon="6.68373">
        <ele>2073.2</ele>
        <time>2012-03-11T13:57:34.002Z</time>
      </trkpt>
      <trkpt lat="45.48198" lon="6.68354">
        <ele>2079.3</ele>
        <time>2012-03-11T13:57:38.997Z</time>
      </trkpt>
      <trkpt lat="45.48215" lon="6.68335">
        <ele>2086.5</ele>
        <time>2012-03-11T13:57:44Z</time>
      </trkpt>
      <trkpt lat="45.48232" lon="6.68317">
        <ele>2095.9</ele>
        <time>2012-03-11T13:57:49.000Z</time>
      </trkpt>
      <trkpt lat="45.48249" lon="6.68299">
        <ele>2106.4</ele>
        <time>2012-03-11T13:57:54Z</time>
      </trkpt>
      <trkpt lat="45.48267" lon="6.68282">
        <ele>2117.4</ele>
        <time>2012-03-11T13:57:59Z</time>
      </trkpt>
      <trkpt lat="45.48285" lon="6.68263">
        <ele>2126.7</ele>
        <time>2012-03-11T13:58:04Z</time>
      </trkpt>
      <trkpt lat="45.48303" lon="6.68244">
        <ele>2133.5</ele>
        <time>2012-03-11T13:58:08.997Z</time>
      </trkpt>
      <trkpt lat="45.4832" lon="6.68226">
        <ele>2139.9</ele>
        <time>2012-03-11T13:58:13.997Z</time>
      </trkpt>
      <trkpt lat="45.48335" lon="6.68207">
        <ele>2146.5</ele>
        <time>2012-03-11T13:58:18.997Z</time>
      </trkpt>
      <trkpt lat="45.48352" lon="6.68188">
        <ele>2152.9</ele>
        <time>2012-03-11T13:58:24Z</time>
      </trkpt>
      <trkpt lat="45.48369" lon="6.68169">
        <ele>2160</ele>
        <time>2012-03-11T13:58:29Z</time>
      </trkpt>
      <trkpt lat="45.48388" lon="6.68149">
        <ele>2166.4</ele>
        <time>2012-03-11T13:58:33.997Z</time>
      </trkpt>
      <trkpt lat="45.48405" lon="6.68129">
        <ele>2172.5</ele>
        <time>2012-03-11T13:58:39Z</time>
      </trkpt>
      <trkpt lat="45.48423" lon="6.68109">
        <ele>2178.9</ele>
        <time>2012-03-11T13:58:44.000Z</time>
      </trkpt>
      <trkpt lat="45.4844" lon="6.6809">
        <ele>2185.6</ele>
        <time>2012-03-11T13:58:49.000Z</time>
      </trkpt>
      <trkpt lat="45.48458" lon="6.68072">
        <ele>2191.5</ele>
        <time>2012-03-11T13:58:54Z</time>
      </trkpt>
      <trkpt lat="45.48476" lon="6.68053">
        <ele>2199.7</ele>
        <time>2012-03-11T13:58:59Z</time>
      </trkpt>
      <trkpt lat="45.48493" lon="6.68036">
        <ele>2207.8</ele>
        <time>2012-03-11T13:59:04.002Z</time>
      </trkpt>
      <trkpt lat="45.48508" lon="6.68019">
        <ele>2218.5</ele>
        <time>2012-03-11T13:59:09.002Z</time>
      </trkpt>
      <trkpt lat="45.48522" lon="6.68002">
        <ele>2230.7</ele>
        <time>2012-03-11T13:59:13.997Z</time>
      </trkpt>
      <trkpt lat="45.48537" lon="6.67984">
        <ele>2242.2</ele>
        <time>2012-03-11T13:59:19.002Z</time>
      </trkpt>
      <trkpt lat="45.48554" lon="6.67966">
        <ele>2252.3</ele>
        <time>2012-03-11T13:59:24Z</time>
      </trkpt>
      <trkpt lat="45.4857" lon="6.6795">
        <ele>2263.3</ele>
        <time>2012-03-11T13:59:29Z</time>
      </trkpt>
      <trkpt lat="45.48587" lon="6.67933">
        <ele>2276.2</ele>
        <time>2012-03-11T13:59:34Z</time>
      </trkpt>
      <trkpt lat="45.48603" lon="6.67916">
        <ele>2289.7</ele>
        <time>2012-03-11T13:59:38.999Z</time>
      </trkpt>
      <trkpt lat="45.4862" lon="6.67898">
        <ele>2301.5</ele>
        <time>2012-03-11T13:59:43.997Z</time>
      </trkpt>
      <trkpt lat="45.48637" lon="6.67881">
        <ele>2311.7</ele>
        <time>2012-03-11T13:59:49.002Z</time>
      </trkpt>
      <trkpt lat="45.48655" lon="6.67864">
        <ele>2322</ele>
        <time>2012-03-11T13:59:54.000Z</time>
      </trkpt>
      <trkpt lat="45.48672" lon="6.67847">
        <ele>2332.4</ele>
        <time>2012-03-11T13:59:58.997Z</time>
      </trkpt>
      <trkpt lat="45.48687" lon="6.67831">
        <ele>2341.5</ele>
        <time>2012-03-11T14:00:04Z</time>
      </trkpt>
      <trkpt lat="45.48703" lon="6.67814">
        <ele>2351.1</ele>
        <time>2012-03-11T14:00:09Z</time>
      </trkpt>
      <trkpt lat="45.48717" lon="6.67797">
        <ele>2360.3</ele>
        <time>2012-03-11T14:00:14.002Z</time>
      </trkpt>
      <trkpt lat="45.48733" lon="6.67782">
        <ele>2369.3</ele>
        <time>2012-03-11T14:00:18.999Z</time>
      </trkpt>
      <trkpt lat="45.48749" lon="6.67765">
        <ele>2379.5</ele>
        <time>2012-03-11T14:00:23.997Z</time>
      </trkpt>
      <trkpt lat="45.48764" lon="6.67747">
        <ele>2391.5</ele>
        <time>2012-03-11T14:00:28.997Z</time>
      </trkpt>
      <trkpt lat="45.48781" lon="6.6773">
        <ele>2405.4</ele>
        <time>2012-03-11T14:00:34Z</time>
      </trkpt>
      <trkpt lat="45.48797" lon="6.67713">
        <ele>2419.3</ele>
        <time>2012-03-11T14:00:38.997Z</time>
      </trkpt>
      <trkpt lat="45.48813" lon="6.67697">
        <ele>2433</ele>
        <time>2012-03-11T14:00:44.000Z</time>
      </trkpt>
      <trkpt lat="45.48829" lon="6.67679">
        <ele>2445.9</ele>
        <time>2012-03-11T14:00:48.997Z</time>
      </trkpt>
      <trkpt lat="45.48845" lon="6.67661">
        <ele>2457.4</ele>
        <time>2012-03-11T14:00:54.002Z</time>
      </trkpt>
      <trkpt lat="45.48859" lon="6.67647">
        <ele>2467</ele>
        <time>2012-03-11T14:00:59Z</time>
      </trkpt>
      <trkpt lat="45.48865" lon="6.67636">
        <ele>2474.7</ele>
        <time>2012-03-11T14:01:04Z</time>
      </trkpt>
      <trkpt lat="45.48876" lon="6.67631">
        <ele>2480</ele>
        <time>2012-03-11T14:01:09.002Z</time>
      </trkpt>
      <trkpt lat="45.48894" lon="6.67659">
        <ele>2469.9</ele>
        <time>2012-03-11T14:02:49Z</time>
      </trkpt>
      <trkpt lat="45.48909" lon="6.67672">
        <ele>2468.6</ele>
        <time>2012-03-11T14:02:53.997Z</time>
      </trkpt>
      <trkpt lat="45.48931" lon="6.67694">
        <ele>2467.7</ele>
        <time>2012-03-11T14:02:59Z</time>
      </trkpt>
      <trkpt lat="45.48948" lon="6.67714">
        <ele>2466.3</ele>
        <time>2012-03-11T14:03:04Z</time>
      </trkpt>
      <trkpt lat="45.48962" lon="6.67736">
        <ele>2464.4</ele>
        <time>2012-03-11T14:03:09Z</time>
      </trkpt>
      <trkpt lat="45.48977" lon="6.67765">
        <ele>2461.1</ele>
        <time>2012-03-11T14:03:14Z</time>
      </trkpt>
      <trkpt lat="45.48984" lon="6.67806">
        <ele>2455.5</ele>
        <time>2012-03-11T14:03:19Z</time>
      </trkpt>
      <trkpt lat="45.48992" lon="6.67845">
        <ele>2448.6</ele>
        <time>2012-03-11T14:03:24Z</time>
      </trkpt>
      <trkpt lat="45.48998" lon="6.67879">
        <ele>2440.6</ele>
        <time>2012-03-11T14:03:29Z</time>
      </trkpt>
      <trkpt lat="45.49006" lon="6.67889">
        <ele>2432.9</ele>
        <time>2012-03-11T14:03:34.002Z</time>
      </trkpt>
      <trkpt lat="45.49023" lon="6.67875">
        <ele>2423</ele>
        <time>2012-03-11T14:03:39Z</time>
      </trkpt>
      <trkpt lat="45.49048" lon="6.67835">
        <ele>2410.7</ele>
        <time>2012-03-11T14:03:44.000Z</time>
      </trkpt>
      <trkpt lat="45.49068" lon="6.67789">
        <ele>2396.8</ele>
        <time>2012-03-11T14:03:49.000Z</time>
      </trkpt>
      <trkpt lat="45.49089" lon="6.67744">
        <ele>2384.3</ele>
        <time>2012-03-11T14:03:54.000Z</time>
      </trkpt>
      <trkpt lat="45.49104" lon="6.67694">
        <ele>2373.5</ele>
        <time>2012-03-11T14:03:58.997Z</time>
      </trkpt>
      <trkpt lat="45.49109" lon="6.67644">
        <ele>2364.7</ele>
        <time>2012-03-11T14:04:04Z</time>
      </trkpt>
      <trkpt lat="45.49108" lon="6.67601">
        <ele>2353.3</ele>
        <time>2012-03-11T14:04:09Z</time>
      </trkpt>
      <trkpt lat="45.49116" lon="6.67563">
        <ele>2337.4</ele>
        <time>2012-03-11T14:04:13.997Z</time>
      </trkpt>
      <trkpt lat="45.49137" lon="6.67531">
        <ele>2324</ele>
        <time>2012-03-11T14:04:18.997Z</time>
      </trkpt>
      <trkpt lat="45.49162" lon="6.67496">
        <ele>2316.7</ele>
        <time>2012-03-11T14:04:24Z</time>
      </trkpt>
      <trkpt lat="45.49185" lon="6.67467">
        <ele>2307.3</ele>
        <time>2012-03-11T14:04:29Z</time>
      </trkpt>
      <trkpt lat="45.49205" lon="6.67439">
        <ele>2296.7</ele>
        <time>2012-03-11T14:04:33.997Z</time>
      </trkpt>
      <trkpt lat="45.49225" lon="6.67406">
        <ele>2285.6</ele>
        <time>2012-03-11T14:04:39Z</time>
      </trkpt>
      <trkpt lat="45.49252" lon="6.67368">
        <ele>2274.8</ele>
        <time>2012-03-11T14:04:44Z</time>
      </trkpt>
      <trkpt lat="45.49292" lon="6.67335">
        <ele>2261.9</ele>
        <time>2012-03-11T14:04:49Z</time>
      </trkpt>
      <trkpt lat="45.49337" lon="6.67313">
        <ele>2249.9</ele>
        <time>2012-03-11T14:04:54Z</time>
      </trkpt>
      <trkpt lat="45.49372" lon="6.67294">
        <ele>2240.2</ele>
        <time>2012-03-11T14:04:59Z</time>
      </trkpt>
      <trkpt lat="45.49406" lon="6.67287">
        <ele>2228.2</ele>
        <time>2012-03-11T14:05:04.002Z</time>
      </trkpt>
      <trkpt lat="45.49443" lon="6.67284">
        <ele>2219.4</ele>
        <time>2012-03-11T14:05:09Z</time>
      </trkpt>
      <trkpt lat="45.49485" lon="6.67283">
        <ele>2210.5</ele>
        <time>2012-03-11T14:05:14Z</time>
      </trkpt>
      <trkpt lat="45.49525" lon="6.67281">
        <ele>2202.7</ele>
        <time>2012-03-11T14:05:19Z</time>
      </trkpt>
      <trkpt lat="45.49558" lon="6.67298">
        <ele>2198.4</ele>
        <time>2012-03-11T14:05:23.997Z</time>
      </trkpt>
      <trkpt lat="45.49589" lon="6.6732">
        <ele>2194.1</ele>
        <time>2012-03-11T14:05:29Z</time>
      </trkpt>
      <trkpt lat="45.49623" lon="6.67324">
        <ele>2188.4</ele>
        <time>2012-03-11T14:05:34Z</time>
      </trkpt>
      <trkpt lat="45.49657" lon="6.67326">
        <ele>2181.5</ele>
        <time>2012-03-11T14:05:38.997Z</time>
      </trkpt>
      <trkpt lat="45.49691" lon="6.67343">
        <ele>2171.6</ele>
        <time>2012-03-11T14:05:44Z</time>
      </trkpt>
      <trkpt lat="45.49736" lon="6.67357">
        <ele>2161.9</ele>
        <time>2012-03-11T14:05:49Z</time>
      </trkpt>
      <trkpt lat="45.49775" lon="6.67367">
        <ele>2155.6</ele>
        <time>2012-03-11T14:05:54Z</time>
      </trkpt>
      <trkpt lat="45.4981" lon="6.67379">
        <ele>2147.8</ele>
        <time>2012-03-11T14:05:59.002Z</time>
      </trkpt>
      <trkpt lat="45.49842" lon="6.67403">
        <ele>2138.9</ele>
        <time>2012-03-11T14:06:04Z</time>
      </trkpt>
      <trkpt lat="45.49878" lon="6.67437">
        <ele>2132.1</ele>
        <time>2012-03-11T14:06:09Z</time>
      </trkpt>
      <trkpt lat="45.49911" lon="6.67465">
        <ele>2126.6</ele>
        <time>2012-03-11T14:06:14Z</time>
      </trkpt>
      <trkpt lat="45.49939" lon="6.67476">
        <ele>2120.9</ele>
        <time>2012-03-11T14:06:19Z</time>
      </trkpt>
      <trkpt lat="45.49948" lon="6.67477">
        <ele>2110.7</ele>
        <time>2012-03-11T14:06:24.002Z</time>
      </trkpt>
      <trkpt lat="45.49946" lon="6.67477">
        <ele>2103.3</ele>
        <time>2012-03-11T14:06:29Z</time>
      </trkpt>
      <trkpt lat="45.49942" lon="6.67472">
        <ele>2110.4</ele>
        <time>2012-03-11T14:06:44Z</time>
      </trkpt>
      <trkpt lat="45.49942" lon="6.67465">
        <ele>2117.7</ele>
        <time>2012-03-11T14:07:08.997Z</time>
      </trkpt>
      <trkpt lat="45.49954" lon="6.67459">
        <ele>2118</ele>
        <time>2012-03-11T14:07:14Z</time>
      </trkpt>
      <trkpt lat="45.49972" lon="6.67457">
        <ele>2116.2</ele>
        <time>2012-03-11T14:07:18.997Z</time>
      </trkpt>
      <trkpt lat="45.49992" lon="6.6746">
        <ele>2114.8</ele>
        <time>2012-03-11T14:07:23.999Z</time>
      </trkpt>
      <trkpt lat="45.50025" lon="6.67455">
        <ele>2113.2</ele>
        <time>2012-03-11T14:07:29Z</time>
      </trkpt>
      <trkpt lat="45.50064" lon="6.67448">
        <ele>2109.7</ele>
        <time>2012-03-11T14:07:33.997Z</time>
      </trkpt>
      <trkpt lat="45.50108" lon="6.67444">
        <ele>2102.6</ele>
        <time>2012-03-11T14:07:39.000Z</time>
      </trkpt>
      <trkpt lat="45.5015" lon="6.67442">
        <ele>2093.6</ele>
        <time>2012-03-11T14:07:44Z</time>
      </trkpt>
      <trkpt lat="45.50187" lon="6.67445">
        <ele>2084.7</ele>
        <time>2012-03-11T14:07:49.002Z</time>
      </trkpt>
      <trkpt lat="45.50225" lon="6.67456">
        <ele>2074.3</ele>
        <time>2012-03-11T14:07:54.002Z</time>
      </trkpt>
      <trkpt lat="45.50263" lon="6.67468">
        <ele>2062.2</ele>
        <time>2012-03-11T14:07:59Z</time>
      </trkpt>
      <trkpt lat="45.50304" lon="6.67464">
        <ele>2047.2</ele>
        <time>2012-03-11T14:08:04.003Z</time>
      </trkpt>
      <trkpt lat="45.50342" lon="6.6744">
        <ele>2030.5</ele>
        <time>2012-03-11T14:08:09.002Z</time>
      </trkpt>
      <trkpt lat="45.50374" lon="6.67413">
        <ele>2015.4</ele>
        <time>2012-03-11T14:08:14Z</time>
      </trkpt>
      <trkpt lat="45.50399" lon="6.67396">
        <ele>2004.3</ele>
        <time>2012-03-11T14:08:19.002Z</time>
      </trkpt>
      <trkpt lat="45.50405" lon="6.67396">
        <ele>1996.1</ele>
        <time>2012-03-11T14:08:24Z</time>
      </trkpt>
      <trkpt lat="45.50402" lon="6.67401">
        <ele>1997</ele>
        <time>2012-03-11T14:08:33.997Z</time>
      </trkpt>
      <trkpt lat="45.50414" lon="6.67407">
        <ele>1996.2</ele>
        <time>2012-03-11T14:08:39.000Z</time>
      </trkpt>
      <trkpt lat="45.50438" lon="6.67425">
        <ele>1991.4</ele>
        <time>2012-03-11T14:08:44Z</time>
      </trkpt>
      <trkpt lat="45.50458" lon="6.67448">
        <ele>1984.9</ele>
        <time>2012-03-11T14:08:49.000Z</time>
      </trkpt>
      <trkpt lat="45.50471" lon="6.67427">
        <ele>1978.9</ele>
        <time>2012-03-11T14:08:54Z</time>
      </trkpt>
      <trkpt lat="45.50468" lon="6.67407">
        <ele>1973.3</ele>
        <time>2012-03-11T14:08:59Z</time>
      </trkpt>
      <trkpt lat="45.50446" lon="6.67384">
        <ele>1993.8</ele>
        <time>2012-03-11T14:10:29.002Z</time>
      </trkpt>
      <trkpt lat="45.50443" lon="6.6737">
        <ele>1990.3</ele>
        <time>2012-03-11T14:10:44.000Z</time>
      </trkpt>
      <trkpt lat="45.50441" lon="6.67358">
        <ele>1986.4</ele>
        <time>2012-03-11T14:10:54.000Z</time>
      </trkpt>
      <trkpt lat="45.50439" lon="6.67348">
        <ele>1985.8</ele>
        <time>2012-03-11T14:10:59.000Z</time>
      </trkpt>
      <trkpt lat="45.50437" lon="6.67337">
        <ele>1985.9</ele>
        <time>2012-03-11T14:11:04.002Z</time>
      </trkpt>
      <trkpt lat="45.50436" lon="6.67325">
        <ele>1987.5</ele>
        <time>2012-03-11T14:11:09Z</time>
      </trkpt>
      <trkpt lat="45.50433" lon="6.67312">
        <ele>1989.9</ele>
        <time>2012-03-11T14:11:14Z</time>
      </trkpt>
      <trkpt lat="45.50431" lon="6.67299">
        <ele>1993.8</ele>
        <time>2012-03-11T14:11:19Z</time>
      </trkpt>
      <trkpt lat="45.50428" lon="6.67287">
        <ele>1997</ele>
        <time>2012-03-11T14:11:24.002Z</time>
      </trkpt>
      <trkpt lat="45.50426" lon="6.67277">
        <ele>1999.1</ele>
        <time>2012-03-11T14:11:29Z</time>
      </trkpt>
      <trkpt lat="45.50425" lon="6.67266">
        <ele>2001.1</ele>
        <time>2012-03-11T14:11:33.997Z</time>
      </trkpt>
      <trkpt lat="45.50422" lon="6.67255">
        <ele>2004</ele>
        <time>2012-03-11T14:11:39.000Z</time>
      </trkpt>
      <trkpt lat="45.50419" lon="6.67243">
        <ele>2009</ele>
        <time>2012-03-11T14:11:44.000Z</time>
      </trkpt>
      <trkpt lat="45.50416" lon="6.67232">
        <ele>2013.1</ele>
        <time>2012-03-11T14:11:49.002Z</time>
      </trkpt>
      <trkpt lat="45.50414" lon="6.67222">
        <ele>2019.6</ele>
        <time>2012-03-11T14:11:54.002Z</time>
      </trkpt>
      <trkpt lat="45.5041" lon="6.67207">
        <ele>2027.3</ele>
        <time>2012-03-11T14:11:59.002Z</time>
      </trkpt>
      <trkpt lat="45.50405" lon="6.67193">
        <ele>2033.7</ele>
        <time>2012-03-11T14:12:04Z</time>
      </trkpt>
      <trkpt lat="45.50402" lon="6.6718">
        <ele>2041.9</ele>
        <time>2012-03-11T14:12:08.997Z</time>
      </trkpt>
      <trkpt lat="45.50397" lon="6.67166">
        <ele>2049.2</ele>
        <time>2012-03-11T14:12:14Z</time>
      </trkpt>
      <trkpt lat="45.50394" lon="6.67152">
        <ele>2054</ele>
        <time>2012-03-11T14:12:19Z</time>
      </trkpt>
      <trkpt lat="45.50392" lon="6.67141">
        <ele>2057.8</ele>
        <time>2012-03-11T14:12:24.002Z</time>
      </trkpt>
      <trkpt lat="45.50389" lon="6.67131">
        <ele>2060.9</ele>
        <time>2012-03-11T14:12:29Z</time>
      </trkpt>
      <trkpt lat="45.50386" lon="6.67118">
        <ele>2064.3</ele>
        <time>2012-03-11T14:12:34.002Z</time>
      </trkpt>
      <trkpt lat="45.50383" lon="6.67104">
        <ele>2069</ele>
        <time>2012-03-11T14:12:38.997Z</time>
      </trkpt>
      <trkpt lat="45.50381" lon="6.67092">
        <ele>2074.3</ele>
        <time>2012-03-11T14:12:44Z</time>
      </trkpt>
      <trkpt lat="45.50378" lon="6.67079">
        <ele>2078.3</ele>
        <time>2012-03-11T14:12:49Z</time>
      </trkpt>
      <trkpt lat="45.50374" lon="6.67065">
        <ele>2083.7</ele>
        <time>2012-03-11T14:12:54.002Z</time>
      </trkpt>
      <trkpt lat="45.5037" lon="6.6705">
        <ele>2088.2</ele>
        <time>2012-03-11T14:12:58.997Z</time>
      </trkpt>
      <trkpt lat="45.50367" lon="6.67038">
        <ele>2092.5</ele>
        <time>2012-03-11T14:13:04Z</time>
      </trkpt>
      <trkpt lat="45.50365" lon="6.67025">
        <ele>2095.7</ele>
        <time>2012-03-11T14:13:09Z</time>
      </trkpt>
      <trkpt lat="45.50363" lon="6.67013">
        <ele>2098.5</ele>
        <time>2012-03-11T14:13:14Z</time>
      </trkpt>
      <trkpt lat="45.50362" lon="6.66999">
        <ele>2102.4</ele>
        <time>2012-03-11T14:13:19Z</time>
      </trkpt>
      <trkpt lat="45.5036" lon="6.66984">
        <ele>2107.4</ele>
        <time>2012-03-11T14:13:24Z</time>
      </trkpt>
      <trkpt lat="45.50358" lon="6.6697">
        <ele>2112.9</ele>
        <time>2012-03-11T14:13:29Z</time>
      </trkpt>
      <trkpt lat="45.50355" lon="6.66956">
        <ele>2118.6</ele>
        <time>2012-03-11T14:13:34Z</time>
      </trkpt>
      <trkpt lat="45.50354" lon="6.66944">
        <ele>2122.9</ele>
        <time>2012-03-11T14:13:39Z</time>
      </trkpt>
      <trkpt lat="45.50351" lon="6.66932">
        <ele>2126.3</ele>
        <time>2012-03-11T14:13:44Z</time>
      </trkpt>
      <trkpt lat="45.50349" lon="6.66921">
        <ele>2129.4</ele>
        <time>2012-03-11T14:13:49Z</time>
      </trkpt>
      <trkpt lat="45.50347" lon="6.66909">
        <ele>2132.6</ele>
        <time>2012-03-11T14:13:54Z</time>
      </trkpt>
      <trkpt lat="45.50344" lon="6.66896">
        <ele>2136.4</ele>
        <time>2012-03-11T14:13:59Z</time>
      </trkpt>
      <trkpt lat="45.50341" lon="6.66883">
        <ele>2139.4</ele>
        <time>2012-03-11T14:14:04Z</time>
      </trkpt>
      <trkpt lat="45.50338" lon="6.66872">
        <ele>2142.3</ele>
        <time>2012-03-11T14:14:08.999Z</time>
      </trkpt>
      <trkpt lat="45.50337" lon="6.66861">
        <ele>2144.5</ele>
        <time>2012-03-11T14:14:14.002Z</time>
      </trkpt>
      <trkpt lat="45.50335" lon="6.66851">
        <ele>2146.2</ele>
        <time>2012-03-11T14:14:18.997Z</time>
      </trkpt>
      <trkpt lat="45.50333" lon="6.66841">
        <ele>2148.7</ele>
        <time>2012-03-11T14:14:23.997Z</time>
      </trkpt>
      <trkpt lat="45.50331" lon="6.66833">
        <ele>2151.4</ele>
        <time>2012-03-11T14:14:29Z</time>
      </trkpt>
      <trkpt lat="45.5033" lon="6.66825">
        <ele>2153.8</ele>
        <time>2012-03-11T14:14:34Z</time>
      </trkpt>
      <trkpt lat="45.50328" lon="6.66817">
        <ele>2155.3</ele>
        <time>2012-03-11T14:14:38.997Z</time>
      </trkpt>
      <trkpt lat="45.50326" lon="6.66808">
        <ele>2157.9</ele>
        <time>2012-03-11T14:14:44Z</time>
      </trkpt>
      <trkpt lat="45.50322" lon="6.66799">
        <ele>2160.3</ele>
        <time>2012-03-11T14:14:49.000Z</time>
      </trkpt>
      <trkpt lat="45.50319" lon="6.66791">
        <ele>2162.9</ele>
        <time>2012-03-11T14:14:54Z</time>
      </trkpt>
      <trkpt lat="45.50317" lon="6.66781">
        <ele>2164.9</ele>
        <time>2012-03-11T14:14:58.997Z</time>
      </trkpt>
      <trkpt lat="45.50314" lon="6.66772">
        <ele>2167.5</ele>
        <time>2012-03-11T14:15:03.997Z</time>
      </trkpt>
      <trkpt lat="45.50314" lon="6.66765">
        <ele>2168.9</ele>
        <time>2012-03-11T14:15:09Z</time>
      </trkpt>
      <trkpt lat="45.50312" lon="6.66757">
        <ele>2170.4</ele>
        <time>2012-03-11T14:15:14Z</time>
      </trkpt>
      <trkpt lat="45.50311" lon="6.6675">
        <ele>2172.7</ele>
        <time>2012-03-11T14:15:18.997Z</time>
      </trkpt>
      <trkpt lat="45.50308" lon="6.66742">
        <ele>2175.1</ele>
        <time>2012-03-11T14:15:24Z</time>
      </trkpt>
      <trkpt lat="45.50305" lon="6.66733">
        <ele>2177.3</ele>
        <time>2012-03-11T14:15:29Z</time>
      </trkpt>
      <trkpt lat="45.50302" lon="6.66721">
        <ele>2180</ele>
        <time>2012-03-11T14:15:34Z</time>
      </trkpt>
      <trkpt lat="45.503" lon="6.66709">
        <ele>2182.9</ele>
        <time>2012-03-11T14:15:39.002Z</time>
      </trkpt>
      <trkpt lat="45.50296" lon="6.66696">
        <ele>2185</ele>
        <time>2012-03-11T14:15:44Z</time>
      </trkpt>
      <trkpt lat="45.50294" lon="6.66683">
        <ele>2187.9</ele>
        <time>2012-03-11T14:15:49Z</time>
      </trkpt>
      <trkpt lat="45.5029" lon="6.6667">
        <ele>2190.7</ele>
        <time>2012-03-11T14:15:54.000Z</time>
      </trkpt>
      <trkpt lat="45.50287" lon="6.66658">
        <ele>2193.2</ele>
        <time>2012-03-11T14:15:59Z</time>
      </trkpt>
      <trkpt lat="45.50284" lon="6.66646">
        <ele>2195.6</ele>
        <time>2012-03-11T14:16:04Z</time>
      </trkpt>
      <trkpt lat="45.5028" lon="6.66633">
        <ele>2198.6</ele>
        <time>2012-03-11T14:16:08.997Z</time>
      </trkpt>
      <trkpt lat="45.50276" lon="6.6662">
        <ele>2202.2</ele>
        <time>2012-03-11T14:16:14Z</time>
      </trkpt>
      <trkpt lat="45.50273" lon="6.66607">
        <ele>2204.1</ele>
        <time>2012-03-11T14:16:19Z</time>
      </trkpt>
      <trkpt lat="45.50269" lon="6.66595">
        <ele>2206.6</ele>
        <time>2012-03-11T14:16:24Z</time>
      </trkpt>
      <trkpt lat="45.50265" lon="6.66582">
        <ele>2209.6</ele>
        <time>2012-03-11T14:16:29.002Z</time>
      </trkpt>
      <trkpt lat="45.50262" lon="6.6657">
        <ele>2211.8</ele>
        <time>2012-03-11T14:16:33.997Z</time>
      </trkpt>
      <trkpt lat="45.50262" lon="6.6656">
        <ele>2214.8</ele>
        <time>2012-03-11T14:16:39.002Z</time>
      </trkpt>
      <trkpt lat="45.5026" lon="6.66549">
        <ele>2218.1</ele>
        <time>2012-03-11T14:16:44.000Z</time>
      </trkpt>
      <trkpt lat="45.50258" lon="6.66538">
        <ele>2221.6</ele>
        <time>2012-03-11T14:16:49.000Z</time>
      </trkpt>
      <trkpt lat="45.50254" lon="6.66525">
        <ele>2224.9</ele>
        <time>2012-03-11T14:16:54.002Z</time>
      </trkpt>
      <trkpt lat="45.50253" lon="6.66515">
        <ele>2228.1</ele>
        <time>2012-03-11T14:16:59.000Z</time>
      </trkpt>
      <trkpt lat="45.50251" lon="6.66505">
        <ele>2229.6</ele>
        <time>2012-03-11T14:17:04.002Z</time>
      </trkpt>
      <trkpt lat="45.5025" lon="6.66496">
        <ele>2229.9</ele>
        <time>2012-03-11T14:17:09Z</time>
      </trkpt>
      <trkpt lat="45.50249" lon="6.66487">
        <ele>2230.5</ele>
        <time>2012-03-11T14:17:14.000Z</time>
      </trkpt>
      <trkpt lat="45.50246" lon="6.66475">
        <ele>2233</ele>
        <time>2012-03-11T14:17:19.002Z</time>
      </trkpt>
      <trkpt lat="45.50244" lon="6.66463">
        <ele>2236.6</ele>
        <time>2012-03-11T14:17:24.000Z</time>
      </trkpt>
      <trkpt lat="45.50241" lon="6.66451">
        <ele>2241.2</ele>
        <time>2012-03-11T14:17:29.002Z</time>
      </trkpt>
      <trkpt lat="45.50238" lon="6.66438">
        <ele>2246.4</ele>
        <time>2012-03-11T14:17:34.000Z</time>
      </trkpt>
      <trkpt lat="45.50233" lon="6.66425">
        <ele>2253.4</ele>
        <time>2012-03-11T14:17:38.999Z</time>
      </trkpt>
      <trkpt lat="45.50228" lon="6.66411">
        <ele>2260</ele>
        <time>2012-03-11T14:17:44.000Z</time>
      </trkpt>
      <trkpt lat="45.50224" lon="6.66398">
        <ele>2265.3</ele>
        <time>2012-03-11T14:17:49.000Z</time>
      </trkpt>
      <trkpt lat="45.5022" lon="6.66385">
        <ele>2270.2</ele>
        <time>2012-03-11T14:17:54.002Z</time>
      </trkpt>
      <trkpt lat="45.50217" lon="6.66373">
        <ele>2274.6</ele>
        <time>2012-03-11T14:17:58.999Z</time>
      </trkpt>
      <trkpt lat="45.50213" lon="6.6636">
        <ele>2278.4</ele>
        <time>2012-03-11T14:18:04.000Z</time>
      </trkpt>
      <trkpt lat="45.5021" lon="6.66348">
        <ele>2283.3</ele>
        <time>2012-03-11T14:18:09.002Z</time>
      </trkpt>
      <trkpt lat="45.50208" lon="6.66336">
        <ele>2286.6</ele>
        <time>2012-03-11T14:18:14.000Z</time>
      </trkpt>
      <trkpt lat="45.50205" lon="6.66323">
        <ele>2289.6</ele>
        <time>2012-03-11T14:18:19Z</time>
      </trkpt>
      <trkpt lat="45.50202" lon="6.66312">
        <ele>2292.7</ele>
        <time>2012-03-11T14:18:24.002Z</time>
      </trkpt>
      <trkpt lat="45.502" lon="6.66301">
        <ele>2295.9</ele>
        <time>2012-03-11T14:18:28.997Z</time>
      </trkpt>
      <trkpt lat="45.50198" lon="6.6629">
        <ele>2300.2</ele>
        <time>2012-03-11T14:18:34.002Z</time>
      </trkpt>
      <trkpt lat="45.50195" lon="6.66279">
        <ele>2305.4</ele>
        <time>2012-03-11T14:18:39Z</time>
      </trkpt>
      <trkpt lat="45.50193" lon="6.66268">
        <ele>2310.4</ele>
        <time>2012-03-11T14:18:43.997Z</time>
      </trkpt>
      <trkpt lat="45.50191" lon="6.66257">
        <ele>2316.7</ele>
        <time>2012-03-11T14:18:49Z</time>
      </trkpt>
      <trkpt lat="45.50188" lon="6.66244">
        <ele>2323</ele>
        <time>2012-03-11T14:18:54.002Z</time>
      </trkpt>
      <trkpt lat="45.50185" lon="6.66233">
        <ele>2327.4</ele>
        <time>2012-03-11T14:18:59.002Z</time>
      </trkpt>
      <trkpt lat="45.50184" lon="6.66223">
        <ele>2330.4</ele>
        <time>2012-03-11T14:19:04Z</time>
      </trkpt>
      <trkpt lat="45.50182" lon="6.66214">
        <ele>2333.6</ele>
        <time>2012-03-11T14:19:09Z</time>
      </trkpt>
      <trkpt lat="45.50181" lon="6.66207">
        <ele>2335.9</ele>
        <time>2012-03-11T14:19:13.997Z</time>
      </trkpt>
      <trkpt lat="45.50182" lon="6.66202">
        <ele>2336.5</ele>
        <time>2012-03-11T14:19:19Z</time>
      </trkpt>
      <trkpt lat="45.50182" lon="6.66195">
        <ele>2337.3</ele>
        <time>2012-03-11T14:19:23.997Z</time>
      </trkpt>
      <trkpt lat="45.50181" lon="6.66188">
        <ele>2337.3</ele>
        <time>2012-03-11T14:19:29Z</time>
      </trkpt>
      <trkpt lat="45.50179" lon="6.66179">
        <ele>2336.1</ele>
        <time>2012-03-11T14:19:33.997Z</time>
      </trkpt>
      <trkpt lat="45.50177" lon="6.6617">
        <ele>2336.3</ele>
        <time>2012-03-11T14:19:39.000Z</time>
      </trkpt>
      <trkpt lat="45.50173" lon="6.66153">
        <ele>2336.7</ele>
        <time>2012-03-11T14:19:43.999Z</time>
      </trkpt>
      <trkpt lat="45.50175" lon="6.66145">
        <ele>2335.7</ele>
        <time>2012-03-11T14:19:48.999Z</time>
      </trkpt>
      <trkpt lat="45.5019" lon="6.6615">
        <ele>2334.9</ele>
        <time>2012-03-11T14:20:09Z</time>
      </trkpt>
      <trkpt lat="45.50207" lon="6.6615">
        <ele>2329.5</ele>
        <time>2012-03-11T14:21:04Z</time>
      </trkpt>
      <trkpt lat="45.50219" lon="6.66146">
        <ele>2328.4</ele>
        <time>2012-03-11T14:21:09Z</time>
      </trkpt>
      <trkpt lat="45.50235" lon="6.66141">
        <ele>2327.4</ele>
        <time>2012-03-11T14:21:14Z</time>
      </trkpt>
      <trkpt lat="45.50255" lon="6.66133">
        <ele>2326.3</ele>
        <time>2012-03-11T14:21:19Z</time>
      </trkpt>
      <trkpt lat="45.50273" lon="6.66123">
        <ele>2325.3</ele>
        <time>2012-03-11T14:21:23.997Z</time>
      </trkpt>
      <trkpt lat="45.50295" lon="6.6611">
        <ele>2324.6</ele>
        <time>2012-03-11T14:21:29Z</time>
      </trkpt>
      <trkpt lat="45.50329" lon="6.66105">
        <ele>2322.3</ele>
        <time>2012-03-11T14:21:34Z</time>
      </trkpt>
      <trkpt lat="45.50374" lon="6.66103">
        <ele>2319</ele>
        <time>2012-03-11T14:21:39.000Z</time>
      </trkpt>
      <trkpt lat="45.5042" lon="6.66092">
        <ele>2314.5</ele>
        <time>2012-03-11T14:21:43.997Z</time>
      </trkpt>
      <trkpt lat="45.50456" lon="6.66088">
        <ele>2310.3</ele>
        <time>2012-03-11T14:21:49Z</time>
      </trkpt>
      <trkpt lat="45.50487" lon="6.66086">
        <ele>2306.4</ele>
        <time>2012-03-11T14:21:54Z</time>
      </trkpt>
      <trkpt lat="45.50509" lon="6.661">
        <ele>2302.5</ele>
        <time>2012-03-11T14:21:59.002Z</time>
      </trkpt>
      <trkpt lat="45.50536" lon="6.66122">
        <ele>2299.7</ele>
        <time>2012-03-11T14:22:04Z</time>
      </trkpt>
      <trkpt lat="45.50578" lon="6.66131">
        <ele>2293.9</ele>
        <time>2012-03-11T14:22:08.997Z</time>
      </trkpt>
      <trkpt lat="45.5062" lon="6.66134">
        <ele>2287.3</ele>
        <time>2012-03-11T14:22:14.000Z</time>
      </trkpt>
      <trkpt lat="45.50655" lon="6.66152">
        <ele>2281.2</ele>
        <time>2012-03-11T14:22:18.997Z</time>
      </trkpt>
      <trkpt lat="45.50678" lon="6.66175">
        <ele>2275.5</ele>
        <time>2012-03-11T14:22:24Z</time>
      </trkpt>
      <trkpt lat="45.50699" lon="6.66196">
        <ele>2269.5</ele>
        <time>2012-03-11T14:22:28.999Z</time>
      </trkpt>
      <trkpt lat="45.50712" lon="6.66199">
        <ele>2263.2</ele>
        <time>2012-03-11T14:22:34Z</time>
      </trkpt>
      <trkpt lat="45.50723" lon="6.66215">
        <ele>2256.8</ele>
        <time>2012-03-11T14:22:39Z</time>
      </trkpt>
      <trkpt lat="45.50731" lon="6.66244">
        <ele>2249.7</ele>
        <time>2012-03-11T14:22:44Z</time>
      </trkpt>
      <trkpt lat="45.50736" lon="6.66293">
        <ele>2244.1</ele>
        <time>2012-03-11T14:22:49Z</time>
      </trkpt>
      <trkpt lat="45.50746" lon="6.66358">
        <ele>2236.1</ele>
        <time>2012-03-11T14:22:54Z</time>
      </trkpt>
      <trkpt lat="45.50762" lon="6.66392">
        <ele>2226.9</ele>
        <time>2012-03-11T14:22:59Z</time>
      </trkpt>
      <trkpt lat="45.50766" lon="6.66392">
        <ele>2219.3</ele>
        <time>2012-03-11T14:23:04.002Z</time>
      </trkpt>
      <trkpt lat="45.5077" lon="6.66393">
        <ele>2215.6</ele>
        <time>2012-03-11T14:23:08.999Z</time>
      </trkpt>
      <trkpt lat="45.50779" lon="6.66392">
        <ele>2212.5</ele>
        <time>2012-03-11T14:23:14.002Z</time>
      </trkpt>
      <trkpt lat="45.50797" lon="6.6639">
        <ele>2205.5</ele>
        <time>2012-03-11T14:23:18.999Z</time>
      </trkpt>
      <trkpt lat="45.50821" lon="6.66383">
        <ele>2195.4</ele>
        <time>2012-03-11T14:23:23.999Z</time>
      </trkpt>
      <trkpt lat="45.50858" lon="6.66394">
        <ele>2181.4</ele>
        <time>2012-03-11T14:23:28.997Z</time>
      </trkpt>
      <trkpt lat="45.50898" lon="6.66404">
        <ele>2167</ele>
        <time>2012-03-11T14:23:34Z</time>
      </trkpt>
      <trkpt lat="45.50939" lon="6.66414">
        <ele>2149.6</ele>
        <time>2012-03-11T14:23:39Z</time>
      </trkpt>
      <trkpt lat="45.50991" lon="6.66407">
        <ele>2130.3</ele>
        <time>2012-03-11T14:23:44Z</time>
      </trkpt>
      <trkpt lat="45.51044" lon="6.66386">
        <ele>2112.9</ele>
        <time>2012-03-11T14:23:48.997Z</time>
      </trkpt>
      <trkpt lat="45.51084" lon="6.66378">
        <ele>2100</ele>
        <time>2012-03-11T14:23:54Z</time>
      </trkpt>
      <trkpt lat="45.51097" lon="6.6638">
        <ele>2093.2</ele>
        <time>2012-03-11T14:23:59.000Z</time>
      </trkpt>
      <trkpt lat="45.51089" lon="6.66385">
        <ele>2100.2</ele>
        <time>2012-03-11T14:24:09.000Z</time>
      </trkpt>
      <trkpt lat="45.51093" lon="6.66386">
        <ele>2104.3</ele>
        <time>2012-03-11T14:24:14Z</time>
      </trkpt>
      <trkpt lat="45.51093" lon="6.66387">
        <ele>2116.3</ele>
        <time>2012-03-11T14:24:54Z</time>
      </trkpt>
      <trkpt lat="45.51106" lon="6.66396">
        <ele>2116.4</ele>
        <time>2012-03-11T14:24:58.999Z</time>
      </trkpt>
      <trkpt lat="45.51127" lon="6.66411">
        <ele>2115.9</ele>
        <time>2012-03-11T14:25:04.002Z</time>
      </trkpt>
      <trkpt lat="45.5115" lon="6.66433">
        <ele>2113.9</ele>
        <time>2012-03-11T14:25:09Z</time>
      </trkpt>
      <trkpt lat="45.51179" lon="6.66447">
        <ele>2110.6</ele>
        <time>2012-03-11T14:25:14Z</time>
      </trkpt>
      <trkpt lat="45.51217" lon="6.66458">
        <ele>2105</ele>
        <time>2012-03-11T14:25:18.999Z</time>
      </trkpt>
      <trkpt lat="45.51261" lon="6.66475">
        <ele>2099.4</ele>
        <time>2012-03-11T14:25:23.997Z</time>
      </trkpt>
      <trkpt lat="45.51297" lon="6.665">
        <ele>2093.4</ele>
        <time>2012-03-11T14:25:29Z</time>
      </trkpt>
      <trkpt lat="45.5133" lon="6.66538">
        <ele>2086.2</ele>
        <time>2012-03-11T14:25:34Z</time>
      </trkpt>
      <trkpt lat="45.51364" lon="6.66587">
        <ele>2076.3</ele>
        <time>2012-03-11T14:25:39Z</time>
      </trkpt>
      <trkpt lat="45.51397" lon="6.66636">
        <ele>2065.2</ele>
        <time>2012-03-11T14:25:44Z</time>
      </trkpt>
      <trkpt lat="45.51421" lon="6.66691">
        <ele>2053.7</ele>
        <time>2012-03-11T14:25:48.997Z</time>
      </trkpt>
      <trkpt lat="45.51435" lon="6.66723">
        <ele>2040.2</ele>
        <time>2012-03-11T14:25:53.999Z</time>
      </trkpt>
      <trkpt lat="45.51441" lon="6.66719">
        <ele>2027.9</ele>
        <time>2012-03-11T14:25:58.997Z</time>
      </trkpt>
      <trkpt lat="45.51447" lon="6.66711">
        <ele>2019.8</ele>
        <time>2012-03-11T14:26:04.002Z</time>
      </trkpt>
      <trkpt lat="45.51449" lon="6.6671">
        <ele>2019</ele>
        <time>2012-03-11T14:26:08.999Z</time>
      </trkpt>
      <trkpt lat="45.51461" lon="6.66724">
        <ele>2019.2</ele>
        <time>2012-03-11T14:26:14Z</time>
      </trkpt>
      <trkpt lat="45.51479" lon="6.66756">
        <ele>2018.6</ele>
        <time>2012-03-11T14:26:19Z</time>
      </trkpt>
      <trkpt lat="45.51501" lon="6.66793">
        <ele>2015.7</ele>
        <time>2012-03-11T14:26:24Z</time>
      </trkpt>
      <trkpt lat="45.51523" lon="6.66818">
        <ele>2009.6</ele>
        <time>2012-03-11T14:26:29Z</time>
      </trkpt>
      <trkpt lat="45.51536" lon="6.66821">
        <ele>2001.2</ele>
        <time>2012-03-11T14:26:34Z</time>
      </trkpt>
      <trkpt lat="45.51538" lon="6.66817">
        <ele>1993.2</ele>
        <time>2012-03-11T14:26:44.000Z</time>
      </trkpt>
      <trkpt lat="45.51537" lon="6.66823">
        <ele>1991.6</ele>
        <time>2012-03-11T14:26:49Z</time>
      </trkpt>
      <trkpt lat="45.51539" lon="6.66831">
        <ele>1994.3</ele>
        <time>2012-03-11T14:27:14.000Z</time>
      </trkpt>
      <trkpt lat="45.51544" lon="6.66825">
        <ele>1993</ele>
        <time>2012-03-11T14:27:18.999Z</time>
      </trkpt>
      <trkpt lat="45.51564" lon="6.66811">
        <ele>1988.1</ele>
        <time>2012-03-11T14:27:24Z</time>
      </trkpt>
      <trkpt lat="45.51591" lon="6.66772">
        <ele>1975.8</ele>
        <time>2012-03-11T14:27:29.002Z</time>
      </trkpt>
      <trkpt lat="45.5162" lon="6.6672">
        <ele>1958.4</ele>
        <time>2012-03-11T14:27:33.997Z</time>
      </trkpt>
      <trkpt lat="45.51643" lon="6.66661">
        <ele>1938.5</ele>
        <time>2012-03-11T14:27:39Z</time>
      </trkpt>
      <trkpt lat="45.51657" lon="6.66635">
        <ele>1917.3</ele>
        <time>2012-03-11T14:27:44Z</time>
      </trkpt>
      <trkpt lat="45.51661" lon="6.66621">
        <ele>1899.9</ele>
        <time>2012-03-11T14:27:49.000Z</time>
      </trkpt>
      <trkpt lat="45.51671" lon="6.66615">
        <ele>1890.6</ele>
        <time>2012-03-11T14:27:54Z</time>
      </trkpt>
      <trkpt lat="45.5169" lon="6.66593">
        <ele>1879.7</ele>
        <time>2012-03-11T14:27:59Z</time>
      </trkpt>
      <trkpt lat="45.51714" lon="6.66572">
        <ele>1869.6</ele>
        <time>2012-03-11T14:28:03.997Z</time>
      </trkpt>
      <trkpt lat="45.51754" lon="6.66586">
        <ele>1856.9</ele>
        <time>2012-03-11T14:28:09Z</time>
      </trkpt>
      <trkpt lat="45.51806" lon="6.66619">
        <ele>1843.3</ele>
        <time>2012-03-11T14:28:14Z</time>
      </trkpt>
      <trkpt lat="45.5185" lon="6.66652">
        <ele>1828.4</ele>
        <time>2012-03-11T14:28:18.997Z</time>
      </trkpt>
      <trkpt lat="45.51879" lon="6.6668">
        <ele>1815.7</ele>
        <time>2012-03-11T14:28:24.002Z</time>
      </trkpt>
      <trkpt lat="45.51911" lon="6.66704">
        <ele>1801.6</ele>
        <time>2012-03-11T14:28:28.997Z</time>
      </trkpt>
      <trkpt lat="45.51956" lon="6.66731">
        <ele>1785</ele>
        <time>2012-03-11T14:28:34Z</time>
      </trkpt>
      <trkpt lat="45.52002" lon="6.66753">
        <ele>1766.3</ele>
        <time>2012-03-11T14:28:39.002Z</time>
      </trkpt>
      <trkpt lat="45.52047" lon="6.66785">
        <ele>1749.9</ele>
        <time>2012-03-11T14:28:43.997Z</time>
      </trkpt>
      <trkpt lat="45.52074" lon="6.66822">
        <ele>1737.5</ele>
        <time>2012-03-11T14:28:49.000Z</time>
      </trkpt>
      <trkpt lat="45.52084" lon="6.66836">
        <ele>1729.7</ele>
        <time>2012-03-11T14:28:54Z</time>
      </trkpt>
      <trkpt lat="45.52085" lon="6.66842">
        <ele>1732.7</ele>
        <time>2012-03-11T14:29:09Z</time>
      </trkpt>
      <trkpt lat="45.52079" lon="6.66862">
        <ele>1736.2</ele>
        <time>2012-03-11T14:29:14Z</time>
      </trkpt>
      <trkpt lat="45.52081" lon="6.66902">
        <ele>1737.6</ele>
        <time>2012-03-11T14:29:19Z</time>
      </trkpt>
      <trkpt lat="45.52091" lon="6.66946">
        <ele>1737.7</ele>
        <time>2012-03-11T14:29:24Z</time>
      </trkpt>
      <trkpt lat="45.52097" lon="6.66983">
        <ele>1737.6</ele>
        <time>2012-03-11T14:29:29Z</time>
      </trkpt>
      <trkpt lat="45.52105" lon="6.6703">
        <ele>1735.5</ele>
        <time>2012-03-11T14:29:33.999Z</time>
      </trkpt>
      <trkpt lat="45.52121" lon="6.67078">
        <ele>1728</ele>
        <time>2012-03-11T14:29:39Z</time>
      </trkpt>
      <trkpt lat="45.52138" lon="6.6711">
        <ele>1718.6</ele>
        <time>2012-03-11T14:29:44.000Z</time>
      </trkpt>
      <trkpt lat="45.52164" lon="6.67127">
        <ele>1706.7</ele>
        <time>2012-03-11T14:29:49.003Z</time>
      </trkpt>
      <trkpt lat="45.522" lon="6.67137">
        <ele>1692.9</ele>
        <time>2012-03-11T14:29:53.997Z</time>
      </trkpt>
      <trkpt lat="45.52234" lon="6.67145">
        <ele>1679.4</ele>
        <time>2012-03-11T14:29:59.002Z</time>
      </trkpt>
      <trkpt lat="45.52251" lon="6.67151">
        <ele>1667.4</ele>
        <time>2012-03-11T14:30:04.002Z</time>
      </trkpt>
      <trkpt lat="45.52254" lon="6.67174">
        <ele>1655.9</ele>
        <time>2012-03-11T14:30:09Z</time>
      </trkpt>
      <trkpt lat="45.52255" lon="6.67207">
        <ele>1647.8</ele>
        <time>2012-03-11T14:30:14Z</time>
      </trkpt>
      <trkpt lat="45.52255" lon="6.67242">
        <ele>1640.4</ele>
        <time>2012-03-11T14:30:19Z</time>
      </trkpt>
      <trkpt lat="45.52263" lon="6.67269">
        <ele>1631.3</ele>
        <time>2012-03-11T14:30:24Z</time>
      </trkpt>
      <trkpt lat="45.52271" lon="6.67285">
        <ele>1622.9</ele>
        <time>2012-03-11T14:30:29.002Z</time>
      </trkpt>
      <trkpt lat="45.52284" lon="6.67259">
        <ele>1624.6</ele>
        <time>2012-03-11T14:30:59Z</time>
      </trkpt>
      <trkpt lat="45.52295" lon="6.67263">
        <ele>1625.9</ele>
        <time>2012-03-11T14:31:04Z</time>
      </trkpt>
      <trkpt lat="45.5232" lon="6.67276">
        <ele>1625</ele>
        <time>2012-03-11T14:31:08.997Z</time>
      </trkpt>
      <trkpt lat="45.52357" lon="6.67291">
        <ele>1618.8</ele>
        <time>2012-03-11T14:31:14Z</time>
      </trkpt>
      <trkpt lat="45.52397" lon="6.67303">
        <ele>1606.2</ele>
        <time>2012-03-11T14:31:19Z</time>
      </trkpt>
      <trkpt lat="45.5243" lon="6.67323">
        <ele>1592.3</ele>
        <time>2012-03-11T14:31:23.997Z</time>
      </trkpt>
      <trkpt lat="45.52464" lon="6.67339">
        <ele>1575.9</ele>
        <time>2012-03-11T14:31:29Z</time>
      </trkpt>
      <trkpt lat="45.52505" lon="6.67348">
        <ele>1558.8</ele>
        <time>2012-03-11T14:31:33.999Z</time>
      </trkpt>
      <trkpt lat="45.52545" lon="6.67352">
        <ele>1537.4</ele>
        <time>2012-03-11T14:31:39Z</time>
      </trkpt>
      <trkpt lat="45.52566" lon="6.67361">
        <ele>1517.3</ele>
        <time>2012-03-11T14:31:43.999Z</time>
      </trkpt>
      <trkpt lat="45.52573" lon="6.67373">
        <ele>1501</ele>
        <time>2012-03-11T14:31:49Z</time>
      </trkpt>
      <trkpt lat="45.52579" lon="6.67384">
        <ele>1492.5</ele>
        <time>2012-03-11T14:31:54.002Z</time>
      </trkpt>
      <trkpt lat="45.52545" lon="6.67342">
        <ele>1549.8</ele>
        <time>2012-03-11T14:33:23.997Z</time>
      </trkpt>
      <trkpt lat="45.52558" lon="6.67348">
        <ele>1546.3</ele>
        <time>2012-03-11T14:33:29Z</time>
      </trkpt>
      <trkpt lat="45.5257" lon="6.67354">
        <ele>1542.7</ele>
        <time>2012-03-11T14:33:34Z</time>
      </trkpt>
      <trkpt lat="45.52578" lon="6.67359">
        <ele>1539.3</ele>
        <time>2012-03-11T14:33:39.000Z</time>
      </trkpt>
      <trkpt lat="45.52588" lon="6.67367">
        <ele>1529.6</ele>
        <time>2012-03-11T14:34:19.002Z</time>
      </trkpt>
      <trkpt lat="45.52591" lon="6.67367">
        <ele>1527.3</ele>
        <time>2012-03-11T14:34:24Z</time>
      </trkpt>
      <trkpt lat="45.52598" lon="6.67379">
        <ele>1534.5</ele>
        <time>2012-03-11T14:35:28.999Z</time>
      </trkpt>
      <trkpt lat="45.52602" lon="6.67365">
        <ele>1505.5</ele>
        <time>2012-03-11T14:39:44Z</time>
      </trkpt>
      <trkpt lat="45.52601" lon="6.67367">
        <ele>1531.7</ele>
        <time>2012-03-11T14:40:19Z</time>
      </trkpt>
      <trkpt lat="45.52605" lon="6.6737">
        <ele>1528.5</ele>
        <time>2012-03-11T14:40:24.000Z</time>
      </trkpt>
      <trkpt lat="45.52597" lon="6.67371">
        <ele>1513.8</ele>
        <time>2012-03-11T14:50:39Z</time>
      </trkpt>
      <trkpt lat="45.52613" lon="6.67361">
        <ele>1505.8</ele>
        <time>2012-03-11T15:04:59Z</time>
      </trkpt>
      <trkpt lat="45.526" lon="6.67364">
        <ele>1522.8</ele>
        <time>2012-03-11T15:45:59.002Z</time>
      </trkpt>
      <trkpt lat="45.52604" lon="6.67376">
        <ele>1511.6</ele>
        <time>2012-03-11T16:00:18.997Z</time>
      </trkpt>
      <trkpt lat="45.52605" lon="6.67383">
        <ele>1500.8</ele>
        <time>2012-03-11T16:09:44Z</time>
      </trkpt>
    </trkseg>
  </trk>
</gpx>